GFSMW_850_thetae_000.txt.gz
Theta_e
323 324 325 326 325 325 326 325 325 324 322 320 316 316 318 318 314 311 311 311 309 309 307 307 307 307 306 306 305 303 302 301 300 299 300 301 301 301 299 300 301 300 300
326 326 327 328 328 326 323 321 321 320 318 317 317 316 312 310 310 310 310 309 309 308 307 306 306 306 303 301 301 300 298 297 295 295 295 297 296 298 299 297 296 299 298
322 323 324 324 321 320 317 315 313 312 312 311 312 312 312 311 310 310 309 309 308 306 306 306 304 303 304 303 302 298 297 296 295 293 296 298 298 297 295 295 294 296 297
319 320 319 316 314 313 313 313 312 313 313 313 313 313 312 311 310 309 308 307 306 305 304 303 303 303 303 301 298 297 296 296 293 294 296 297 296 295 295 295 294 293 293
317 316 314 314 314 314 314 314 313 313 313 313 312 312 311 310 308 306 306 305 304 303 302 299 301 300 300 299 298 298 297 293 292 292 292 291 290 290 293 291 291 291 290
315 315 315 315 314 314 314 314 313 313 313 312 311 310 308 306 304 304 303 304 302 301 300 300 300 300 299 297 295 293 292 291 290 289 288 287 287 287 288 289 289 289 288
316 315 315 315 314 314 314 313 313 312 311 311 309 307 305 302 301 302 302 303 302 301 300 300 301 300 296 294 293 292 290 289 288 287 287 287 287 286 286 287 287 286 286
315 315 315 315 314 314 313 312 312 311 309 308 306 304 302 300 300 300 300 299 298 299 299 299 300 299 297 298 292 291 289 288 288 287 287 287 286 286 286 287 287 286 286
315 314 314 314 313 313 312 310 309 307 305 304 302 299 297 296 295 294 293 293 292 293 299 300 299 298 297 293 292 290 288 289 288 288 288 287 287 287 287 287 287 286 285
314 313 312 312 312 312 310 307 305 304 303 301 300 298 296 294 294 293 292 291 290 297 299 297 298 295 295 292 290 289 288 288 288 287 287 287 287 287 286 286 286 286 285
312 311 311 311 311 309 308 307 303 302 301 299 297 295 294 293 292 291 290 290 293 297 297 296 296 293 292 289 289 288 288 288 288 288 287 287 286 286 285 284 283 283 282
309 309 310 309 307 305 302 302 301 301 299 297 295 295 294 293 292 291 290 290 292 295 295 294 294 293 289 288 288 288 288 287 288 287 287 286 286 284 283 283 283 282 281
308 309 308 305 302 302 301 301 300 299 297 296 295 295 294 293 292 291 290 290 293 293 294 294 292 288 288 288 288 288 287 288 287 287 286 285 284 283 283 282 282 281 281
308 307 304 302 301 301 303 299 298 297 296 295 295 295 294 293 291 291 290 290 292 293 293 291 289 288 289 288 288 288 288 287 287 286 285 284 283 283 282 281 281 280 280
306 304 303 302 303 302 299 298 297 296 295 295 295 294 294 293 291 291 291 290 291 292 292 289 288 289 290 288 288 288 287 287 286 284 283 283 282 281 281 280 280 280 280
305 303 302 302 301 299 298 297 296 295 295 295 294 294 293 291 291 291 291 291 292 292 291 289 290 290 288 288 288 287 286 285 284 282 281 281 280 280 279 279 278 279 279
305 303 302 301 300 298 297 296 295 295 295 294 294 293 292 291 291 291 291 292 292 291 291 290 291 290 288 288 287 286 285 283 281 281 280 279 279 278 278 278 278 279 280
304 301 301 300 299 297 296 295 295 295 294 294 293 292 291 292 291 290 291 291 291 291 291 291 288 288 288 287 286 286 283 282 281 280 279 279 279 278 277 278 279 279 279
303 302 301 299 296 295 294 294 295 294 294 293 291 292 292 292 291 290 291 291 291 291 290 288 288 288 287 286 285 283 281 281 281 279 279 278 278 278 278 278 278 278 279
302 300 299 297 296 295 295 295 293 293 292 291 292 292 292 291 291 290 291 290 290 289 289 289 288 286 286 285 283 281 281 281 280 279 279 278 278 277 277 278 278 278 279
303 299 298 296 296 296 294 292 291 290 290 290 290 291 292 291 291 289 290 290 289 289 288 287 286 286 285 283 281 280 280 279 278 278 278 278 277 277 277 277 277 278 278
299 299 297 297 295 293 291 290 290 290 290 289 289 290 290 291 291 289 289 288 289 288 287 286 287 285 283 282 281 280 280 278 276 276 278 277 276 276 276 276 276 277 277
298 297 296 295 292 290 290 290 290 289 289 289 290 290 290 291 291 288 287 287 288 287 287 287 286 284 282 281 281 280 279 278 277 276 276 276 276 276 276 276 277 277 277
299 296 294 292 291 290 290 289 289 289 289 289 290 289 291 291 291 288 287 287 287 287 287 286 285 283 282 281 280 280 279 278 278 276 276 276 276 276 275 275 276 276 277
295 293 291 291 290 290 290 289 289 289 289 289 289 289 290 290 290 289 287 287 287 286 285 284 283 283 282 281 281 280 279 278 278 277 276 276 276 276 276 275 275 276 276
292 291 290 290 290 290 290 290 289 289 289 289 289 290 290 289 290 289 288 288 287 285 284 284 283 283 282 281 281 280 279 279 278 278 277 277 276 276 275 275 275 274 275

GFSMW_850_thetae_003.txt.gz
Theta_e
323 324 324 324 323 321 322 322 323 324 321 319 318 317 317 317 315 310 309 309 310 309 309 308 307 306 305 305 304 304 303 302 301 299 299 299 298 300 301 298 299 299 298
325 326 326 326 326 325 325 323 320 317 316 316 315 315 313 309 310 310 310 310 309 309 308 306 305 304 304 304 304 303 300 299 297 296 298 298 298 299 297 300 298 296 295
327 328 327 323 321 319 318 316 314 315 313 311 311 312 312 311 310 310 309 308 308 306 305 304 304 302 301 301 300 298 297 298 296 295 295 296 297 297 296 296 296 296 294
323 321 318 316 314 312 311 312 311 312 312 312 312 311 311 310 309 308 306 305 305 304 303 303 301 299 300 299 299 298 297 295 295 294 294 292 294 293 293 293 293 293 292
317 314 313 312 312 312 312 313 313 312 312 311 311 310 309 308 306 304 303 303 303 303 302 301 298 297 300 300 299 296 293 292 292 290 290 291 290 290 291 289 290 290 290
314 313 313 313 313 313 313 313 313 312 312 311 310 309 308 306 305 303 301 301 300 299 297 296 296 298 299 300 298 296 296 294 291 288 288 289 288 288 289 289 289 288 288
314 314 314 313 313 313 312 312 312 312 311 310 308 307 305 302 298 296 295 294 293 293 293 296 299 300 300 297 296 294 292 290 288 288 288 288 288 288 288 288 288 288 288
314 314 314 314 313 313 313 313 313 312 308 306 304 301 298 296 294 293 292 291 291 291 290 292 299 300 298 296 297 293 292 289 288 288 288 288 288 287 287 288 288 287 287
315 315 315 314 313 313 313 312 309 307 305 303 300 298 296 296 295 294 292 291 291 291 292 297 300 299 296 297 294 291 290 289 288 288 288 287 287 287 287 287 287 287 287
315 315 313 312 312 311 309 308 306 304 303 301 299 297 296 295 294 294 292 291 291 291 296 299 299 297 295 293 290 289 288 288 288 288 288 287 287 287 286 286 286 285 285
314 313 311 311 310 308 307 307 305 303 302 299 297 297 297 296 295 293 291 290 290 291 296 297 295 294 294 291 289 288 288 288 288 287 287 287 286 286 285 285 284 284 284
312 310 310 310 307 306 304 304 303 302 299 298 297 297 296 295 294 291 290 290 291 292 295 294 293 293 293 289 289 288 288 288 287 287 286 286 285 285 285 284 284 283 283
308 308 309 307 305 303 305 304 302 299 298 297 296 296 295 294 293 291 290 291 291 291 293 293 292 289 288 289 289 288 288 288 287 287 286 285 284 284 284 283 283 283 282
308 309 308 307 304 303 304 302 299 298 297 296 296 295 294 294 292 290 290 291 291 291 291 292 290 290 289 290 290 288 288 287 287 286 285 284 283 283 283 283 282 282 281
308 309 309 306 303 305 302 299 298 296 296 296 295 294 294 293 291 290 290 291 291 292 291 292 289 289 290 290 289 288 288 287 286 285 283 282 282 281 280 280 281 280 280
309 309 307 305 302 301 300 298 297 296 296 295 295 294 294 293 290 290 290 291 291 292 291 291 290 290 289 290 288 288 287 286 285 283 282 282 281 280 279 279 279 279 279
310 309 307 305 302 301 299 297 296 296 295 295 294 293 293 291 291 291 290 290 291 292 291 291 291 291 289 288 288 287 286 285 283 282 281 280 279 279 278 278 279 279 279
310 309 306 303 301 300 297 296 296 295 295 294 293 293 291 291 292 291 290 290 291 291 291 291 290 289 288 288 287 287 284 282 282 281 280 279 278 278 277 279 279 279 279
310 308 305 302 300 299 296 295 295 295 294 293 292 291 291 291 292 291 291 289 290 290 289 289 289 289 288 286 287 285 283 282 281 280 279 278 278 277 278 279 279 279 279
309 305 302 301 299 297 295 295 296 294 292 291 290 290 290 291 292 292 291 289 290 289 289 288 288 288 286 287 285 283 281 281 280 278 278 279 278 277 277 277 278 278 279
306 302 301 299 297 296 296 297 294 291 290 290 290 290 290 290 291 291 291 290 289 288 288 288 287 286 287 286 284 282 281 280 279 277 277 278 277 276 276 276 277 277 277
303 305 300 297 296 297 296 293 291 290 290 289 289 289 289 290 290 291 291 290 288 287 288 287 286 287 286 284 282 281 280 279 278 277 277 278 277 277 276 276 276 277 277
304 298 297 298 297 295 292 291 290 290 289 289 289 289 290 290 290 291 291 289 288 288 287 287 287 286 285 283 282 281 280 279 278 278 277 277 277 277 276 275 276 276 277
297 301 302 296 294 292 291 290 290 289 289 289 289 289 289 290 290 291 290 288 288 287 287 286 285 284 283 283 282 281 280 279 279 278 277 277 277 276 276 276 275 275 276
300 299 294 293 291 291 290 290 290 290 290 289 289 289 290 290 290 290 289 289 287 287 286 285 284 284 283 283 282 281 280 280 279 279 279 278 278 277 277 276 275 274 275
295 293 292 291 291 290 290 290 290 290 290 289 288 288 288 289 289 289 289 289 288 287 286 285 283 283 283 283 282 281 280 280 280 279 278 279 278 277 276 276 276 275 274

GFSMW_850_thetae_006.txt.gz
Theta_e
326 325 325 327 328 329 327 324 323 323 324 320 319 318 317 316 315 309 309 309 309 308 308 307 307 307 307 307 306 305 305 304 304 302 301 301 300 302 303 303 301 301 302
326 328 328 328 328 327 326 326 324 324 321 319 318 317 316 313 309 310 310 310 309 308 307 307 307 307 306 306 306 304 302 301 302 301 300 299 299 299 301 300 299 299 299
328 328 329 329 329 328 328 326 323 319 317 315 312 311 311 311 311 309 308 308 307 306 306 306 305 305 305 304 304 302 301 300 300 299 298 298 298 297 297 297 296 297 295
329 329 330 330 329 327 325 321 317 314 311 310 311 311 312 311 309 308 307 307 306 304 304 304 303 302 302 302 302 300 300 298 297 297 297 296 295 296 295 295 295 293 293
326 325 324 324 320 317 315 313 312 311 310 311 311 311 309 308 307 306 305 305 304 303 303 302 302 301 300 301 301 300 298 297 297 296 295 295 294 293 292 292 293 292 292
320 318 318 315 314 313 312 311 311 311 312 312 311 309 307 304 302 300 299 298 296 296 296 297 300 301 301 302 300 298 297 296 295 293 292 292 292 291 291 291 291 291 291
316 315 314 313 313 313 312 311 311 312 311 310 307 304 302 300 297 296 295 295 295 295 295 294 297 300 301 300 297 296 296 295 293 292 291 291 291 291 291 290 290 290 290
316 316 315 314 314 312 311 311 310 311 308 305 304 301 299 297 296 295 294 295 295 295 296 297 299 300 299 297 296 297 295 294 292 291 291 291 291 290 290 290 289 289 289
317 317 316 314 312 311 310 310 308 306 304 303 303 298 297 297 295 295 295 294 294 295 297 298 299 299 297 297 296 295 294 293 291 291 291 290 290 289 289 289 289 289 289
317 317 314 312 311 310 311 309 306 304 307 305 299 297 297 297 296 294 292 292 292 294 296 297 298 297 297 296 295 293 292 291 290 290 290 289 289 288 288 288 288 287 287
317 316 313 312 310 309 309 307 304 305 303 300 297 297 297 297 295 294 292 291 290 294 295 296 296 296 295 294 294 292 291 291 290 290 290 289 288 288 288 287 287 287 287
317 315 312 311 310 307 305 304 303 302 300 298 297 297 297 296 295 294 293 292 293 293 294 294 294 294 294 294 292 291 291 291 290 290 289 288 288 287 287 287 287 286 286
315 312 311 309 307 304 303 304 301 301 298 298 297 297 296 295 295 294 293 293 293 294 294 294 294 293 293 291 291 291 291 290 289 289 288 288 287 287 286 286 286 285 285
313 311 308 307 305 303 305 302 301 299 298 298 297 296 295 295 295 294 293 293 293 293 294 294 293 293 291 290 290 290 290 289 289 288 288 287 286 285 285 284 284 284 283
311 309 307 306 304 303 303 301 299 299 298 297 296 296 295 295 295 294 293 292 293 293 294 292 292 291 290 290 290 290 289 289 287 286 285 284 283 282 281 281 282 282 282
310 309 308 306 304 303 302 300 299 298 297 297 296 295 294 294 294 293 293 293 293 293 293 293 292 292 290 291 290 288 288 286 286 284 283 283 282 281 281 280 279 279 280
310 309 309 307 304 301 301 300 298 297 297 296 295 294 293 294 294 293 293 292 292 293 292 293 292 291 290 289 288 288 287 286 284 283 282 282 281 281 281 280 280 281 281
311 310 309 306 303 301 301 299 297 297 296 296 295 293 294 293 293 293 293 293 292 292 291 291 291 291 289 289 288 287 286 284 283 282 282 281 281 281 279 279 280 281 281
311 311 309 306 303 301 300 298 296 295 295 296 294 293 292 293 292 292 293 293 292 291 291 291 290 289 287 288 286 287 285 283 282 282 281 280 280 279 278 279 279 280 280
311 310 307 304 302 301 300 299 295 295 296 293 292 292 292 292 292 292 293 293 292 291 290 289 288 288 287 286 287 286 283 282 282 282 280 279 280 278 277 277 278 279 279
310 308 308 302 300 303 300 295 295 296 293 291 291 292 291 291 292 292 292 292 292 291 288 287 288 287 286 287 286 285 283 281 280 281 280 279 278 279 278 276 277 277 277
306 305 301 300 304 299 295 296 296 293 291 290 290 291 291 290 291 292 292 292 291 290 288 288 287 286 287 286 285 283 282 281 280 280 280 278 278 277 277 277 276 276 276
301 299 300 300 296 297 297 294 292 291 290 290 290 290 291 291 291 291 292 291 290 289 289 288 288 288 287 284 284 283 282 281 280 280 279 279 278 278 278 277 277 277 277
297 296 298 298 298 298 296 291 290 290 290 290 290 290 290 289 290 291 291 291 290 290 288 288 288 287 286 285 284 283 282 281 281 280 279 279 279 279 279 278 278 277 276
298 300 300 300 298 293 291 290 290 290 290 290 290 290 290 289 289 289 291 290 290 289 289 288 287 286 285 285 284 283 282 281 281 280 280 280 280 279 280 279 278 277 276
299 300 296 295 293 291 290 290 290 290 290 290 290 290 290 290 289 289 290 289 289 289 288 287 287 285 283 283 283 283 282 281 281 280 280 281 280 280 279 279 279 278 277

GFSMW_850_thetae_009.txt.gz
Theta_e
329 329 327 327 329 331 330 330 328 327 327 325 322 320 319 317 315 313 309 310 310 310 310 311 311 310 310 309 309 309 308 307 304 303 303 302 302 301 301 302 304 303 302
329 329 329 329 330 331 331 329 328 327 324 322 320 320 319 316 313 312 311 310 310 310 309 309 309 309 308 307 307 307 306 304 302 302 302 300 299 299 299 299 299 299 299
329 330 330 331 331 331 330 329 327 324 321 320 318 315 312 313 314 313 311 311 310 309 308 308 307 307 306 304 303 304 304 302 301 300 299 299 299 298 297 297 297 297 297
330 331 331 331 330 330 329 325 323 320 318 315 315 315 315 314 312 311 310 309 307 306 304 303 303 303 304 303 302 303 302 301 300 299 299 298 298 297 296 295 295 295 295
330 331 332 331 329 328 326 322 319 315 314 314 314 314 313 311 309 306 303 301 300 299 298 298 298 299 302 303 303 303 302 300 299 298 297 296 295 294 294 294 294 294 294
330 329 328 327 326 323 320 318 315 314 313 313 312 311 308 305 303 301 299 298 298 298 298 298 298 299 300 302 302 302 300 299 298 296 295 294 293 293 293 293 293 293 293
326 323 323 320 318 317 316 315 314 313 312 311 308 305 303 301 300 299 298 298 298 297 297 298 299 300 300 301 300 299 298 298 296 295 294 293 293 293 292 292 292 292 291
321 320 319 317 317 317 316 314 313 312 310 306 303 305 302 301 300 299 298 297 297 297 297 298 300 300 300 299 298 298 297 297 295 294 294 293 292 292 292 291 291 291 290
319 318 317 317 316 316 315 314 313 310 305 304 309 308 301 298 299 299 298 296 296 296 296 297 299 299 299 298 298 297 296 295 294 293 293 292 292 291 291 290 290 290 290
319 318 318 318 317 316 314 313 311 306 305 308 305 301 299 300 299 298 297 296 296 296 296 296 297 298 298 298 296 296 295 294 293 292 292 292 291 291 290 290 290 289 289
319 319 319 318 316 315 314 311 307 306 305 304 301 300 300 300 299 298 296 296 295 295 295 295 296 296 296 296 295 295 295 293 293 292 292 291 291 290 290 289 289 288 288
320 319 319 317 315 314 312 309 307 305 304 302 302 300 300 299 298 297 296 296 295 295 295 295 295 295 295 294 294 293 293 292 292 292 291 290 290 289 289 288 288 288 288
320 320 319 316 315 313 310 307 306 305 303 301 300 300 300 299 298 297 296 295 295 295 295 295 295 294 294 294 294 292 292 292 292 291 291 290 289 288 287 287 287 286 286
321 320 319 316 315 312 309 306 305 304 301 300 300 299 299 299 298 297 296 295 294 294 295 295 294 294 293 292 292 292 291 291 291 291 289 288 287 286 285 284 284 284 284
320 320 318 315 314 311 308 306 305 303 300 300 299 299 299 298 297 297 296 295 294 294 294 294 294 294 293 292 290 291 291 290 289 288 287 286 285 284 283 282 282 282 282
319 318 316 314 312 310 307 306 305 302 300 299 299 299 298 297 296 296 295 295 294 294 294 294 294 294 293 292 290 289 288 288 288 287 286 285 284 284 282 282 281 281 281
317 316 315 313 311 309 307 306 303 301 300 299 298 298 297 296 296 295 295 294 294 294 294 293 293 294 293 292 289 288 288 287 287 286 285 284 284 283 283 282 281 281 281
316 315 314 312 311 309 306 305 302 300 299 298 297 297 296 295 295 294 294 294 294 294 293 293 292 292 292 291 289 288 287 287 286 285 284 284 283 282 282 279 280 281 281
315 315 314 313 312 308 305 303 301 300 298 298 296 297 295 294 294 294 294 294 294 294 293 293 292 291 291 290 288 287 287 286 285 284 284 283 281 281 279 280 280 280 281
314 314 314 313 311 307 304 302 300 299 299 297 297 294 294 294 293 293 293 293 294 293 293 292 291 290 289 288 288 287 287 285 284 284 283 282 281 280 278 278 277 279 280
314 314 313 312 310 306 302 300 301 298 297 296 295 294 293 293 293 293 293 293 293 293 293 292 290 289 288 287 287 287 285 283 283 283 283 283 281 279 278 278 278 278 276
314 313 312 308 304 301 300 299 298 297 296 295 294 293 293 293 293 293 293 293 293 293 292 291 290 289 288 287 287 285 284 283 282 282 282 281 280 280 279 279 278 278 279
310 307 304 299 298 298 298 297 294 295 296 291 291 293 293 292 292 292 292 293 293 292 292 291 290 289 289 288 287 285 284 283 283 282 281 281 280 281 281 280 280 279 280
304 300 298 296 295 297 299 298 295 293 290 290 291 291 290 291 291 291 292 292 292 292 291 291 290 289 288 288 287 286 284 283 282 282 282 281 281 281 281 281 281 280 280
297 297 298 298 298 295 294 294 293 290 290 290 290 290 290 291 292 291 291 292 292 291 291 290 290 289 287 287 286 286 285 284 283 282 281 282 282 282 282 282 281 281 280
298 299 298 296 294 294 293 291 290 290 290 290 290 290 291 291 292 291 290 290 290 290 290 289 289 288 287 287 284 283 283 283 282 282 281 282 282 282 282 282 281 281 280

GFSMW_850_thetae_012.txt.gz
Theta_e
329 327 325 326 331 331 329 330 329 323 325 327 321 319 318 317 315 313 310 311 310 311 310 310 310 310 310 309 308 306 307 307 306 303 302 301 301 301 300 300 299 299 299
329 329 328 326 329 331 330 330 329 328 328 324 321 320 319 316 314 313 312 312 311 310 309 308 308 307 307 306 305 304 303 303 304 302 300 300 300 300 299 298 297 297 297
330 330 328 329 330 332 331 330 329 328 323 321 320 320 317 314 314 313 312 311 310 309 307 306 304 304 302 304 304 303 303 304 303 301 300 299 299 298 297 296 296 295 295
329 330 331 331 331 331 331 329 328 324 321 318 316 316 316 315 314 312 311 308 306 304 302 299 298 298 299 301 302 303 303 303 302 300 299 299 297 296 295 295 294 294 293
329 331 332 331 331 330 329 327 324 321 318 316 316 315 314 312 310 308 305 301 300 298 298 298 297 295 295 296 300 302 303 302 300 300 298 296 295 294 293 293 293 292 292
330 331 332 330 329 330 327 324 320 316 315 315 315 314 313 310 306 304 301 299 298 298 297 297 295 296 298 300 301 302 302 301 299 299 297 295 294 293 293 293 293 292 292
330 331 331 330 329 327 324 321 316 315 314 313 313 312 309 308 308 304 299 297 297 297 297 295 295 295 300 301 301 301 299 297 297 297 295 294 293 293 293 292 292 292 291
330 330 329 328 326 323 320 317 315 314 313 311 310 308 310 311 305 301 299 295 296 295 295 295 294 298 300 300 297 297 297 296 296 295 294 294 293 292 292 291 291 290 290
327 326 325 322 320 319 317 315 314 314 311 308 307 308 310 306 301 298 297 295 294 295 295 294 295 298 299 297 297 296 297 296 296 295 294 292 292 292 292 291 290 290 290
324 322 321 319 318 318 317 315 314 313 308 306 308 309 307 303 299 298 297 295 295 294 294 295 295 296 297 298 297 296 296 295 295 294 293 292 292 292 291 290 290 289 289
323 320 319 318 318 318 317 315 314 311 306 306 308 305 304 300 299 298 297 296 295 294 295 295 295 295 296 295 295 295 294 294 294 293 293 292 291 290 290 289 289 288 288
322 320 319 318 319 318 316 315 314 309 306 306 304 304 301 300 300 299 298 297 295 295 295 295 295 295 295 295 294 294 294 293 293 293 292 291 291 290 289 288 287 288 287
323 321 320 320 319 318 316 315 312 308 306 305 303 302 301 301 300 299 298 297 296 295 295 295 295 295 295 294 294 293 292 292 292 292 291 290 289 288 287 287 286 286 284
323 322 321 320 319 317 315 314 311 308 306 304 302 301 301 300 300 299 298 297 296 295 294 295 295 295 294 293 292 292 292 292 292 291 290 289 287 287 286 285 284 283 282
322 322 322 321 319 317 315 313 310 307 306 303 301 301 300 300 300 298 297 297 296 295 294 294 294 295 294 294 293 292 290 289 289 288 288 288 287 286 285 284 283 283 282
317 321 321 321 319 317 316 312 309 307 305 302 300 300 300 299 298 297 296 296 296 295 295 294 294 294 294 294 293 292 289 287 288 288 287 287 285 285 284 283 283 282 281
317 318 319 320 319 317 315 312 309 307 304 301 300 300 299 298 299 296 296 296 295 295 295 294 294 293 293 293 293 291 288 288 288 287 286 285 285 284 284 283 282 280 281
317 317 317 317 317 315 313 311 308 306 303 301 300 299 298 298 296 295 295 295 294 294 295 294 294 293 293 292 292 291 289 288 287 286 285 285 284 284 282 281 279 279 280
315 315 315 316 315 314 312 310 307 305 302 300 298 299 298 296 295 294 294 294 294 294 294 294 294 293 292 291 291 290 288 287 286 285 284 284 284 282 282 280 279 279 279
314 314 315 315 314 313 312 308 305 303 301 299 298 296 297 295 294 294 293 293 293 293 294 294 293 292 291 290 289 289 287 287 286 284 283 283 283 283 282 280 279 279 279
314 315 315 314 314 313 310 305 303 301 300 297 296 297 294 294 293 293 293 293 293 293 293 293 293 293 291 289 288 287 287 285 285 283 282 283 283 283 280 280 280 280 279
313 314 313 311 308 307 306 302 300 299 297 296 296 294 293 293 293 292 291 292 292 293 293 293 293 292 290 289 288 288 287 285 284 283 282 282 282 281 281 281 281 280 280
310 307 306 303 301 300 300 299 297 295 296 294 294 292 291 291 291 290 290 290 292 293 293 292 292 291 290 289 289 288 287 286 284 283 282 282 281 282 281 281 282 281 280
302 300 299 299 298 297 297 298 296 295 294 294 291 290 290 290 290 291 291 290 292 293 292 292 291 291 289 289 288 287 287 286 285 283 283 282 281 282 282 282 281 281 281
298 298 298 298 298 298 299 298 295 294 293 290 290 290 290 290 291 291 292 291 290 292 292 291 291 291 290 289 288 287 285 286 285 284 283 282 282 282 282 281 281 281 281
299 299 299 299 299 299 297 294 293 291 290 290 290 290 290 290 290 291 292 291 290 290 290 290 290 290 290 290 288 287 286 284 284 283 283 282 282 282 282 282 281 282 281

GFSMW_850_thetae_015.txt.gz
Theta_e
325 325 325 329 329 327 328 329 326 325 322 324 321 319 317 315 313 313 310 311 311 311 310 309 309 307 305 305 305 303 304 304 302 302 303 302 300 300 300 299 299 298 297
324 324 327 329 330 328 328 328 326 325 323 326 320 318 317 316 313 312 312 311 311 310 308 307 305 304 303 301 301 302 302 301 302 303 303 300 299 299 299 299 299 296 295
326 326 325 329 331 330 329 328 326 324 327 327 321 318 317 315 313 312 312 311 311 309 306 303 301 299 299 299 299 300 301 303 303 302 301 299 298 297 297 295 295 294 294
328 328 327 329 330 330 330 330 329 326 327 323 321 319 317 314 313 312 312 311 309 304 301 298 297 296 295 294 295 297 300 302 302 302 301 299 298 295 294 293 293 293 293
329 330 329 329 330 331 331 330 329 328 321 320 320 316 315 315 313 312 312 307 306 301 298 297 296 295 294 295 297 300 302 303 302 301 299 298 298 295 294 293 293 292 292
330 330 329 330 330 330 331 329 329 326 321 318 316 315 315 315 314 312 308 310 308 300 296 295 295 294 294 298 300 301 302 301 300 297 296 297 294 294 293 292 292 291 291
329 330 331 331 330 330 329 329 327 323 322 320 316 315 315 314 312 309 311 310 302 296 295 295 294 293 296 299 300 299 297 297 296 295 295 295 294 293 293 292 291 291 290
330 331 331 331 330 329 329 327 323 322 321 316 315 314 313 311 310 311 309 302 296 295 294 294 293 294 298 299 300 297 296 295 296 296 295 295 294 292 292 292 291 291 290
329 330 331 330 329 330 326 323 321 319 318 315 314 312 310 310 310 308 302 297 295 294 294 293 292 293 297 297 298 298 296 296 296 295 295 294 292 292 292 291 291 290 289
330 330 330 330 329 328 325 321 317 317 315 314 312 309 309 308 307 302 298 298 297 294 293 293 294 294 293 295 296 296 296 295 294 295 294 294 293 292 291 290 290 289 289
328 327 327 326 326 323 321 319 315 314 314 313 310 307 308 306 303 299 299 297 296 295 293 294 294 294 294 295 295 295 295 294 293 293 293 293 292 291 291 290 289 288 288
327 325 324 323 320 319 318 317 316 314 314 312 307 307 305 303 300 300 299 298 297 296 294 294 293 294 295 295 295 294 293 293 293 293 292 291 291 290 289 288 287 286 286
325 324 322 320 318 318 317 317 316 314 313 310 306 306 304 302 301 300 299 299 297 296 295 294 293 295 295 295 293 293 293 292 292 292 292 291 289 288 287 287 286 285 284
324 323 321 319 318 318 318 317 316 315 312 308 306 305 304 302 301 300 299 298 297 297 296 294 294 294 295 295 294 293 293 292 291 289 290 289 288 288 287 286 285 284 283
320 322 321 320 319 319 318 317 316 315 312 308 306 304 302 301 301 300 299 298 297 296 296 294 294 294 294 294 294 293 293 293 292 287 287 287 287 287 286 285 284 284 283
317 317 319 321 320 319 318 317 316 314 311 307 305 303 301 301 300 299 298 296 295 295 295 295 295 294 294 294 293 293 293 292 288 288 288 287 286 286 285 284 284 283 282
317 317 318 320 321 320 318 317 316 314 310 307 305 301 301 300 299 298 299 295 295 295 295 295 294 294 294 293 293 292 292 291 290 288 287 286 286 285 284 284 283 281 279
316 316 316 316 318 318 318 317 315 312 308 306 302 300 300 299 298 298 295 295 294 295 294 294 294 294 294 293 293 292 291 290 289 288 287 285 284 284 284 283 282 280 280
314 314 314 314 315 316 316 315 314 309 306 303 301 299 299 298 297 295 294 294 294 293 293 293 294 294 294 293 292 291 290 289 288 287 286 284 284 284 283 283 282 280 280
314 314 314 315 315 315 314 312 308 304 301 299 299 298 297 297 297 294 294 293 293 293 293 293 293 293 293 293 292 291 289 288 287 286 285 283 283 283 283 282 281 280 281
314 313 313 314 314 313 312 307 304 302 300 300 299 297 296 297 294 293 293 293 293 292 291 292 293 293 293 293 291 289 288 287 287 286 284 283 283 282 282 281 280 281 281
312 312 312 310 308 307 307 303 302 299 300 298 297 297 298 295 293 293 292 291 290 290 292 293 293 293 293 291 290 288 288 288 287 286 284 283 282 281 281 281 281 281 281
307 307 308 306 303 302 302 301 299 299 299 299 300 299 294 293 291 291 290 290 290 291 292 292 293 292 292 291 290 288 288 287 286 286 285 283 282 281 281 281 281 281 281
303 302 302 302 301 300 299 299 299 300 300 299 295 294 291 290 290 290 290 291 292 291 291 292 292 292 292 291 290 289 288 287 286 285 285 284 283 282 282 282 281 281 281
300 299 300 300 299 298 299 298 298 297 294 292 290 290 290 290 290 290 290 291 292 291 291 290 291 291 291 291 290 290 289 287 287 285 284 284 284 282 282 282 282 281 281
300 299 299 299 298 297 295 294 291 291 290 290 290 290 290 290 290 290 290 291 292 292 291 290 289 289 290 290 290 290 289 288 287 286 284 284 283 283 282 282 282 281 281

GFSMW_850_thetae_018.txt.gz
Theta_e
328 330 329 329 329 325 318 324 327 327 327 323 321 322 320 319 317 313 311 310 311 311 310 310 310 307 303 301 300 299 299 300 299 300 302 303 302 300 299 299 298 298 297
328 329 329 329 329 323 324 328 329 329 326 322 322 320 318 316 313 312 310 311 311 311 310 309 307 303 300 299 298 298 298 299 301 302 302 301 300 299 298 297 296 296 295
326 328 329 329 328 327 325 326 328 326 325 322 322 317 316 314 313 311 311 311 312 311 310 307 303 300 297 296 296 295 297 299 302 302 302 300 298 298 297 295 294 294 294
325 325 327 328 328 328 328 326 325 325 323 323 321 319 318 317 315 313 312 312 312 308 308 303 298 297 296 295 294 295 296 299 302 302 301 300 299 298 296 295 294 292 292
325 324 324 326 328 329 329 328 327 325 323 325 326 321 319 318 316 313 312 312 309 307 304 299 297 296 295 294 294 296 299 301 301 301 300 298 296 296 295 294 292 291 291
325 324 324 326 328 329 330 328 329 327 327 327 326 323 319 317 314 313 312 310 308 306 301 297 295 294 294 293 296 298 300 298 296 297 295 295 295 295 293 293 292 292 291
326 326 325 327 329 329 329 330 330 329 327 323 321 320 319 315 314 312 311 308 305 300 296 295 294 294 293 294 297 298 299 296 295 295 295 295 294 294 294 293 292 292 291
327 328 328 328 330 329 329 330 330 329 323 320 319 316 315 314 312 310 309 306 301 297 295 294 294 293 293 295 297 299 297 297 295 295 295 295 295 294 293 292 291 291 291
329 330 329 329 330 330 330 329 329 328 324 318 317 315 313 312 311 309 308 302 297 296 299 295 293 293 293 294 295 297 297 295 296 295 294 294 294 293 292 292 291 291 290
329 329 330 330 330 330 330 329 327 326 322 319 316 315 313 310 309 307 303 298 301 297 295 294 293 292 292 292 293 295 295 295 294 294 294 293 293 293 293 291 291 290 289
330 330 330 331 331 330 329 328 327 325 322 320 318 315 312 309 308 307 302 302 298 299 295 294 293 292 291 293 294 295 295 294 294 293 293 293 292 292 291 291 290 288 287
329 329 329 329 329 329 329 328 327 325 325 323 317 314 312 310 308 305 300 300 300 298 296 295 294 292 292 294 295 295 294 292 293 293 292 292 291 291 289 288 287 286 286
329 329 329 328 328 328 329 328 327 325 319 316 314 313 311 308 307 304 301 300 300 298 297 296 294 293 293 294 295 295 294 293 292 292 291 290 289 289 288 287 287 286 285
328 328 327 327 327 327 327 326 322 318 316 315 314 312 310 307 305 303 301 300 299 298 297 296 295 294 294 294 295 294 294 293 293 292 291 291 287 286 287 286 285 284 284
324 324 322 322 324 324 323 320 318 317 316 315 313 311 307 306 303 301 301 299 298 297 296 295 295 295 294 294 294 294 293 293 293 292 291 288 287 287 286 285 285 284 284
317 317 316 318 320 319 319 318 318 317 316 315 312 307 305 303 301 301 299 298 296 295 295 296 295 295 294 294 294 294 293 293 293 292 290 289 288 287 285 284 284 283 283
316 316 316 317 319 319 318 318 317 317 316 314 308 306 304 301 301 299 298 298 298 299 295 294 295 295 294 295 294 293 293 293 292 291 290 288 287 286 284 284 283 283 282
314 314 314 314 315 316 318 319 318 317 315 309 306 303 301 301 299 298 298 298 299 295 294 294 294 293 294 294 294 293 293 292 291 290 289 287 286 285 284 283 283 282 282
314 314 314 314 314 316 317 317 317 315 312 308 304 301 300 299 298 298 299 299 297 294 294 293 293 293 293 294 293 293 292 291 290 289 287 286 284 284 283 283 282 282 281
314 315 314 314 313 314 315 316 314 310 305 301 299 298 297 297 298 299 299 298 294 293 293 293 293 292 292 293 293 292 292 291 289 287 287 286 284 283 283 282 282 281 281
313 312 313 313 313 312 312 313 308 303 300 298 298 297 297 298 299 299 295 294 293 292 291 290 290 291 292 293 293 292 291 289 288 287 286 286 285 283 283 282 281 281 281
310 309 310 308 306 307 307 306 302 300 299 298 298 298 300 300 298 294 294 292 291 290 290 290 291 292 292 293 293 292 290 289 288 287 286 285 285 283 282 281 281 281 281
305 304 304 303 302 301 301 300 300 299 300 300 301 300 299 296 294 291 290 290 290 290 290 290 291 292 292 292 292 291 290 289 288 288 287 285 285 284 283 282 281 281 281
300 300 300 300 299 299 299 299 299 299 299 297 295 293 292 290 290 290 290 290 290 290 290 291 290 290 291 291 291 291 290 289 289 288 287 286 285 284 284 283 282 282 281
300 300 300 299 299 298 297 295 292 291 291 290 290 290 290 290 290 290 290 290 290 290 291 291 291 290 290 289 290 290 290 290 290 288 287 287 286 285 283 283 282 282 281
299 299 299 297 295 293 292 291 291 291 290 290 290 290 290 290 290 290 290 290 290 290 291 291 291 290 290 290 289 289 290 289 290 289 288 287 287 286 284 283 282 282 282

GFSMW_850_thetae_021.txt.gz
Theta_e
330 329 326 326 326 326 327 326 324 325 326 327 327 324 320 320 318 315 313 311 310 310 311 310 310 308 307 304 301 298 298 297 297 296 299 301 301 300 299 299 298 297 297
331 330 329 328 326 324 326 327 325 326 327 327 326 324 321 319 316 314 312 310 310 311 311 310 309 310 309 305 300 298 297 296 296 297 299 301 300 299 299 298 298 296 295
330 330 329 329 327 327 324 321 324 325 325 326 325 321 320 317 315 313 311 310 311 311 310 309 310 308 304 299 297 296 295 295 296 298 300 301 299 299 299 297 296 295 294
328 329 330 329 328 328 326 317 319 323 326 327 325 322 321 317 315 312 311 310 311 311 309 308 307 305 301 297 295 295 295 296 299 301 301 300 299 298 296 296 295 294 291
327 327 328 328 328 328 326 321 323 326 328 327 325 323 319 317 315 314 311 311 311 311 307 306 303 299 296 295 294 295 297 299 299 298 298 297 296 295 295 294 293 293 292
325 325 327 328 328 328 327 324 325 326 327 326 324 322 322 320 317 315 313 312 311 310 305 302 298 295 295 299 294 296 297 298 298 295 295 295 295 294 294 294 293 293 292
324 324 324 327 328 328 327 327 327 327 326 324 325 323 324 322 318 317 314 312 310 306 303 298 295 301 306 295 295 296 298 297 296 296 294 294 295 294 294 293 293 292 291
323 323 325 324 325 326 327 328 328 328 327 326 325 323 326 323 318 316 313 311 306 303 298 295 304 301 293 293 294 295 296 297 296 295 295 294 294 294 294 294 292 292 291
324 324 325 326 324 324 325 328 328 328 328 327 327 326 324 321 317 315 312 308 305 301 297 305 305 293 293 292 292 293 295 295 295 294 294 293 294 293 293 293 292 292 291
324 324 326 326 325 325 326 327 328 328 327 327 326 322 319 318 315 313 311 306 306 300 305 299 295 296 293 292 295 293 294 294 294 293 293 293 293 293 292 292 292 291 290
326 326 326 327 327 328 328 329 329 329 327 326 325 322 318 316 313 310 307 305 301 302 300 297 297 295 295 294 292 294 294 295 294 293 292 292 292 292 291 291 290 289 287
324 326 328 329 329 329 329 330 330 328 328 325 323 320 317 314 312 309 308 306 302 300 300 296 297 295 293 293 293 293 294 294 293 292 292 292 292 291 290 289 288 287 286
322 327 328 329 329 329 330 330 329 327 326 322 320 317 316 314 310 309 308 304 301 301 298 297 295 295 296 294 293 294 294 294 294 292 292 292 291 291 287 286 287 286 285
322 325 328 329 329 330 330 329 328 326 323 320 318 317 316 312 311 309 306 303 301 301 298 297 296 296 295 294 294 294 294 294 294 293 293 292 291 288 288 287 287 285 284
323 324 327 328 329 328 327 326 325 324 322 320 318 317 313 312 309 307 303 301 300 298 297 296 299 295 295 295 294 294 294 294 294 293 293 292 290 289 288 287 286 284 284
317 319 320 322 322 322 323 324 324 321 319 318 318 314 312 310 307 304 301 299 297 296 295 298 298 295 295 295 295 295 294 294 294 293 293 292 290 289 287 286 285 284 283
315 315 315 315 315 316 318 318 318 319 319 317 315 313 311 307 304 301 299 297 296 296 297 300 295 294 294 294 293 294 294 294 293 293 292 291 290 288 286 286 284 283 283
314 314 314 314 314 314 315 316 317 316 316 315 312 310 306 304 302 300 297 297 298 298 300 299 294 294 293 293 293 293 294 293 293 292 292 290 289 287 285 284 283 283 282
314 314 314 314 314 313 314 316 316 315 314 311 309 307 305 301 298 298 298 298 299 300 298 294 293 293 292 292 292 293 293 293 292 292 291 289 287 286 284 283 283 282 282
313 314 314 313 313 313 312 313 314 313 311 308 305 302 299 297 298 299 298 299 299 298 294 293 291 290 290 290 290 292 292 292 292 291 290 288 286 285 285 283 283 282 281
312 311 311 312 311 311 311 310 309 306 303 301 299 297 298 298 298 299 299 299 297 294 292 291 290 290 290 290 291 292 292 292 292 290 288 287 286 285 284 283 282 281 281
308 307 308 308 306 305 305 305 303 299 299 298 299 300 300 299 300 299 297 295 293 291 290 290 290 290 289 290 291 292 292 292 291 290 289 288 286 286 284 283 282 282 281
305 303 304 302 300 299 300 300 298 298 299 299 300 298 298 296 294 293 291 290 290 290 290 290 289 290 290 289 291 292 291 291 291 290 289 288 287 286 285 284 283 283 281
300 300 300 300 299 298 299 298 298 297 296 293 291 290 290 290 290 290 290 290 289 289 289 290 290 290 290 291 290 290 290 290 290 290 290 289 288 286 286 285 284 283 282
300 300 300 299 297 295 293 292 291 291 291 290 290 290 290 290 290 290 290 290 290 290 290 290 290 290 290 290 290 290 289 289 289 289 289 289 288 287 287 286 285 283 283
299 298 295 294 293 292 292 292 292 291 291 290 290 290 290 290 290 290 290 290 290 290 291 291 291 291 291 291 291 290 289 290 289 289 289 289 289 288 287 287 286 284 283

GFSMW_850_thetae_024.txt.gz
Theta_e
328 327 325 325 326 326 324 324 324 323 323 324 324 327 327 328 324 320 320 320 320 316 310 310 309 308 305 303 301 299 297 297 296 297 299 300 300 300 299 299 298 297 297
329 328 327 326 326 324 325 325 326 323 324 325 324 326 327 322 320 319 318 317 314 310 310 310 308 306 304 302 299 297 297 296 296 296 298 300 299 299 299 298 298 297 296
330 328 328 327 326 323 321 321 323 325 324 324 326 327 325 321 319 317 314 311 310 310 310 309 308 305 302 300 298 298 298 297 296 297 298 300 300 299 299 298 297 296 295
330 329 329 328 327 326 324 324 323 324 324 325 326 327 326 322 319 317 315 312 310 310 310 310 307 305 303 299 297 299 303 296 296 298 298 298 299 298 297 296 294 294 293
329 329 328 328 327 327 326 326 325 325 324 325 326 326 325 322 320 316 314 312 310 310 310 309 305 304 301 297 304 309 305 296 296 297 295 294 294 294 294 294 294 293 293
328 328 328 329 329 328 327 327 327 323 323 325 326 325 326 324 320 316 314 312 311 311 310 308 305 303 298 300 308 307 295 294 295 295 295 294 293 294 294 294 294 293 293
326 326 326 327 328 328 327 327 327 325 321 325 325 325 325 324 321 320 320 313 312 311 310 306 301 297 302 306 303 296 295 294 293 295 295 294 294 293 294 294 294 293 292
323 325 325 326 326 327 327 327 327 327 322 323 326 325 325 323 321 321 320 317 314 312 309 306 311 303 306 308 301 296 292 295 295 295 294 294 294 293 293 293 293 292 292
320 322 324 325 325 325 326 326 327 327 326 326 325 325 324 324 324 321 317 317 313 310 308 305 305 304 305 305 294 295 295 295 295 294 293 294 293 293 293 292 292 292 292
320 321 322 323 324 323 324 325 326 326 326 327 326 325 326 325 325 323 317 314 311 309 303 303 301 302 299 294 296 294 293 294 294 294 292 292 292 292 292 292 291 290 290
322 323 324 324 324 324 325 326 324 324 325 326 327 325 325 325 324 322 317 313 310 309 305 301 301 298 295 296 293 297 293 294 294 293 291 291 292 292 292 291 290 289 289
322 324 324 325 325 325 325 325 325 325 326 326 325 324 323 324 321 318 316 311 310 305 301 300 299 296 294 295 299 293 293 293 293 293 293 292 292 292 292 291 288 287 286
321 322 324 325 326 326 327 326 326 326 325 325 324 323 324 322 318 316 314 311 307 302 300 299 297 296 297 299 294 294 294 294 294 294 294 293 292 292 291 289 288 287 287
321 322 322 325 327 328 327 327 326 326 327 325 324 323 322 319 316 315 311 308 303 301 300 298 297 296 298 298 295 294 294 294 294 294 294 293 293 292 291 288 288 287 286
321 322 323 324 326 327 327 327 327 326 326 325 322 320 317 315 315 312 308 304 302 299 299 297 296 298 300 296 295 295 295 294 294 294 294 294 293 292 291 289 288 287 286
317 317 317 317 317 317 318 318 318 318 320 321 320 317 315 314 314 309 304 302 299 298 297 296 297 298 300 296 295 295 295 294 294 294 294 293 293 292 290 289 288 286 285
314 314 314 314 314 314 313 313 315 316 316 317 317 315 314 313 312 306 303 300 298 297 296 297 297 299 298 295 294 293 294 293 293 294 294 293 293 292 290 288 286 285 284
313 313 313 313 313 313 313 313 315 316 315 314 314 313 310 307 304 303 300 297 297 296 296 297 299 298 296 294 293 292 292 292 293 294 294 293 292 291 289 287 286 284 283
313 313 313 314 313 313 313 312 312 314 313 311 309 307 305 305 302 299 297 297 297 297 297 298 299 297 294 292 291 290 290 290 292 293 293 292 291 290 288 286 285 284 283
312 313 313 312 312 312 311 310 311 310 309 306 305 303 301 299 298 297 298 298 299 299 298 299 296 294 291 290 290 290 290 291 292 292 292 292 291 289 287 285 285 284 283
312 311 311 311 310 309 307 308 306 305 302 301 300 299 299 299 299 299 299 299 299 299 297 295 293 291 290 290 289 289 290 291 292 292 292 291 290 288 287 286 285 284 282
308 307 307 306 304 303 304 302 300 297 297 297 298 298 299 300 299 298 297 296 294 292 291 290 290 290 289 289 290 289 290 291 292 292 291 291 289 288 287 286 286 284 282
305 303 303 302 300 299 299 299 298 298 299 299 297 294 292 291 291 291 290 290 290 290 289 289 289 289 289 289 290 290 290 290 292 291 290 290 290 288 287 287 287 286 283
301 300 300 300 299 298 298 297 296 294 292 291 291 290 290 290 290 290 290 290 290 289 289 289 290 289 290 290 290 290 290 290 289 290 290 290 289 289 289 288 287 286 286
299 299 300 299 297 295 294 292 292 291 291 291 290 290 290 290 290 290 290 290 290 290 290 291 291 291 291 291 291 291 291 291 290 290 289 289 289 289 289 289 288 287 286
299 298 297 295 293 292 292 292 291 291 290 290 290 290 290 290 290 289 289 288 287 285 284 284 285 286 287 287 288 289 290 291 291 291 289 289 289 288 288 289 289 288 287

GFSMW_850_thetae_027.txt.gz
Theta_e
322 323 321 320 321 322 323 324 323 321 317 319 323 324 325 325 325 325 326 322 322 322 321 317 310 310 309 306 303 300 298 297 297 298 298 298 299 299 299 298 298 298 297
326 325 324 324 322 322 323 324 323 322 321 323 324 325 325 326 325 327 324 321 321 321 320 312 310 309 307 305 302 298 297 298 300 299 298 301 299 298 299 298 298 298 296
328 329 328 326 324 324 323 323 323 323 322 323 324 324 325 326 327 325 321 319 319 318 315 310 310 308 306 303 299 297 302 307 306 305 301 300 301 298 298 298 297 296 295
329 328 327 327 325 325 325 325 324 324 325 323 324 324 324 324 324 321 320 318 316 313 310 310 310 308 304 301 297 304 307 306 303 301 296 295 295 298 298 296 295 294 293
328 328 329 327 327 326 325 324 324 324 325 326 324 324 324 325 324 322 319 316 313 311 310 310 310 309 305 301 299 306 307 308 307 299 295 295 294 294 295 295 295 294 293
328 328 328 329 328 328 327 326 324 324 324 324 323 324 325 325 325 323 319 316 314 312 310 310 310 307 304 302 309 310 307 308 302 294 294 294 295 295 295 294 294 293 293
327 328 328 328 329 328 328 327 326 326 326 326 325 322 326 326 325 323 320 318 318 317 312 310 310 306 302 305 306 307 308 303 294 296 296 294 294 293 293 293 293 293 293
324 326 327 327 327 328 328 328 327 327 326 327 326 325 326 325 324 322 319 319 317 318 315 311 308 302 302 307 303 307 301 295 298 296 294 293 293 293 293 294 293 293 293
318 321 323 325 326 327 326 327 328 328 327 326 327 324 322 323 324 323 320 317 317 316 312 309 304 302 310 304 302 299 297 298 296 294 293 293 293 293 293 292 292 292 292
319 318 319 321 323 324 325 325 326 326 327 327 327 327 324 324 323 323 321 319 317 315 312 306 301 309 301 300 302 297 297 299 293 293 294 292 292 292 292 292 292 291 291
321 321 320 320 321 322 323 324 324 324 325 326 326 326 325 324 323 322 323 321 317 315 312 304 307 300 299 300 296 296 300 297 294 294 293 292 291 291 291 292 292 291 290
321 321 323 323 323 323 323 323 323 324 324 325 326 325 325 324 323 322 323 322 321 317 309 305 302 299 301 296 296 299 296 293 294 293 293 294 293 293 292 292 292 291 289
320 321 323 324 324 324 324 324 325 325 325 324 324 325 325 324 323 322 321 321 318 313 303 300 298 299 297 297 299 301 295 294 294 294 294 294 294 293 293 292 291 290 288
319 320 321 323 325 326 326 327 326 326 326 326 326 325 325 324 322 320 319 317 315 308 302 298 297 296 296 299 299 300 295 294 294 294 294 294 294 294 293 292 292 291 288
321 321 322 323 325 326 326 326 326 325 324 323 322 322 322 321 319 318 316 313 308 304 299 298 298 296 297 298 299 298 294 295 295 295 295 294 294 294 293 292 292 290 288
316 316 316 316 316 316 316 315 315 315 315 315 317 317 317 316 316 314 312 307 303 299 298 298 297 298 297 297 299 295 295 294 294 294 294 294 294 294 293 292 292 289 288
313 313 313 313 313 313 313 313 313 314 314 315 315 315 314 313 312 310 308 305 301 298 297 296 296 297 297 298 298 297 294 293 293 293 293 293 294 294 293 292 291 289 288
312 313 313 313 313 312 312 312 312 312 313 314 313 312 311 310 309 308 305 300 298 297 296 297 298 298 297 298 298 295 293 292 291 291 291 292 293 293 293 292 291 289 286
312 313 313 313 312 312 311 311 310 311 311 311 309 307 306 305 304 302 301 300 300 299 299 298 297 298 298 298 294 292 290 290 290 289 290 291 293 293 293 292 290 288 286
311 311 311 311 311 311 310 310 309 309 308 306 304 303 302 301 301 301 301 300 298 298 297 298 298 298 296 293 292 290 290 289 289 290 290 292 293 293 292 291 289 287 286
309 309 309 310 309 308 307 308 306 304 301 300 299 299 299 299 298 298 299 299 298 298 297 295 294 292 291 290 290 290 290 290 289 290 291 292 292 292 291 291 289 287 286
307 307 308 307 305 304 304 303 301 298 298 298 298 298 299 299 299 297 295 294 292 291 290 290 290 289 289 289 289 289 289 290 290 290 290 292 292 291 291 290 289 287 286
305 304 305 303 301 300 300 299 298 298 299 298 296 293 292 291 290 290 290 290 290 290 290 290 290 290 290 290 290 290 290 290 290 290 290 290 291 291 290 290 290 288 287
302 301 301 300 299 298 298 297 295 293 292 291 291 290 290 290 290 290 290 290 290 289 289 288 287 286 286 286 287 287 288 289 290 291 291 291 290 290 290 290 289 289 288
300 299 299 298 296 294 294 292 292 291 291 290 290 290 290 290 289 288 287 285 284 283 282 282 282 281 281 281 281 281 282 284 286 287 288 289 289 290 290 289 289 289 289
299 298 297 296 293 293 292 292 291 290 290 290 289 288 287 286 285 284 283 283 282 281 281 280 280 280 280 280 280 280 281 281 281 281 285 286 287 288 289 290 289 289 288

GFSMW_850_thetae_030.txt.gz
Theta_e
325 326 327 327 327 327 326 326 326 326 326 326 321 320 325 327 326 326 326 326 325 324 323 322 321 317 311 311 308 306 303 301 302 305 305 304 303 301 301 300 299 299 298
326 326 326 325 325 326 327 327 327 327 327 325 321 322 324 326 325 325 325 325 324 322 322 322 320 314 311 309 307 305 302 304 305 307 307 309 307 302 300 299 299 299 298
327 327 327 327 326 326 326 327 327 328 327 325 323 325 325 324 325 324 324 324 324 321 321 321 319 312 310 309 307 305 301 306 306 306 308 308 307 304 302 300 299 298 298
328 328 330 329 328 327 327 327 327 328 328 327 326 324 324 326 325 324 324 324 322 320 321 320 317 311 310 309 306 303 303 307 310 308 304 303 301 301 301 301 299 298 297
328 328 329 330 331 329 328 329 329 328 328 328 325 326 326 327 327 323 323 323 321 319 319 318 314 310 310 308 304 301 304 309 308 306 304 302 300 299 299 300 299 298 297
328 328 329 330 330 331 330 329 329 329 328 328 324 325 326 327 325 323 323 323 321 318 317 314 311 310 309 307 302 301 309 307 306 304 301 299 300 300 299 298 298 297 297
328 329 329 329 330 331 331 330 330 329 328 327 324 324 326 326 323 324 323 324 321 317 315 312 311 309 309 307 301 305 311 307 303 299 300 300 299 298 297 297 297 297 296
327 328 329 330 330 332 332 331 329 330 329 326 323 324 325 324 323 322 324 324 322 319 316 313 315 309 307 303 301 311 307 302 299 299 300 299 298 297 297 296 296 296 295
322 324 327 329 330 331 332 332 331 330 330 329 327 326 326 325 324 323 324 324 322 318 316 314 316 306 304 299 307 308 302 297 299 301 300 298 297 297 297 296 295 295 294
322 321 323 325 327 329 331 331 331 330 330 330 328 327 327 327 326 325 324 323 322 320 316 313 310 305 306 303 309 301 298 300 301 300 299 298 297 296 296 295 295 294 294
324 324 323 323 324 326 329 329 329 328 329 330 329 327 327 326 326 323 323 323 322 321 318 314 314 312 301 306 299 297 299 299 300 299 297 297 296 295 295 295 294 294 294
323 325 325 325 325 326 327 327 328 328 329 329 329 327 326 326 326 324 323 322 322 321 319 315 313 305 300 300 297 296 298 300 301 298 297 296 295 295 295 295 295 294 293
322 324 327 327 325 323 325 326 325 326 327 325 324 324 324 325 325 324 323 322 321 320 317 315 310 302 300 297 298 296 299 300 300 297 297 296 296 296 296 295 295 294 293
321 324 326 327 327 327 325 325 325 325 325 325 325 325 324 323 323 322 321 320 319 318 317 313 305 301 296 296 296 297 300 300 297 296 296 296 296 296 296 295 295 294 293
322 324 326 326 326 326 325 325 326 326 325 323 321 320 320 320 319 319 318 316 316 314 312 307 300 297 295 296 298 299 299 298 297 297 296 296 296 296 295 295 295 294 293
319 319 319 319 318 319 320 317 316 316 315 315 315 316 316 316 315 315 314 313 311 307 303 299 299 296 296 297 300 299 298 297 296 297 296 296 295 295 294 294 294 294 294
314 314 314 315 314 314 314 313 313 314 314 314 314 314 314 313 313 311 309 308 304 302 300 298 298 296 296 298 299 298 297 298 295 296 295 295 294 294 294 294 294 293 293
311 311 312 312 312 312 312 311 311 311 312 312 312 311 310 310 309 309 307 305 303 302 300 299 297 296 298 297 298 297 297 296 294 294 293 293 293 293 294 293 293 292 292
310 310 311 311 311 311 311 310 310 310 310 310 309 308 306 305 304 303 302 302 300 300 299 297 297 299 298 297 297 297 293 292 292 292 292 292 292 292 292 293 292 292 291
308 309 310 311 311 310 309 309 308 307 307 306 304 303 302 302 301 300 300 299 299 299 298 298 297 297 297 296 293 291 290 290 291 292 292 291 291 290 291 292 292 291 292
308 308 307 308 308 307 307 307 305 304 302 301 300 300 300 300 300 299 299 299 299 298 297 294 293 291 291 290 289 289 289 290 291 291 291 291 291 290 291 292 292 292 292
306 306 306 305 303 304 305 304 303 300 299 299 299 299 299 297 296 295 293 292 292 291 291 291 291 292 292 291 290 290 290 290 290 290 290 291 291 291 290 291 291 291 291
303 303 303 303 302 302 302 301 299 298 299 298 295 293 292 291 290 290 290 292 292 291 291 290 290 290 289 288 287 285 284 284 284 285 287 288 289 290 290 290 290 291 290
302 301 301 301 301 300 299 299 298 296 293 292 291 291 290 290 290 289 289 288 286 285 285 286 286 286 285 284 283 281 281 281 281 282 282 281 283 287 288 288 289 290 290
300 299 299 299 297 297 296 294 293 292 291 290 290 290 289 288 286 286 285 284 283 283 282 282 281 281 281 281 279 279 279 279 280 280 281 283 284 284 285 288 288 289 289
298 297 297 296 295 294 293 292 291 290 290 289 288 287 286 285 284 283 283 283 282 281 281 280 279 279 279 278 278 278 278 279 279 280 282 283 284 285 286 285 287 288 288

GFSMW_850_thetae_033.txt.gz
Theta_e
324 326 328 325 325 325 324 324 323 324 325 325 324 321 320 322 326 326 327 328 326 324 324 323 321 321 318 316 315 312 309 308 307 309 311 310 308 307 305 304 303 302 301
324 325 327 327 326 326 326 325 325 325 325 324 324 321 321 323 326 326 328 328 327 324 322 323 321 321 318 316 313 310 310 309 309 311 312 313 311 307 306 304 303 302 301
325 325 325 327 327 327 327 326 326 326 327 327 325 321 321 324 326 327 327 327 325 324 323 322 321 319 317 315 311 309 308 309 309 309 310 312 312 309 307 304 303 302 301
326 326 326 325 327 327 328 328 327 327 327 327 325 322 324 324 326 327 327 326 324 324 323 322 321 318 317 314 311 309 308 307 309 311 309 308 308 306 306 305 304 302 301
326 326 327 326 326 326 327 328 328 328 328 328 327 324 326 326 326 327 327 324 326 324 323 321 319 317 316 311 309 307 306 304 310 309 310 309 306 304 303 304 304 303 301
327 326 327 328 328 328 328 328 328 327 328 329 329 327 327 327 326 328 328 326 324 323 321 318 317 316 313 309 307 306 303 304 310 311 309 306 304 304 304 304 302 301 301
327 326 326 327 328 330 331 330 329 328 329 329 329 329 328 328 328 329 327 324 321 322 322 321 320 315 312 309 312 308 307 307 310 310 306 303 304 303 302 300 300 300 300
327 327 327 327 328 329 331 332 331 330 329 329 329 329 329 329 329 328 326 324 322 322 322 318 319 317 313 312 311 306 308 305 310 305 303 304 303 301 300 300 299 299 299
325 327 327 328 328 329 331 332 333 331 332 331 330 329 329 328 329 328 325 322 320 322 323 323 318 315 311 312 309 308 302 308 305 303 303 303 302 300 300 300 299 298 297
325 324 325 328 328 330 331 333 334 333 332 332 332 331 330 329 327 326 325 324 322 322 322 321 317 311 311 312 311 309 303 305 303 302 302 302 301 300 299 298 297 297 297
325 326 324 325 327 329 331 333 334 334 334 333 333 332 330 329 329 327 325 325 324 323 321 320 317 313 312 312 311 304 303 302 301 301 302 301 301 299 298 297 297 296 296
323 326 327 326 326 327 329 331 333 333 333 333 332 331 330 328 328 327 325 324 323 321 320 318 317 314 310 309 306 301 302 300 300 299 302 301 300 298 297 297 297 297 296
322 325 328 328 328 328 329 330 331 331 331 331 332 331 330 329 327 326 324 320 320 320 318 318 315 311 308 305 301 301 298 299 299 301 300 300 299 298 297 297 297 297 296
321 323 328 329 329 329 329 330 330 330 330 330 328 328 327 326 325 324 320 321 320 319 317 315 312 308 306 300 300 298 299 298 300 300 300 299 298 298 298 297 297 297 296
323 324 327 329 329 329 329 329 328 327 326 325 325 325 323 321 320 319 317 315 314 315 315 314 310 306 301 299 298 298 298 298 299 299 299 298 298 297 297 297 297 297 296
323 325 328 328 328 328 327 325 323 321 321 320 319 318 317 316 315 313 313 314 313 312 310 308 305 302 299 298 299 298 297 298 298 298 298 298 298 297 297 296 296 295 295
322 322 321 321 320 320 319 318 317 317 316 315 314 313 313 312 313 312 311 310 308 305 304 303 301 299 299 298 297 297 297 298 298 297 297 297 296 296 295 295 295 295 294
319 318 317 316 316 316 315 314 314 313 312 311 311 310 309 308 307 306 307 305 304 302 300 299 298 298 298 299 297 297 298 297 297 296 296 295 294 294 294 294 294 294 294
316 315 315 314 313 312 312 311 310 310 309 308 308 307 307 306 304 303 302 302 301 301 301 300 298 297 296 297 299 298 296 295 294 294 294 294 294 293 293 293 293 292 293
313 313 312 312 311 311 310 309 309 308 307 306 306 305 305 304 303 301 301 302 300 300 299 299 299 298 298 296 295 293 291 291 292 292 292 293 293 292 292 292 292 291 292
312 311 311 311 310 309 309 308 307 306 305 304 304 303 302 301 301 300 299 298 298 297 296 295 296 295 294 294 293 292 291 290 289 290 289 290 290 291 291 291 292 291 291
310 310 309 309 308 308 307 306 305 304 303 302 301 301 300 298 298 297 296 295 295 295 295 295 294 294 294 293 291 289 288 287 285 284 283 283 283 282 283 286 289 290 291
309 309 308 307 307 306 306 305 303 302 301 299 297 296 295 295 295 295 294 294 294 293 292 290 290 290 289 288 287 286 284 282 282 281 281 281 281 281 281 282 282 284 289
309 308 307 306 305 304 303 301 300 299 298 297 295 294 293 292 292 291 290 290 289 288 287 287 287 286 285 285 284 282 281 280 280 280 280 280 281 284 285 285 286 286 286
307 306 304 303 301 300 299 298 297 296 295 293 292 291 290 290 289 288 287 286 286 284 283 283 282 282 281 282 280 279 279 279 278 278 279 281 282 282 283 283 284 286 286
305 304 302 300 299 297 296 295 294 293 292 291 290 289 288 287 287 286 286 285 284 283 282 282 281 280 279 279 278 278 278 278 278 278 280 280 280 280 280 280 281 283 284

GFSMW_850_thetae_036.txt.gz
Theta_e
327 326 324 324 321 318 319 317 317 318 314 319 321 323 320 319 317 322 324 324 324 326 325 325 324 323 320 319 317 315 314 311 310 309 310 312 311 310 308 306 305 303 303
326 326 325 325 325 320 322 322 320 319 321 322 320 321 321 318 317 323 326 323 324 326 325 324 324 321 320 319 317 315 313 310 309 309 312 313 312 310 310 307 305 304 303
326 326 326 325 325 325 323 324 325 324 323 324 321 324 322 320 321 324 324 322 327 326 325 323 323 322 320 319 317 316 312 310 309 309 311 311 312 309 308 307 305 303 303
325 326 326 328 326 326 326 325 324 324 324 325 324 326 323 320 323 325 326 325 325 327 325 324 323 322 320 318 317 316 312 309 309 310 311 310 310 309 306 306 305 304 303
326 325 325 327 328 327 327 326 326 326 326 325 325 327 324 321 322 326 328 327 328 326 324 325 323 322 320 318 315 313 311 309 309 311 310 311 311 308 306 305 305 304 303
326 327 326 325 327 328 328 328 327 327 326 327 326 327 325 323 325 326 327 326 325 324 325 324 323 321 320 319 317 316 312 308 307 308 310 310 309 307 305 305 304 304 303
327 327 327 326 326 326 327 327 328 328 328 328 328 328 326 326 325 326 327 328 327 324 324 324 323 322 320 319 318 316 310 308 305 305 309 309 305 304 304 304 302 301 301
327 327 326 328 328 327 327 326 327 327 328 328 328 329 327 327 329 327 327 328 326 324 320 322 321 321 319 318 318 315 311 309 308 309 309 308 304 304 304 302 301 300 300
328 327 327 326 328 329 329 329 329 329 328 328 328 328 329 329 325 320 326 328 326 325 324 322 321 320 320 319 319 315 310 310 310 308 307 304 303 303 302 301 301 300 299
324 326 328 327 327 328 331 330 331 331 331 330 330 329 330 330 324 322 326 327 325 325 325 322 321 322 322 319 316 311 309 311 306 305 304 303 302 303 301 301 300 299 298
325 325 325 325 327 329 329 331 333 333 332 332 332 331 330 329 327 326 328 326 326 325 324 322 320 320 318 315 311 309 308 308 303 303 302 302 301 302 301 301 299 298 297
323 325 326 325 326 327 329 332 333 333 334 334 333 331 331 331 330 328 328 328 326 323 323 321 320 318 316 315 310 307 307 303 302 302 302 300 301 301 301 300 299 297 297
321 325 327 327 326 327 328 330 331 334 335 333 333 331 330 330 327 328 327 325 323 320 319 318 316 317 315 312 307 306 305 302 301 301 300 301 300 300 300 299 298 297 297
320 322 327 328 328 329 329 330 331 332 332 332 332 331 332 329 328 325 324 322 321 320 319 317 315 313 311 308 306 305 302 300 299 300 300 300 300 300 299 299 298 298 297
321 322 326 329 329 329 330 331 331 331 331 331 329 329 328 327 324 322 321 318 318 317 316 315 313 311 309 307 305 302 301 300 299 299 298 299 299 299 299 298 298 297 297
322 323 325 330 330 330 330 330 329 329 327 327 326 326 323 320 318 316 315 314 314 313 314 312 311 310 308 305 301 301 299 299 298 298 297 297 298 298 297 297 297 297 296
323 325 328 329 329 329 328 325 324 322 322 321 320 318 316 316 315 314 313 312 311 309 307 306 304 303 301 300 299 298 298 297 297 297 297 297 296 296 296 296 296 295 295
324 325 324 324 324 322 320 319 318 317 316 315 314 313 312 311 310 308 309 309 306 304 302 301 300 298 298 297 298 298 297 297 297 297 295 295 295 294 294 294 294 294 293
322 321 320 319 318 317 316 315 314 313 312 311 310 309 309 308 307 306 305 304 303 302 301 300 299 299 299 298 297 297 297 296 295 293 293 292 292 293 293 293 293 292 292
319 317 316 315 314 313 312 311 311 310 309 309 308 307 306 305 305 303 303 302 301 300 299 299 299 298 297 297 296 295 294 293 291 290 290 288 288 287 288 289 290 290 289
316 315 314 313 312 311 311 310 309 308 308 307 306 306 305 305 303 302 301 300 299 299 298 296 296 296 295 295 294 293 292 290 288 286 285 284 283 283 282 281 281 281 282
314 313 313 312 311 310 310 308 307 306 306 306 305 304 303 301 300 298 297 298 297 296 295 295 295 295 294 292 292 291 288 286 285 283 283 283 282 281 281 281 284 285 285
313 312 311 310 310 309 308 307 306 305 304 303 302 300 298 297 297 296 296 295 295 295 294 293 291 291 290 289 288 286 285 283 282 282 281 281 280 280 282 282 282 283 284
312 311 310 309 309 308 307 306 304 303 301 299 297 296 295 294 293 292 292 293 292 290 289 287 287 287 287 285 284 283 282 282 281 280 280 280 280 282 281 280 280 281 281
311 310 309 308 307 306 304 303 301 299 298 297 295 294 293 291 291 290 289 289 288 286 285 284 284 283 283 282 281 281 280 280 279 279 279 280 280 280 279 279 278 279 279
310 309 307 305 303 302 300 299 298 297 295 293 293 291 290 289 289 289 288 287 286 284 283 283 282 282 281 280 280 279 279 279 278 279 279 279 278 278 278 277 277 277 277

GFSMW_850_thetae_039.txt.gz
Theta_e
325 321 321 321 321 320 319 318 318 319 318 317 316 315 316 317 317 318 322 320 323 321 319 322 324 323 322 322 320 317 316 315 313 311 310 307 310 311 310 310 308 306 305
324 323 321 321 319 317 317 315 315 314 314 313 314 314 315 315 316 320 320 320 321 323 323 322 324 323 323 323 320 318 316 315 313 311 310 311 312 311 311 310 308 305 304
325 324 324 321 317 316 315 316 315 313 315 316 316 317 320 320 319 316 315 321 324 321 321 324 324 323 323 322 320 318 317 315 313 309 309 312 312 310 310 309 308 305 304
326 326 325 324 319 318 317 316 316 315 315 319 319 320 320 321 320 315 317 322 323 321 322 323 323 322 323 322 320 318 317 316 311 310 309 309 310 311 310 308 307 306 305
326 326 326 326 325 322 320 319 318 317 319 320 321 320 318 322 321 320 320 321 324 323 323 324 323 323 323 322 320 318 316 315 313 312 310 311 310 311 310 309 307 305 305
325 325 325 326 325 326 325 323 321 322 321 320 322 324 324 325 323 321 321 325 325 326 325 324 325 324 323 322 321 320 319 318 318 316 310 310 310 310 308 308 306 305 304
325 325 326 326 326 326 327 326 325 324 324 324 324 322 324 326 325 321 321 323 327 326 324 324 323 323 324 322 322 320 319 318 317 314 309 309 308 308 308 306 304 303 304
325 325 325 325 326 326 326 327 327 326 326 326 326 326 325 325 327 323 323 326 326 323 325 325 323 323 324 322 321 319 318 317 315 311 310 309 307 308 307 304 304 304 303
326 326 326 325 325 325 326 326 326 326 326 327 327 327 327 326 326 326 324 322 324 322 321 324 324 322 323 322 320 319 318 317 312 309 308 306 308 305 304 303 304 303 301
326 327 326 326 326 326 326 326 326 326 326 325 326 328 328 328 328 327 327 324 320 321 321 324 324 323 321 320 320 320 318 313 309 308 309 307 305 304 304 303 303 301 300
325 326 327 327 327 326 326 326 327 327 327 328 327 327 328 328 329 329 327 324 323 323 326 325 323 322 320 319 320 318 315 311 308 308 307 305 304 303 303 302 302 301 300
324 324 324 325 325 328 328 328 328 328 327 323 328 328 329 329 329 329 328 326 323 326 326 324 321 319 320 319 318 315 312 308 307 307 305 303 303 302 301 301 301 301 300
323 324 324 322 323 325 327 331 330 330 329 328 324 329 329 328 321 324 327 326 326 325 325 323 321 319 319 318 315 313 309 306 306 305 303 302 301 300 300 300 300 300 299
321 325 325 323 322 324 327 332 333 332 331 331 331 331 331 330 330 329 328 326 326 324 321 319 319 317 316 315 312 310 306 305 304 303 302 301 300 299 299 299 299 298 298
320 325 326 326 326 326 328 329 331 332 331 331 332 331 331 331 329 327 325 324 322 320 318 317 316 315 313 311 310 308 305 304 302 300 299 299 298 297 298 299 298 298 297
320 321 325 328 328 329 329 330 331 331 330 330 330 330 330 329 327 323 322 318 317 315 315 314 314 313 311 309 307 305 303 301 300 299 299 298 297 297 296 296 295 296 296
321 322 327 329 329 329 329 330 330 330 329 329 328 328 326 325 322 316 314 312 312 312 312 312 311 310 308 305 302 300 299 299 298 297 297 297 296 295 294 294 294 294 294
322 323 327 330 330 330 329 329 329 328 327 326 325 324 322 318 315 314 313 313 312 311 308 306 304 302 301 299 298 298 297 297 297 296 296 295 294 293 292 292 293 292 292
323 324 328 329 329 329 328 328 326 323 322 322 319 315 314 313 312 311 310 308 307 305 303 301 299 298 298 298 298 297 297 296 296 295 294 293 292 291 291 288 286 285 284
323 324 325 325 325 324 323 321 319 317 315 314 312 311 310 309 309 308 307 304 303 302 300 299 299 299 298 298 297 297 296 295 294 293 291 288 285 284 283 282 282 282 282
322 322 321 321 319 318 317 316 314 313 311 310 309 308 308 307 307 305 303 302 301 300 299 299 298 298 297 296 295 294 294 293 291 288 285 284 283 282 281 280 281 282 282
320 319 318 317 315 314 313 312 310 309 309 308 307 307 306 305 305 303 301 299 299 298 296 295 295 295 295 293 293 293 292 290 286 284 283 282 282 281 280 281 281 280 280
317 316 315 313 312 312 311 310 309 308 307 307 306 305 304 302 299 297 297 297 296 295 294 295 294 294 293 293 292 290 287 285 283 282 282 281 280 280 281 280 279 279 278
315 314 313 312 311 310 310 309 307 306 306 305 304 301 299 297 297 296 296 296 295 295 295 294 292 290 290 289 288 286 283 282 282 282 281 280 280 280 279 279 279 278 277
313 312 312 311 309 309 308 307 306 305 304 302 298 297 297 296 296 295 294 294 293 292 290 288 287 287 286 284 282 282 282 281 280 280 280 279 279 279 279 278 277 277 277
312 311 310 309 308 307 305 304 303 302 299 297 296 295 294 292 292 291 290 288 286 285 284 284 283 283 283 281 281 281 280 279 279 279 279 278 278 277 277 276 276 276 276

GFSMW_850_thetae_042.txt.gz
Theta_e
326 323 322 322 321 321 321 320 319 319 317 317 317 317 315 313 313 315 315 316 319 318 319 318 317 321 322 322 321 320 320 318 314 313 312 310 309 308 310 311 310 309 308
326 323 320 322 321 321 319 319 319 318 316 315 315 314 313 313 314 315 315 315 318 319 323 323 319 322 323 323 322 321 321 316 315 313 311 310 309 308 310 310 310 310 308
325 323 320 320 321 320 320 319 318 318 316 314 315 316 316 316 317 315 315 316 321 321 323 323 321 322 323 323 323 323 321 318 316 314 312 309 310 311 312 311 310 309 309
325 325 321 319 318 318 319 318 319 320 318 317 317 317 316 316 315 316 316 318 320 320 320 322 323 322 323 323 323 323 321 319 317 315 313 310 309 309 310 310 310 309 308
326 325 324 322 318 317 317 316 318 318 315 314 314 315 315 315 315 316 316 318 320 316 322 324 320 321 324 324 323 323 320 319 317 318 316 310 311 310 309 311 311 309 307
326 326 325 324 321 317 317 316 316 316 316 318 315 314 314 314 315 315 316 315 313 316 320 323 322 323 322 322 322 322 321 320 319 318 316 315 314 310 310 310 310 309 309
325 325 325 324 324 318 317 316 315 316 317 317 318 319 318 319 319 315 318 320 319 319 320 323 324 323 323 322 323 323 321 321 319 319 317 317 315 311 310 310 310 309 308
325 325 325 325 325 324 322 319 317 316 316 317 319 319 319 320 318 318 322 324 321 319 324 325 325 323 322 323 322 323 322 321 319 318 317 317 313 311 310 309 308 307 305
324 325 325 325 325 325 324 323 324 323 320 318 318 319 319 321 322 323 324 325 323 321 321 323 323 323 323 323 322 323 322 321 319 318 317 315 311 309 308 307 306 302 303
325 325 325 325 325 325 325 325 324 324 323 324 322 323 324 324 324 323 324 325 323 322 325 324 324 322 321 322 323 321 320 320 319 318 315 310 309 308 307 306 304 303 303
326 325 324 325 325 325 325 325 325 326 325 325 325 324 325 325 325 326 326 326 324 325 322 323 321 322 320 322 321 321 319 318 318 315 311 308 307 308 306 305 304 303 302
323 323 324 325 325 325 325 326 326 326 326 326 326 326 326 326 327 326 326 325 325 324 315 318 321 322 323 323 320 320 319 318 316 311 308 307 307 305 304 304 304 301 301
324 325 325 325 325 325 325 325 325 326 326 327 327 327 325 322 327 326 324 324 326 324 318 319 325 323 321 320 320 318 317 314 312 308 307 306 305 304 303 302 300 300 300
324 324 324 324 324 325 326 327 327 327 326 326 327 326 324 321 323 327 327 324 322 325 324 324 323 321 319 318 317 315 314 312 308 306 305 304 303 303 301 299 299 299 298
323 323 323 323 324 322 323 324 326 328 328 327 327 327 326 324 327 328 327 325 324 324 324 322 320 317 315 314 314 313 311 310 306 305 303 302 301 300 300 297 297 297 297
320 321 325 323 324 323 323 323 326 329 331 329 329 329 329 329 327 326 327 325 324 322 319 318 316 314 314 313 312 309 309 307 304 302 301 300 299 299 297 296 296 296 295
320 320 323 324 325 325 325 325 327 329 330 330 331 329 328 326 327 326 323 321 319 317 316 314 312 312 312 311 309 308 305 302 301 300 299 299 298 296 295 295 294 293 293
320 320 320 323 325 327 328 328 329 330 330 329 328 327 326 324 323 322 320 319 315 311 311 311 311 311 309 308 305 302 300 299 299 298 297 296 295 294 294 293 291 290 289
320 320 321 321 326 328 329 329 328 328 328 327 325 324 323 321 318 316 314 312 312 311 309 307 306 305 304 301 299 298 298 298 297 297 295 294 293 293 291 289 286 284 284
319 320 322 326 328 328 328 328 328 326 325 324 323 321 319 317 314 313 311 310 309 306 304 302 300 299 299 297 297 297 297 297 295 294 294 294 292 288 284 284 284 283 283
321 322 323 326 328 329 329 328 327 324 322 321 319 316 313 312 310 309 308 307 304 303 301 300 299 299 298 298 297 296 296 295 294 293 292 287 284 283 283 283 282 282 281
322 323 324 327 327 327 326 324 322 320 318 315 313 311 309 308 307 306 304 303 302 301 300 298 298 297 297 297 296 295 294 293 292 289 285 283 282 282 282 281 281 281 280
321 322 323 322 321 320 320 319 317 315 313 311 309 308 307 306 305 304 303 301 300 300 299 298 298 296 296 295 293 293 292 290 287 284 282 282 281 281 280 280 280 279 279
320 320 320 318 316 315 315 314 313 311 310 308 307 306 305 304 302 301 299 298 298 297 295 295 294 294 293 293 291 290 288 285 282 281 281 280 280 280 279 279 278 278 277
318 318 317 315 313 312 311 310 310 309 308 306 305 304 302 300 298 298 298 297 296 295 295 294 293 292 290 289 288 285 282 281 281 280 280 279 279 279 278 278 277 277 276
315 314 313 312 311 310 309 308 307 307 306 305 302 300 299 298 296 295 294 293 293 292 290 289 288 287 285 283 281 281 281 280 280 279 279 278 278 277 277 276 276 275 275

GFSMW_850_thetae_045.txt.gz
Theta_e
325 324 320 322 321 321 320 321 322 321 319 317 317 319 318 322 318 316 317 318 320 319 321 319 317 316 320 320 321 321 320 319 317 314 313 311 310 309 309 308 308 311 312
325 325 321 322 321 321 321 320 320 321 318 315 317 317 317 318 317 315 315 315 316 316 316 317 317 318 320 321 322 322 321 318 317 315 314 311 310 309 309 308 308 311 311
325 325 323 320 321 321 321 320 320 320 319 317 317 316 317 316 316 315 315 315 315 316 317 318 320 323 322 321 322 322 321 321 320 318 315 311 311 311 310 310 310 310 309
324 325 324 320 319 320 321 320 319 319 318 318 318 318 318 317 315 314 314 315 315 315 316 320 322 324 322 322 322 323 322 322 322 319 316 313 315 312 311 311 310 311 310
326 326 325 324 318 318 319 320 320 319 319 318 317 316 315 316 316 315 314 313 314 315 316 320 320 321 321 323 322 322 323 322 322 320 318 316 315 315 310 309 310 310 310
327 326 326 324 321 317 317 318 319 319 319 318 317 315 314 315 316 315 316 315 314 315 316 319 320 320 322 321 321 322 322 322 322 320 320 318 317 317 313 312 313 310 310
326 326 326 325 324 320 317 317 317 318 319 318 316 317 316 317 317 317 316 315 315 315 316 318 318 314 322 322 322 322 322 321 321 321 320 319 318 317 313 313 312 310 310
325 325 326 326 325 323 319 317 316 316 317 317 315 315 316 317 316 315 315 315 315 315 314 315 315 316 320 322 321 323 322 322 322 321 321 319 318 317 315 315 311 310 310
324 325 325 325 325 324 323 318 316 315 316 316 317 317 315 315 316 315 315 314 315 316 316 321 323 320 321 319 322 323 319 322 322 321 320 318 318 315 316 312 311 309 307
325 324 324 324 325 325 324 323 319 317 316 315 316 317 318 317 316 315 316 317 318 318 318 323 324 322 321 323 323 322 321 322 322 322 320 317 318 317 312 311 309 308 306
324 325 325 325 325 325 324 324 323 321 318 317 316 316 316 317 317 318 319 319 320 322 323 324 324 321 321 322 323 322 321 322 322 321 317 316 317 314 309 309 308 308 304
325 325 325 326 325 325 325 324 324 324 324 321 320 319 318 318 320 321 322 323 323 323 320 321 323 316 317 318 321 322 321 321 321 319 317 317 313 311 308 307 307 305 304
319 323 325 325 325 325 325 325 325 325 325 324 323 322 323 323 324 324 321 323 324 324 324 320 317 319 317 318 320 321 322 321 318 317 315 312 310 308 307 306 304 303 303
320 321 322 322 323 323 324 324 325 325 325 325 325 324 324 325 325 325 324 325 325 325 321 324 317 318 317 318 322 320 320 318 315 313 312 309 306 306 305 303 302 302 299
319 323 324 323 322 323 323 324 325 325 325 325 325 325 326 326 326 326 326 324 326 327 326 324 323 322 322 322 320 319 317 315 313 311 310 307 305 303 302 302 301 300 298
320 322 324 323 322 323 322 322 323 324 325 326 326 325 326 327 327 326 324 323 325 326 326 323 322 322 321 319 317 315 313 312 311 310 307 304 302 301 300 300 299 296 296
320 320 321 322 323 322 322 321 322 321 323 325 327 326 326 326 326 326 324 323 324 325 325 323 322 320 318 315 314 313 312 310 309 306 303 302 301 300 299 297 296 295 294
322 320 320 320 321 323 324 323 324 324 325 327 328 329 327 327 327 325 325 326 324 323 322 320 317 315 314 313 313 311 309 307 304 302 301 300 299 298 296 294 294 293 292
320 320 321 321 320 323 324 325 326 326 327 328 328 328 328 326 325 325 325 323 322 319 318 315 313 311 311 310 309 307 304 302 301 300 299 298 296 294 293 293 292 289 285
321 320 321 321 319 321 326 327 327 327 328 329 329 327 325 325 325 324 322 320 318 315 311 309 309 308 307 305 303 301 300 299 299 298 297 296 293 292 292 289 285 283 284
320 320 319 319 320 323 326 327 328 328 328 327 326 326 324 323 322 320 317 314 312 310 308 305 303 302 302 300 299 298 297 296 296 294 293 293 293 290 285 283 283 282 282
319 319 318 320 323 325 327 327 327 326 325 324 323 321 319 317 315 313 312 309 308 305 303 301 300 298 298 298 297 296 296 294 294 293 292 290 286 283 282 282 281 281 280
319 320 321 323 325 327 327 326 325 323 321 319 316 314 311 309 307 306 305 303 302 301 300 299 298 297 296 296 295 295 294 293 292 291 287 284 282 282 281 280 280 280 279
321 322 324 325 325 326 324 323 322 319 316 313 310 308 306 305 303 302 301 301 300 300 299 298 297 295 294 294 294 293 292 291 289 285 282 281 281 280 280 279 279 278 278
318 320 322 323 323 321 319 317 316 314 311 309 307 305 304 303 301 300 299 299 298 298 298 297 296 295 294 293 291 289 288 285 282 281 280 280 279 279 279 278 278 277 277
316 316 317 318 317 314 313 312 311 309 309 307 305 304 303 301 300 299 297 296 295 294 293 293 292 292 290 289 287 284 282 281 280 279 279 278 278 277 277 276 276 276 275

GFSMW_850_thetae_048.txt.gz
Theta_e
323 324 320 320 323 323 322 323 324 324 322 319 323 322 317 316 315 315 320 319 318 317 320 319 318 320 320 319 321 321 320 320 319 316 314 313 313 312 312 310 310 308 309
324 324 323 319 321 321 321 322 323 323 322 319 323 320 318 318 315 318 321 318 320 319 320 317 318 318 318 318 318 321 321 320 320 317 315 312 312 312 312 311 311 309 307
323 324 324 321 321 320 321 320 321 322 322 322 322 320 318 317 315 319 319 317 316 315 319 319 318 318 319 319 319 320 321 321 321 319 317 314 313 314 314 313 311 310 310
323 323 325 324 319 320 321 320 320 321 321 321 320 319 317 315 316 319 316 316 316 315 317 318 317 316 318 322 322 322 322 322 321 320 319 318 318 315 314 315 312 312 311
326 324 324 325 322 319 320 320 320 319 320 320 318 318 317 318 317 319 316 314 315 315 315 316 316 317 319 321 322 322 322 322 322 321 320 320 318 317 314 313 314 313 314
326 327 325 325 325 320 319 320 320 319 320 319 319 317 317 316 317 317 316 316 315 315 315 315 314 315 318 319 320 320 321 322 322 322 320 321 320 319 318 315 316 316 314
323 326 326 326 326 324 318 318 319 319 319 319 319 318 318 318 317 316 316 315 315 314 314 314 313 314 316 318 319 318 320 322 322 321 322 321 321 319 317 316 316 313 314
322 323 325 326 326 325 323 317 316 318 319 319 318 318 318 318 317 316 316 316 316 315 314 315 313 314 315 317 317 315 319 323 322 323 322 321 321 320 318 316 317 314 313
322 323 324 326 326 326 325 323 318 315 316 317 317 317 317 317 317 316 315 316 317 316 316 315 314 315 316 316 321 321 319 319 320 320 320 320 322 321 318 315 317 316 311
323 323 325 326 326 325 325 325 323 321 316 315 316 317 316 315 316 316 316 317 316 316 316 315 315 315 317 318 320 322 320 317 318 321 319 320 321 321 317 316 316 314 312
324 324 324 325 325 325 325 325 324 323 322 317 315 316 316 316 316 315 315 315 315 315 315 314 314 317 319 320 322 322 319 319 321 322 321 321 321 321 315 315 314 312 309
321 322 323 323 324 324 324 324 324 324 324 323 318 316 316 315 316 316 316 320 319 317 316 317 318 320 320 321 321 321 319 319 320 320 321 320 320 317 315 314 312 309 307
319 321 322 323 324 324 325 325 325 325 324 324 323 321 318 317 317 316 316 317 318 319 319 320 321 322 320 320 320 317 319 316 319 320 319 319 316 314 313 311 309 307 306
318 318 319 321 323 324 325 325 324 324 324 324 324 323 322 322 320 320 320 319 318 319 320 321 322 323 323 322 318 317 317 319 321 319 317 315 314 313 311 308 306 305 304
319 319 320 320 321 323 324 323 323 323 323 324 324 324 324 324 323 323 323 323 323 323 323 323 323 323 322 322 316 317 318 321 319 317 315 313 311 310 307 306 304 303 301
319 320 319 320 322 322 321 322 321 321 322 323 323 324 324 324 324 324 324 324 324 324 324 324 324 324 323 324 323 319 322 319 316 314 312 310 308 306 306 303 301 300 299
320 320 320 320 321 322 321 321 321 321 322 323 324 324 324 324 325 325 325 325 325 325 325 324 324 324 322 322 322 320 317 316 314 311 310 309 306 303 302 301 300 299 297
319 320 321 321 320 321 321 321 322 322 322 324 324 324 324 325 325 325 325 326 325 325 324 323 322 321 321 320 318 316 314 313 310 309 307 305 303 302 300 299 297 296 295
318 319 320 321 321 321 320 321 323 323 323 324 325 325 326 326 325 325 325 325 324 322 321 321 320 319 317 316 315 313 312 310 308 305 303 302 301 300 298 296 295 294 292
319 318 317 318 319 320 320 319 323 324 325 326 326 327 328 327 325 323 322 321 321 320 319 318 315 314 312 311 311 310 308 307 305 303 301 300 298 297 295 294 293 290 285
318 319 318 319 319 319 319 319 322 325 326 327 328 328 327 325 324 323 322 320 319 317 315 313 310 309 308 307 306 304 304 303 301 299 298 296 295 294 293 292 287 284 283
318 318 317 318 318 318 319 321 325 326 327 328 328 326 325 323 323 321 319 316 314 312 310 308 307 305 304 303 300 299 298 297 297 296 295 293 292 292 289 284 282 282 282
318 318 318 318 319 321 323 325 326 326 326 326 325 324 323 320 318 315 313 311 309 308 307 304 303 301 300 300 298 297 297 296 295 293 293 292 290 286 282 281 281 280 280
319 320 320 321 322 323 324 325 325 324 324 323 322 320 318 315 312 310 309 308 306 304 302 301 299 298 298 297 296 295 295 294 293 292 290 286 282 281 280 280 280 279 279
317 319 320 320 319 319 322 322 323 322 320 317 315 313 311 308 307 304 302 302 301 300 300 299 298 297 296 294 294 293 292 291 289 286 282 280 280 280 279 279 278 278 277
314 316 315 318 316 316 317 317 316 314 313 312 309 307 306 304 303 302 302 300 299 298 298 297 296 295 293 293 292 291 289 286 282 281 280 279 279 278 278 277 277 277 277

GFSMW_850_thetae_051.txt.gz
Theta_e
322 321 321 320 322 322 324 323 323 322 322 322 321 319 318 319 318 317 319 318 317 316 316 317 318 318 318 319 320 320 320 318 317 315 314 313 314 312 310 310 310 309 309
323 323 323 319 320 321 322 323 323 324 322 322 320 319 318 317 317 317 318 320 316 316 316 317 318 319 319 319 319 320 320 320 319 318 317 314 314 315 315 313 312 311 310
323 323 323 322 319 321 321 321 322 324 322 322 318 317 318 321 321 319 320 318 316 316 317 317 320 319 318 317 317 317 318 320 320 320 319 316 316 317 316 315 314 313 312
325 323 324 324 320 319 320 320 321 322 323 322 322 321 321 319 319 317 316 318 319 318 317 319 319 317 318 317 318 320 320 321 321 321 320 320 319 317 316 316 316 315 314
326 324 323 323 324 319 319 320 320 321 322 322 321 321 321 317 316 315 315 315 316 316 317 316 319 318 317 318 319 318 319 321 322 322 322 321 319 318 316 316 315 316 316
324 326 325 323 324 321 318 320 320 320 321 322 321 322 321 318 317 317 315 315 320 317 317 317 316 316 316 317 319 320 318 320 321 322 322 321 319 319 318 316 317 314 315
322 324 325 324 324 324 320 318 320 320 321 321 321 322 322 319 317 316 315 315 318 316 316 316 316 315 315 315 314 317 318 319 319 319 320 322 322 319 318 317 317 314 315
321 322 322 326 326 325 324 318 318 319 319 320 321 320 320 320 319 317 316 316 318 316 315 314 314 314 315 314 313 313 315 317 318 318 319 322 322 321 319 320 317 313 314
318 321 322 323 326 326 325 323 318 316 318 318 319 319 319 319 318 317 317 317 317 318 317 316 315 315 314 314 314 314 314 316 318 321 320 319 319 317 319 319 320 317 313
319 321 321 322 323 326 325 325 323 320 315 316 317 317 317 319 319 319 319 318 317 317 316 316 316 316 316 315 315 314 315 316 319 318 321 320 318 318 319 319 320 318 314
319 321 322 322 323 325 326 325 325 323 320 316 315 316 317 317 317 317 317 317 317 317 316 316 317 317 316 315 315 315 315 320 320 317 319 318 318 318 321 320 320 317 313
320 320 321 323 323 324 325 325 325 325 324 322 317 315 315 316 316 316 315 316 316 316 318 317 316 315 315 315 315 314 318 320 319 317 319 319 318 319 320 319 317 315 313
319 319 320 321 322 323 324 324 325 325 325 324 322 320 317 316 316 315 315 315 315 315 315 318 318 318 316 315 316 319 319 321 317 318 319 318 318 320 318 316 314 313 310
319 319 318 320 321 322 323 324 324 324 324 324 324 323 322 322 320 318 317 316 316 316 316 317 319 318 319 320 320 321 322 322 319 318 318 320 319 318 316 314 312 309 308
318 319 319 319 319 320 321 323 323 324 324 324 324 324 324 323 322 320 319 318 318 318 316 316 317 318 318 320 320 322 322 323 322 320 318 319 317 315 312 311 310 308 306
318 319 319 318 319 320 320 321 321 321 322 322 322 323 323 323 323 323 322 321 320 319 318 319 319 320 321 322 322 322 322 322 318 318 319 317 314 311 310 310 307 305 303
318 319 320 320 319 319 319 321 320 321 321 320 321 322 322 322 323 323 323 323 323 322 322 322 322 323 323 323 323 323 323 321 319 318 315 313 311 310 308 305 303 301 300
318 318 318 318 320 320 320 320 321 321 321 321 320 321 322 322 323 323 324 323 323 323 323 324 324 324 324 322 321 321 319 318 316 313 312 311 309 307 305 303 301 299 298
314 316 317 318 318 320 320 320 321 322 321 321 321 322 323 323 323 324 324 324 323 324 325 323 323 323 322 321 320 319 316 314 312 310 309 307 306 305 301 299 298 296 295
318 317 317 316 317 317 318 320 320 319 321 321 322 322 323 323 324 325 324 324 324 324 323 322 321 320 318 316 315 314 313 312 310 308 306 303 302 299 297 296 295 294 293
317 317 317 316 316 317 318 317 318 318 320 322 324 324 324 325 325 324 322 322 321 320 320 318 316 314 312 311 309 308 308 308 308 305 301 299 297 296 295 294 293 291 287
316 316 315 315 317 317 318 318 317 319 322 324 326 325 325 324 324 322 321 320 320 318 314 311 310 308 307 306 305 304 303 302 301 299 297 296 295 294 293 291 289 284 282
316 316 316 317 317 317 318 319 320 321 323 324 323 324 323 321 321 320 319 318 313 310 308 307 307 306 303 302 300 299 298 297 297 296 294 293 293 292 289 286 282 282 282
314 316 315 317 318 320 321 322 322 323 323 323 323 321 320 319 316 313 312 310 309 308 307 305 302 301 300 299 298 297 296 296 295 294 292 291 288 284 281 282 283 282 280
311 314 315 316 316 317 319 320 321 321 321 320 319 317 315 313 311 308 306 305 304 302 302 301 299 299 297 296 296 295 294 293 292 290 288 285 282 281 281 280 280 279 279
306 311 311 312 314 315 316 314 315 316 318 318 313 310 309 307 305 304 302 300 300 299 298 298 297 296 295 294 293 292 291 290 289 285 282 281 281 281 281 280 279 279 278

GFSMW_850_thetae_054.txt.gz
Theta_e
326 325 324 320 322 323 324 324 325 323 323 322 321 321 320 318 316 316 315 318 315 314 315 316 314 316 319 319 318 318 314 314 312 312 312 312 312 312 313 312 312 311 311
327 325 325 323 321 321 323 324 323 324 323 322 321 320 320 319 318 317 316 319 317 315 317 318 317 317 320 319 319 320 319 318 315 315 317 317 316 314 316 316 314 312 311
327 326 325 324 322 323 322 323 323 323 323 322 322 322 321 319 317 316 318 317 320 317 319 317 319 318 318 318 318 319 320 320 318 319 320 320 319 319 317 317 314 313 313
328 327 326 325 324 323 324 322 323 323 322 322 322 321 321 319 318 317 317 319 321 319 319 317 317 317 318 319 320 318 318 320 320 319 320 320 321 321 320 317 316 316 316
329 328 326 326 325 323 323 322 321 322 323 322 322 322 320 319 318 318 317 320 319 320 317 317 317 318 320 319 320 317 317 322 322 321 320 319 320 320 320 321 320 318 319
328 328 327 326 326 324 323 322 321 321 322 323 322 319 319 318 318 318 317 318 319 320 317 316 317 318 320 318 317 318 317 318 321 320 322 322 321 320 319 319 319 318 317
327 328 328 327 326 325 323 322 320 320 321 322 323 321 320 316 319 321 319 318 319 318 318 318 319 319 319 318 318 318 317 319 320 319 319 321 321 320 320 319 318 316 318
327 327 328 327 327 325 324 319 321 322 320 322 323 321 321 320 320 320 320 318 316 316 317 317 316 316 317 317 317 316 315 315 314 315 316 321 321 319 318 321 320 317 316
326 326 327 327 327 326 325 324 318 321 322 321 322 322 322 322 322 320 319 317 316 316 316 316 316 315 316 317 316 315 315 317 319 315 314 317 317 319 320 319 318 318 316
322 324 326 327 327 327 325 325 322 320 322 322 322 322 322 322 323 322 320 318 317 316 316 315 318 318 317 315 315 315 315 318 319 319 318 315 318 319 318 319 316 316 316
323 324 325 327 327 327 326 325 324 322 321 322 322 322 322 322 322 322 321 321 318 317 317 316 316 317 316 315 317 318 318 318 317 319 315 315 320 319 318 317 316 317 316
321 323 326 327 326 327 326 326 325 324 323 322 321 321 322 322 321 320 320 320 319 319 318 317 317 317 318 318 319 319 318 320 320 316 315 318 320 317 318 317 317 318 319
321 320 324 326 327 326 326 326 326 325 324 323 322 320 319 319 318 317 317 319 319 320 320 319 319 318 318 319 317 317 317 319 317 315 316 318 320 317 319 318 317 318 317
320 320 320 323 326 326 326 326 326 325 325 324 323 322 320 319 317 316 317 317 316 317 317 317 318 318 317 317 317 317 317 318 315 317 321 321 320 317 318 319 318 317 316
319 320 320 320 322 325 326 326 326 325 324 324 323 324 324 323 320 319 317 316 316 316 316 317 317 318 319 318 320 320 319 319 320 320 322 323 320 318 319 318 317 315 311
319 319 320 320 319 320 324 326 326 324 324 324 324 323 323 323 323 323 321 320 319 318 318 318 319 319 319 317 317 318 317 317 320 323 323 322 321 321 318 318 314 311 310
318 318 318 320 320 319 319 318 320 326 324 323 323 323 323 323 323 323 322 322 321 321 321 321 320 321 321 320 318 317 319 321 323 323 322 321 320 318 317 312 309 308 307
319 319 319 318 319 319 318 317 321 324 325 322 323 323 322 322 322 322 322 321 321 321 322 321 321 322 321 321 322 323 322 323 322 319 319 318 317 314 311 309 308 305 303
318 318 318 319 319 317 318 317 319 322 324 323 321 321 322 323 323 323 323 322 322 322 322 322 323 323 323 323 323 323 322 321 319 317 316 313 311 309 308 306 305 302 299
317 316 316 317 317 317 316 316 317 318 322 322 324 324 323 324 324 324 324 323 323 322 324 324 323 322 322 321 321 321 320 317 315 312 310 307 306 306 303 300 299 297 296
315 315 316 317 318 317 317 316 316 317 320 321 321 323 324 324 324 323 323 323 323 323 323 322 321 321 318 317 315 313 313 312 310 308 306 303 301 299 298 296 295 294 293
313 313 314 315 316 317 318 318 319 321 320 319 319 320 321 321 322 322 323 323 323 322 321 319 316 313 311 309 307 306 306 307 306 304 301 299 296 295 294 294 293 292 287
310 309 309 309 313 315 315 318 318 319 319 320 321 321 321 321 323 323 322 321 320 318 316 312 310 307 304 304 302 302 302 301 300 299 296 295 294 293 293 292 286 282 281
309 305 307 306 309 313 314 314 316 317 319 321 321 322 323 321 320 319 318 316 315 312 309 307 306 304 301 301 300 299 297 296 295 295 294 293 292 289 286 283 281 282 282
308 306 302 305 304 304 309 312 313 315 318 319 317 317 318 317 313 311 309 308 306 305 305 303 302 301 299 297 296 296 295 294 293 292 290 287 285 283 281 281 280 280 281
305 303 297 303 303 301 305 309 310 310 312 312 309 308 308 308 306 305 302 300 300 299 299 298 299 297 297 294 293 292 291 290 289 288 286 284 282 282 281 280 278 278 277

GFSMW_850_thetae_057.txt.gz
Theta_e
329 327 327 325 326 327 326 324 324 323 322 322 322 321 320 320 315 317 317 315 315 313 314 315 312 317 318 318 317 317 317 317 316 315 315 315 315 315 315 315 315 316 317
329 328 328 326 326 326 324 325 325 324 323 322 322 321 320 319 314 314 316 314 315 314 314 313 313 316 319 319 320 318 318 316 315 314 315 315 315 315 315 316 315 316 316
329 329 328 328 325 326 324 324 324 324 323 322 321 321 321 318 316 315 315 316 317 318 315 316 318 315 319 322 322 322 321 320 318 316 318 319 319 319 318 318 317 316 315
329 329 329 328 327 326 326 324 323 324 323 323 322 321 321 319 317 315 315 317 317 316 315 318 320 320 319 321 323 323 322 322 321 320 319 321 322 322 321 319 318 316 316
329 329 329 329 328 327 326 323 323 324 324 324 323 321 321 320 318 317 316 316 318 316 317 319 321 322 321 321 322 322 322 322 320 322 322 321 321 322 323 322 320 319 318
328 329 329 329 329 327 327 324 322 323 324 323 322 322 321 321 319 316 317 318 319 319 319 321 321 320 321 321 321 321 321 321 321 318 322 322 322 321 321 321 321 321 320
326 329 329 329 329 328 327 325 324 322 323 323 323 322 322 322 321 320 319 317 319 320 320 320 321 320 318 317 319 320 320 321 319 318 320 319 320 321 322 321 321 320 320
326 328 330 330 329 329 327 326 324 323 322 322 323 323 322 322 321 320 319 318 317 317 318 320 321 319 318 318 318 318 321 318 318 318 318 320 318 321 322 321 321 321 318
326 327 328 330 330 329 328 327 325 324 323 323 322 323 323 322 321 320 319 319 318 317 317 318 319 319 317 317 318 319 320 320 319 318 317 317 317 320 321 321 321 319 319
324 325 327 328 330 330 329 328 326 324 324 324 324 323 323 323 321 320 321 320 319 317 318 316 318 318 317 318 318 318 318 318 319 319 319 318 319 319 321 321 320 320 319
323 324 325 327 329 330 330 329 327 325 324 325 324 322 323 323 323 323 321 322 322 320 320 319 318 318 318 319 319 318 318 319 318 318 319 320 320 319 320 319 319 319 317
322 323 325 327 328 330 330 329 328 326 325 324 325 324 324 324 324 323 324 323 323 322 321 320 320 319 319 319 320 320 320 320 320 320 320 320 319 320 320 318 319 317 316
321 322 323 327 329 329 329 330 329 327 327 325 325 324 324 324 324 323 324 324 324 323 322 322 322 320 320 320 320 320 320 320 320 320 321 321 320 320 319 318 319 318 315
320 320 321 322 326 328 329 329 330 329 328 327 325 325 323 321 321 322 322 323 324 324 323 323 322 321 321 321 321 320 321 321 320 320 321 319 322 319 318 319 321 319 318
320 320 321 321 322 324 328 329 329 329 329 328 327 326 325 323 324 324 324 323 323 322 322 322 322 322 321 321 321 320 319 320 320 319 320 320 320 319 321 321 322 318 318
319 320 321 320 320 321 322 327 328 329 329 329 328 327 326 326 325 325 324 323 323 323 322 322 322 322 321 321 320 320 320 320 319 320 321 320 320 319 321 322 320 318 318
319 319 320 321 321 321 321 322 325 328 329 329 328 328 327 326 326 325 325 324 323 323 323 322 322 321 321 321 320 320 320 320 321 321 320 319 318 322 320 319 319 317 316
319 319 320 319 319 320 321 321 321 323 327 328 328 328 327 327 326 326 325 325 324 323 323 322 322 322 322 321 321 321 320 320 320 319 319 320 321 320 318 316 314 310 309
318 318 318 318 319 319 320 320 320 320 322 326 328 327 327 326 326 326 325 325 324 324 324 324 324 323 322 322 321 321 321 321 321 321 320 318 318 317 317 313 309 306 305
316 315 316 317 318 319 320 321 319 319 320 322 326 327 327 326 325 325 325 324 324 323 323 323 323 322 322 321 322 322 321 321 321 319 317 314 312 311 309 307 305 304 301
314 313 313 313 312 313 312 316 321 321 320 320 322 326 327 326 326 325 325 325 324 324 323 322 323 323 322 322 321 320 318 317 315 312 308 304 302 302 302 300 300 297 296
311 310 309 308 312 314 314 314 317 321 322 322 322 324 326 327 326 326 325 325 325 324 323 320 320 319 317 319 313 310 309 309 308 305 301 299 298 297 296 295 295 294 293
307 305 305 306 311 312 310 309 313 315 318 320 321 322 324 325 325 325 325 324 322 322 320 316 315 314 310 308 309 304 303 303 302 300 298 296 294 294 294 293 293 292 290
302 301 303 305 308 311 306 303 304 308 312 316 317 318 320 321 321 320 320 319 318 315 313 312 309 307 302 302 303 301 301 299 299 296 294 293 293 293 291 290 289 288 286
296 296 301 295 303 307 303 300 299 301 305 309 310 311 311 311 310 310 308 309 307 308 307 303 301 300 296 295 295 296 295 294 293 293 292 291 289 287 285 284 284 282 281
295 296 297 298 297 303 299 297 297 297 299 301 299 300 303 300 298 298 297 297 299 300 299 297 297 294 293 291 292 292 292 291 289 289 287 286 285 283 282 281 280 279 278

GFSMW_850_thetae_063.txt.gz
Theta_e
330 328 327 327 327 328 327 326 326 327 325 327 327 327 326 326 326 325 324 323 320 320 324 322 322 321 322 321 322 320 318 319 319 319 318 319 319 319 319 320 320 320 320
330 328 327 327 326 326 326 324 326 325 324 323 323 322 321 322 323 325 324 322 323 323 323 322 321 322 323 322 321 319 318 319 318 319 319 318 318 318 317 316 317 319 319
329 328 328 327 326 326 326 322 323 325 323 323 321 322 323 323 322 323 323 322 320 323 323 319 321 321 320 320 319 318 319 318 318 318 319 317 316 316 316 315 315 315 316
330 329 328 328 327 326 326 322 324 325 323 323 322 323 322 321 321 321 320 320 316 321 321 319 319 319 318 319 318 318 317 313 318 317 317 316 315 316 317 316 315 315 315
329 329 329 328 328 326 326 324 323 324 323 322 321 321 323 322 321 319 321 321 318 319 320 320 318 314 315 316 318 317 314 313 317 317 317 315 314 319 320 320 319 316 315
329 329 329 329 329 327 326 325 321 324 323 323 321 321 322 321 320 319 316 316 316 317 316 316 313 313 314 317 317 313 314 316 317 316 316 316 314 316 317 320 320 319 319
329 329 329 329 329 329 327 326 324 323 323 322 322 321 321 321 321 320 317 316 317 316 315 315 313 314 313 315 316 316 316 317 320 319 321 321 320 319 319 319 318 320 320
330 330 330 330 329 329 329 327 326 320 321 322 322 322 321 321 321 320 318 315 314 315 314 314 314 314 316 317 316 319 321 319 321 321 320 320 321 320 319 320 318 318 318
330 330 330 330 330 330 330 329 327 325 321 322 322 322 321 321 321 320 319 315 314 314 315 317 316 315 315 319 320 320 319 320 321 320 318 319 319 318 318 317 318 318 318
326 330 330 330 330 330 330 329 328 327 321 322 322 322 321 321 321 321 320 318 315 315 315 315 316 317 317 315 316 319 320 319 320 319 318 317 319 319 318 318 318 318 318
325 327 330 330 330 330 330 329 329 328 326 321 322 322 322 322 321 322 321 321 321 320 317 315 315 316 316 317 316 316 318 318 319 318 317 317 317 317 318 318 318 318 317
321 321 322 327 330 330 330 329 329 329 329 326 323 321 323 323 323 323 322 321 321 321 321 318 316 316 316 316 317 317 318 319 319 319 318 317 318 317 317 317 318 317 317
320 320 321 321 325 329 330 330 330 330 329 328 326 324 324 321 322 323 323 322 322 322 322 322 320 319 317 316 318 316 317 319 320 320 319 318 318 318 317 318 319 319 319
319 320 320 320 320 320 322 328 329 329 329 329 327 326 325 324 323 321 324 325 323 322 322 322 322 321 321 320 320 317 317 318 318 319 318 317 318 318 318 319 319 319 320
319 319 318 319 318 318 319 320 321 322 329 329 328 328 327 326 325 325 323 321 323 323 322 322 322 321 321 320 319 319 319 319 319 318 318 318 318 319 319 319 320 320 320
318 317 318 317 317 317 317 318 319 320 322 328 329 329 328 327 326 326 326 325 323 321 322 323 322 322 322 322 321 321 320 320 320 320 321 320 321 320 320 320 321 321 321
315 315 315 314 313 313 313 314 316 317 318 321 322 328 328 328 328 327 326 326 326 325 323 323 323 323 323 323 323 323 323 322 322 322 321 321 321 321 321 321 322 322 322
312 312 312 312 311 310 311 312 314 316 317 318 320 321 327 328 328 328 327 327 327 327 327 326 325 325 324 325 325 325 324 323 323 322 321 321 321 321 321 321 321 321 321
311 310 309 309 309 308 308 310 313 314 316 317 318 318 319 321 325 328 329 329 328 327 327 327 327 327 326 325 325 326 325 323 324 323 323 322 322 321 321 320 320 321 320
309 307 305 306 307 307 307 307 309 311 312 313 316 317 317 319 320 321 326 329 329 329 327 327 327 327 327 326 326 326 325 325 324 323 323 323 322 322 321 321 321 317 307
307 306 305 304 302 303 303 303 304 306 308 310 311 313 315 317 318 320 321 327 329 329 328 327 327 327 326 326 326 325 325 324 324 323 322 321 320 320 319 316 307 304 300
306 307 307 306 304 303 303 302 301 300 300 304 307 309 311 314 315 317 320 324 327 328 328 328 327 326 325 325 325 324 324 323 322 320 315 312 308 306 303 301 298 296 294
303 303 302 301 301 301 302 302 301 301 299 298 298 300 304 308 312 311 315 318 321 321 323 323 321 319 316 315 317 321 320 316 313 306 301 296 295 293 295 294 291 292 292
298 298 298 299 299 298 298 297 298 297 294 294 295 295 297 300 304 306 307 308 309 311 308 307 313 307 306 300 297 300 300 303 298 293 290 291 292 292 290 289 290 291 290
297 296 296 295 295 295 295 295 295 294 292 292 293 292 292 293 295 297 296 295 296 297 297 294 291 293 292 291 292 292 292 291 292 291 291 291 288 290 289 288 287 286 285
291 292 291 290 289 289 289 290 290 290 290 290 289 288 288 287 288 289 290 288 288 291 291 290 289 287 287 289 289 289 290 290 290 290 289 286 286 284 283 283 283 282 281

GFSMW_850_thetae_066.txt.gz
Theta_e
329 329 328 327 329 328 327 324 325 328 327 326 325 326 326 326 326 325 324 322 321 322 322 323 318 314 317 320 321 320 319 320 319 321 321 321 321 321 320 320 319 320 319
329 329 328 327 328 327 327 324 323 328 326 327 325 326 326 326 326 326 326 322 320 322 320 319 320 317 315 319 321 320 319 320 319 319 319 320 320 320 320 319 319 319 319
329 328 327 327 327 327 326 323 319 326 327 327 325 326 326 325 324 324 326 323 322 320 320 318 321 319 321 319 321 320 319 318 319 319 319 319 319 319 319 318 318 316 317
329 329 327 327 327 327 326 322 320 325 326 325 324 322 321 321 321 322 324 323 321 319 320 322 323 320 321 321 322 321 318 318 319 319 319 317 318 317 317 317 317 316 315
328 329 328 328 327 327 326 323 320 323 323 322 324 322 321 322 322 323 322 323 321 320 323 323 323 321 322 323 322 320 319 317 318 319 314 315 318 315 315 317 316 315 315
327 329 328 328 327 327 326 324 321 321 324 322 322 321 321 322 322 322 322 322 322 320 321 321 322 321 320 319 319 316 319 318 318 315 315 317 317 315 317 319 319 319 319
327 327 327 328 327 327 326 325 323 319 322 323 320 321 321 321 322 322 322 322 322 320 320 319 319 320 320 318 318 318 318 318 315 315 315 316 317 316 315 315 315 316 318
327 328 328 328 328 328 327 326 324 321 320 323 321 320 320 322 322 322 321 321 321 317 317 320 320 319 317 315 315 316 316 314 315 316 316 316 316 316 317 316 318 320 319
327 328 328 328 329 328 328 328 326 323 320 320 321 321 320 321 321 321 320 320 319 319 318 318 317 317 315 313 314 316 317 315 314 317 319 318 320 320 320 320 320 319 317
327 328 329 329 329 329 329 328 328 326 324 319 319 322 321 321 321 320 320 320 320 317 316 316 316 316 315 313 314 313 314 315 318 319 318 318 318 320 319 319 319 319 317
328 328 328 329 328 328 329 329 328 328 327 324 319 319 322 321 321 321 321 321 320 318 317 316 315 314 314 314 314 314 315 315 317 318 318 318 319 319 319 318 318 319 319
321 325 328 328 328 328 327 328 327 328 328 327 323 319 319 320 321 321 320 320 320 320 317 315 315 315 315 316 314 314 314 316 317 319 320 319 319 319 318 317 317 317 317
319 320 324 325 327 327 328 328 327 327 327 326 325 324 321 319 319 320 321 322 322 321 320 318 315 315 315 315 315 316 316 316 316 316 316 316 318 318 318 318 317 317 317
317 318 318 318 319 320 322 323 324 324 325 327 327 326 325 324 322 321 319 319 321 322 321 320 321 320 320 318 316 315 315 316 316 316 316 317 316 316 318 320 319 318 319
316 315 314 314 313 314 315 317 319 321 325 326 326 326 326 326 325 324 323 322 320 319 321 322 323 322 321 321 321 319 317 316 317 316 316 317 317 316 317 319 319 319 319
314 313 311 311 310 310 311 313 314 316 319 321 323 325 325 326 326 325 325 324 324 323 321 319 322 324 322 322 322 322 321 321 320 319 319 320 318 317 317 318 319 319 319
312 311 310 310 309 308 308 310 312 314 315 317 319 322 324 324 324 325 325 326 326 325 324 324 323 323 321 320 321 322 322 321 321 320 320 319 320 320 319 320 320 320 321
310 310 309 309 309 309 310 309 308 309 310 312 314 316 318 320 322 322 323 324 325 326 326 326 326 325 325 325 323 321 322 322 322 322 322 322 322 322 321 321 321 321 321
306 307 307 308 309 309 309 309 309 308 308 309 310 310 312 315 317 318 319 320 323 323 325 326 326 326 327 327 326 325 323 323 323 323 323 323 322 322 321 321 321 321 321
303 304 305 305 307 307 307 308 308 308 307 307 308 309 309 309 311 313 316 318 318 319 325 325 326 326 325 326 326 327 326 325 325 324 324 323 323 322 322 322 323 322 321
303 303 302 303 303 304 305 306 306 306 305 305 305 306 307 308 308 309 309 312 316 318 320 324 325 326 326 326 325 326 326 326 326 326 325 324 324 324 324 323 321 319 315
299 298 299 300 300 300 301 300 300 299 299 299 301 302 302 303 305 305 306 308 310 314 319 324 322 322 322 323 325 326 326 325 325 325 322 315 311 308 307 308 310 303 298
298 298 298 298 298 298 298 298 296 297 296 296 295 294 294 296 298 301 303 306 308 308 310 309 308 306 305 309 312 314 319 322 317 309 294 291 299 298 295 292 291 289 292
297 297 297 297 296 295 295 295 294 294 294 294 293 292 292 292 293 294 295 296 297 298 298 298 298 296 296 295 296 296 297 300 299 294 290 293 292 290 291 291 292 292 290
296 296 295 294 293 292 293 293 293 292 292 291 290 290 289 288 287 287 287 286 287 290 291 291 291 291 290 288 291 291 291 290 291 291 291 290 290 290 287 288 287 285 286
291 291 291 290 290 290 291 292 292 292 292 291 290 289 288 288 287 286 285 285 285 285 285 286 287 286 287 287 288 289 289 291 290 291 289 287 287 287 285 285 285 284 285

GFSMW_850_thetae_069.txt.gz
Theta_e
325 327 328 328 329 328 328 325 320 325 327 327 327 326 326 326 326 326 326 326 325 323 323 324 318 311 308 306 307 314 320 320 321 321 321 320 320 320 320 320 316 316 315
326 326 327 328 329 328 327 326 321 322 326 325 325 325 326 325 326 326 327 326 326 322 321 324 322 312 308 306 306 318 320 320 320 321 321 320 320 320 321 320 320 319 319
324 327 327 327 328 328 327 326 321 321 325 325 325 325 325 325 325 326 327 326 325 322 324 324 322 314 309 310 308 317 319 316 319 320 321 320 320 320 320 320 320 319 319
324 327 327 327 328 328 327 326 322 320 323 325 325 324 325 325 326 326 326 325 325 322 324 323 323 317 311 315 317 318 318 318 319 320 321 320 318 318 319 319 319 319 318
324 327 328 328 328 328 327 326 322 319 321 324 327 324 323 323 323 324 324 324 325 323 322 322 321 321 316 316 320 321 320 319 319 318 319 318 316 316 314 316 316 318 317
322 325 328 328 328 328 327 326 323 319 321 322 323 325 324 322 321 321 320 322 323 323 322 321 320 320 320 318 318 319 321 320 318 318 318 316 317 315 315 316 316 316 316
321 325 327 328 327 327 327 326 323 320 319 321 323 322 322 321 323 321 321 322 322 323 322 321 321 322 323 321 321 320 321 320 318 318 318 318 315 315 316 317 317 316 317
319 324 326 327 328 327 327 326 324 321 319 319 320 320 321 320 321 322 321 322 323 323 323 321 321 322 323 321 319 321 321 320 318 318 318 318 315 316 316 317 316 315 315
321 324 326 327 328 327 327 327 325 323 320 318 318 321 321 322 321 321 322 324 322 322 321 321 321 322 322 321 320 320 319 318 316 315 315 317 316 315 316 317 316 316 316
325 324 325 327 327 327 327 327 326 324 322 320 319 319 320 320 321 321 322 321 322 322 322 321 320 319 320 320 321 318 317 317 317 316 317 315 315 315 317 317 317 317 319
326 326 325 325 326 326 327 326 326 325 324 322 321 320 319 320 321 321 321 321 321 321 322 321 319 319 319 319 319 317 316 316 316 317 316 313 314 315 318 318 319 320 319
326 327 327 326 326 327 327 327 326 326 325 325 323 321 320 320 321 321 321 320 321 320 319 319 319 318 319 318 317 316 315 314 314 315 317 316 316 318 318 319 319 319 319
318 319 323 325 326 326 326 326 326 326 326 325 325 324 322 320 320 320 320 320 320 320 320 320 320 318 317 317 316 316 315 314 314 314 315 315 314 314 317 318 318 319 319
312 312 313 316 321 322 322 324 324 324 324 325 326 325 325 324 322 321 320 320 319 320 320 320 320 320 319 317 317 316 315 314 315 314 314 314 315 315 316 316 316 316 317
309 308 308 310 311 313 314 316 317 321 324 324 323 323 324 324 324 324 323 322 321 321 320 319 321 321 320 320 319 317 315 315 315 315 315 315 315 315 315 316 316 317 317
308 307 307 307 308 309 310 312 314 315 318 321 321 321 323 323 322 322 324 324 324 324 323 322 321 320 320 320 320 320 320 320 320 320 320 318 317 317 316 316 317 317 318
306 306 308 308 308 308 308 308 308 309 311 313 315 317 320 321 322 321 322 322 322 323 324 324 324 324 324 323 322 321 320 321 320 321 321 321 321 321 321 320 320 319 319
306 305 307 308 308 308 308 308 308 308 307 308 309 310 311 313 316 319 320 321 321 321 320 320 321 322 324 325 325 324 322 320 321 321 321 321 321 321 321 320 320 320 320
304 306 306 306 307 307 307 307 307 307 307 307 307 308 308 309 310 310 312 315 317 319 320 320 321 321 320 321 322 323 322 321 322 322 322 322 322 322 321 321 321 321 322
302 304 304 305 305 306 305 306 306 306 306 306 306 306 306 307 308 308 309 309 310 311 313 315 316 317 320 322 322 322 323 322 323 324 322 320 321 322 322 321 321 322 321
301 302 302 303 303 303 303 304 304 304 303 303 303 304 305 305 305 305 305 306 306 307 308 309 310 312 314 318 322 323 323 323 321 320 321 321 322 321 320 319 318 317 315
298 298 298 299 299 299 300 300 300 298 299 299 299 300 300 301 302 303 304 303 303 304 306 306 305 304 304 305 309 315 320 321 319 315 312 311 309 318 318 315 310 305 297
294 294 296 296 295 294 295 295 294 294 295 295 295 295 296 297 297 298 299 300 301 301 299 297 297 296 296 297 297 299 301 307 308 300 298 292 294 298 296 297 298 294 294
293 294 294 294 293 293 293 293 292 292 292 292 292 292 293 292 293 293 292 293 293 293 292 291 290 290 290 291 291 292 293 294 295 292 292 292 293 292 292 290 290 292 291
292 293 293 291 291 291 292 292 291 291 292 291 291 290 290 290 289 289 288 287 286 289 289 288 287 286 285 285 287 289 289 289 289 289 290 290 289 288 288 287 287 287 287
289 289 289 290 289 290 290 290 290 290 290 289 289 288 288 288 288 287 286 286 286 286 286 286 289 289 287 288 288 288 288 288 288 289 288 286 286 285 285 284 284 284 283

GFSMW_850_thetae_072.txt.gz
Theta_e
319 325 328 329 328 329 328 327 326 322 325 325 326 326 325 328 326 326 327 327 325 325 325 325 325 319 314 315 317 319 319 319 321 321 320 320 320 319 318 314 313 311 311
317 322 326 329 328 328 328 328 326 321 326 327 326 326 325 328 325 328 326 327 325 326 325 324 325 317 312 314 316 317 317 319 320 321 321 320 319 319 319 318 317 314 313
316 320 323 326 328 328 328 328 326 322 324 328 326 325 324 325 326 326 326 327 324 324 322 324 324 316 311 310 313 317 317 319 320 320 321 319 320 319 320 320 320 320 319
316 319 323 325 327 328 328 328 326 323 321 329 324 324 324 325 325 325 325 327 326 325 324 322 322 321 312 310 309 313 313 319 320 321 321 320 319 319 320 320 320 320 320
318 319 320 322 326 327 328 328 326 324 320 328 324 324 324 324 325 324 324 326 326 326 325 322 319 324 320 311 307 307 311 319 320 319 320 321 320 319 316 312 311 311 315
318 321 323 325 326 327 328 328 326 325 319 322 325 323 323 323 324 324 324 323 325 324 325 324 324 322 322 314 308 308 311 319 318 317 317 319 320 319 315 313 312 313 315
319 318 323 325 326 327 328 327 327 326 318 319 323 324 323 322 322 322 322 321 322 324 323 324 324 322 323 318 311 316 315 314 318 318 319 319 319 319 312 314 315 315 315
317 318 321 323 326 327 328 327 327 326 320 317 321 324 323 322 321 318 320 320 320 320 322 324 323 322 321 321 318 312 318 316 317 318 319 319 318 319 316 315 315 314 314
316 318 322 324 325 327 327 327 327 326 322 318 318 320 321 322 320 320 320 320 320 321 322 323 323 323 322 322 320 319 316 318 318 319 320 318 318 318 317 315 315 316 315
321 321 324 325 325 326 327 327 327 326 323 321 318 318 320 321 321 320 319 319 320 321 322 323 323 323 321 321 321 321 320 320 319 319 320 319 317 318 318 315 316 316 316
323 324 325 325 326 325 325 326 326 326 324 323 320 319 319 319 320 320 320 320 322 321 322 322 322 321 320 320 321 322 321 319 318 319 320 319 317 316 315 313 315 316 315
320 324 324 325 325 325 326 326 326 326 325 325 324 322 321 319 318 320 320 321 320 320 321 323 321 321 320 319 319 319 320 320 320 319 318 318 317 317 315 315 315 314 314
311 316 319 319 323 323 324 325 325 325 325 325 324 324 324 323 321 319 319 320 321 320 320 320 321 322 321 319 319 318 319 319 319 318 317 317 316 316 315 317 317 314 314
308 311 314 315 320 322 322 322 323 323 323 324 324 324 325 325 324 322 321 320 319 319 320 320 320 319 319 320 319 318 318 319 319 317 316 316 316 315 315 315 315 315 315
304 306 309 311 314 316 317 319 321 322 323 322 321 322 322 323 323 323 323 323 321 321 320 319 319 319 319 319 320 320 319 317 317 317 316 316 315 315 314 314 314 314 315
302 302 304 305 308 309 311 314 316 318 320 319 320 320 320 321 321 321 321 321 321 322 323 323 322 322 322 321 320 319 319 320 320 319 317 317 316 315 315 315 315 315 316
302 300 301 303 304 305 305 306 307 307 310 314 316 318 318 319 319 320 320 320 320 320 320 320 320 320 321 321 321 322 321 321 320 320 319 319 319 320 319 319 319 319 318
304 305 303 302 303 304 305 305 305 304 304 305 306 307 308 310 313 316 318 318 319 320 319 320 319 319 319 319 320 320 320 320 320 321 321 321 321 321 319 319 319 319 320
305 303 303 304 301 304 303 303 303 304 304 304 305 305 306 306 307 307 308 310 311 314 315 316 317 317 318 319 319 319 320 320 320 320 321 320 320 321 321 319 318 318 317
301 301 302 301 302 303 302 302 303 303 303 303 302 303 303 304 305 305 306 306 307 307 307 307 307 307 308 311 314 315 315 316 318 316 317 318 318 318 319 319 318 318 317
298 297 300 302 301 300 300 300 300 301 299 299 299 300 301 301 301 301 302 301 301 301 302 303 303 303 304 305 306 308 310 312 313 314 313 314 315 317 318 318 317 314 312
296 297 298 298 298 298 298 299 300 297 297 297 297 297 298 298 298 298 298 298 297 298 299 299 300 299 298 297 299 301 304 305 306 305 301 300 298 300 305 306 306 307 305
293 294 295 295 295 296 296 296 294 295 295 295 296 295 295 295 296 296 296 296 295 294 293 294 294 293 293 292 292 294 296 297 298 295 292 293 294 295 295 294 293 292 293
290 290 290 291 291 292 292 292 292 293 294 295 294 294 295 294 294 294 293 293 292 291 290 289 289 289 290 289 290 290 291 291 291 291 290 290 289 288 288 288 289 288 288
288 290 289 289 289 290 290 290 290 290 291 291 291 291 291 292 291 291 289 289 287 287 288 288 288 288 287 287 288 289 289 289 289 289 289 289 288 288 286 285 285 285 285
287 287 287 287 288 289 289 289 289 289 289 289 288 288 288 287 287 287 287 286 286 287 287 287 287 286 286 287 287 288 288 288 288 290 288 288 288 287 286 285 284 285 283

GFSMW_850_thetae_075.txt.gz
Theta_e
319 318 318 324 330 329 328 328 327 326 325 326 326 326 325 326 325 324 327 326 327 326 326 326 325 324 324 323 324 322 321 320 320 320 319 319 319 319 318 316 314 312 311
318 319 318 321 328 328 328 328 327 327 326 322 325 328 326 324 324 325 327 324 326 327 327 327 326 324 325 322 324 322 320 320 320 320 320 319 318 318 319 318 314 312 310
318 317 317 318 326 327 328 328 327 327 324 323 325 325 328 325 325 325 326 325 326 326 326 326 324 322 324 319 322 322 320 319 320 321 321 320 321 320 319 319 317 317 313
319 317 316 318 322 327 328 328 327 327 324 324 326 324 326 324 324 326 326 326 324 325 326 325 325 324 324 317 317 321 321 319 319 321 321 320 320 320 319 320 320 319 319
318 317 316 318 324 327 328 328 328 327 325 323 325 325 325 324 324 327 325 327 325 324 323 322 321 324 322 315 312 313 317 318 318 320 320 320 320 319 318 320 320 320 320
317 317 316 318 322 326 328 328 328 327 325 322 323 323 322 324 324 326 324 326 326 325 325 323 322 321 322 314 311 312 315 317 317 318 320 320 320 320 319 317 317 318 316
316 318 320 320 323 324 326 328 328 327 325 322 323 323 322 323 323 323 323 325 324 323 324 325 323 321 322 319 312 311 310 313 315 315 319 320 319 319 318 318 316 312 312
315 316 320 322 323 324 326 328 328 327 325 320 321 322 322 322 322 322 322 321 321 321 323 324 324 324 321 321 322 313 309 308 308 312 318 318 318 317 318 319 318 313 314
321 315 320 323 324 324 326 327 328 327 325 320 320 320 321 321 321 320 319 320 320 320 320 323 324 324 323 322 322 316 310 309 311 312 318 316 318 318 319 319 318 315 314
322 316 322 323 324 324 328 327 327 326 324 320 318 320 320 321 320 320 318 319 319 320 319 320 321 323 324 323 322 321 315 312 315 316 314 315 317 319 319 319 318 317 315
323 323 324 324 324 324 324 327 326 326 324 322 319 318 318 320 320 320 319 319 319 319 320 321 321 322 322 324 323 321 321 317 313 316 317 316 316 317 315 318 318 317 318
316 322 322 323 322 322 322 326 324 325 324 324 322 320 319 319 319 319 320 320 319 320 320 321 319 321 322 323 323 320 320 321 320 320 318 319 318 318 318 318 318 316 317
310 315 319 319 321 321 321 321 323 324 324 324 324 324 323 322 320 319 319 320 320 320 320 320 321 321 321 321 321 321 320 319 320 321 321 320 319 319 319 319 317 317 316
305 307 312 315 317 318 320 320 322 323 323 324 323 323 323 324 323 322 320 320 319 319 320 320 320 320 320 321 320 320 319 318 318 318 318 319 319 319 318 318 318 317 317
301 303 304 307 311 315 317 319 321 323 325 323 323 322 322 323 323 322 322 322 322 321 320 320 319 319 319 319 318 318 318 318 318 319 319 319 318 318 318 317 317 316 317
299 299 301 302 304 307 310 314 318 319 320 320 320 320 320 321 321 322 322 322 322 322 321 321 321 321 320 320 319 319 319 319 319 319 319 320 319 319 318 317 317 317 317
299 300 301 301 302 302 304 307 308 310 315 316 318 318 317 318 318 319 320 320 320 320 320 320 320 320 320 320 320 320 320 319 318 319 319 320 319 319 319 319 319 318 318
301 301 301 302 299 299 301 302 304 306 308 309 309 310 311 313 315 316 316 317 317 317 318 318 318 318 318 319 319 319 319 319 320 319 318 317 317 318 318 318 319 319 320
297 300 300 301 301 301 302 305 305 303 302 302 303 303 304 305 306 306 307 309 310 312 313 313 314 313 313 315 316 317 317 317 316 317 317 316 316 316 317 318 317 317 316
298 298 298 300 300 299 298 299 299 298 301 301 299 299 301 302 303 303 304 303 302 302 301 302 303 302 303 303 305 307 308 308 309 311 312 313 313 314 316 316 317 315 314
295 295 296 296 296 296 297 298 296 296 295 296 297 298 299 300 300 299 301 300 298 298 299 298 299 298 297 299 300 302 304 305 305 305 305 305 304 305 309 312 313 311 309
294 292 293 293 293 293 293 294 294 293 293 294 296 296 296 297 298 298 298 297 296 296 296 296 295 294 294 294 294 295 295 296 297 298 297 296 296 297 299 300 302 302 298
292 292 291 291 291 292 293 292 291 292 293 293 294 294 294 293 293 293 293 293 293 292 292 292 291 291 291 291 292 292 292 292 292 292 291 290 290 290 290 289 290 291 291
291 290 289 290 291 291 291 290 289 290 291 292 292 291 292 292 292 292 291 291 290 290 290 289 289 289 289 289 289 289 290 290 289 289 289 289 289 289 289 289 288 288 288
291 290 290 289 289 289 290 290 289 289 290 290 290 291 291 291 291 291 290 290 289 289 288 288 288 288 288 288 288 289 289 289 288 288 288 288 288 288 287 287 287 287 286
288 289 288 288 288 289 289 289 289 290 290 290 290 290 290 290 289 289 289 289 289 289 289 288 288 287 286 287 288 288 288 288 288 289 289 288 287 286 285 285 284 284 285

GFSMW_850_thetae_078.txt.gz
Theta_e
318 319 321 328 331 334 335 330 328 328 326 324 325 327 327 327 327 326 327 327 328 328 326 326 327 326 325 322 324 325 325 324 324 322 322 322 322 322 321 321 319 319 318
318 318 321 328 330 333 334 330 328 328 327 325 325 327 325 327 326 325 325 325 326 326 328 326 327 326 325 322 323 324 324 323 323 322 322 321 321 320 321 321 320 319 318
318 318 321 328 330 332 333 330 329 328 327 326 324 325 323 327 325 325 326 326 326 324 327 327 326 326 325 323 324 324 324 323 323 322 321 321 321 321 322 320 320 318 318
318 319 320 326 329 331 333 332 331 329 328 327 323 323 326 326 325 325 325 324 324 324 325 326 326 325 325 325 322 323 323 322 323 322 321 321 320 321 322 322 320 318 316
318 320 321 323 328 331 332 332 331 328 328 327 324 324 325 326 325 325 325 326 324 324 325 325 326 325 323 324 322 323 323 322 322 322 322 322 323 321 320 321 321 321 319
321 320 321 324 327 331 332 331 329 327 328 327 322 325 324 324 325 325 325 326 326 323 325 325 325 322 321 322 324 321 322 322 322 321 321 321 322 321 321 320 321 321 320
323 322 324 326 328 331 330 328 328 327 327 326 324 323 325 323 323 324 325 325 325 325 323 323 323 323 324 324 324 318 318 321 321 321 320 321 321 321 321 319 318 319 320
325 321 325 326 328 330 329 328 327 327 327 325 325 323 323 323 324 323 324 324 325 324 324 323 324 321 321 322 321 316 314 313 316 318 320 320 318 320 321 320 320 317 317
327 323 324 327 328 329 329 327 327 327 327 325 323 322 322 323 323 322 322 322 322 321 321 322 324 324 323 321 322 315 312 311 313 315 315 316 316 318 321 320 320 318 319
325 324 326 328 328 327 327 327 326 326 326 323 320 325 322 322 322 322 322 321 320 320 320 320 322 324 324 324 322 322 320 318 313 309 310 311 310 317 320 319 318 319 319
318 325 326 327 326 323 323 324 325 324 326 321 324 324 323 321 321 320 320 320 320 320 320 320 321 322 323 324 322 321 321 322 317 310 310 310 312 311 314 316 316 318 318
310 321 324 323 322 322 322 322 326 325 322 322 322 321 320 321 320 320 320 319 319 320 320 320 321 322 322 322 323 323 322 322 321 316 310 311 313 315 317 316 315 316 316
305 311 318 317 319 321 321 322 322 322 324 324 322 321 322 319 319 320 320 320 320 319 320 320 321 321 321 321 322 322 322 322 321 320 320 313 314 315 316 316 316 317 317
302 304 309 310 315 318 319 320 321 322 322 321 322 322 322 322 321 321 319 319 320 320 320 321 321 320 320 320 321 322 322 321 320 320 320 320 319 320 319 320 320 319 319
300 299 303 305 306 312 316 318 320 320 321 322 322 323 323 322 322 321 320 320 320 320 320 320 319 321 321 320 320 320 320 320 319 319 318 319 319 319 319 320 320 320 320
298 296 297 301 303 303 308 311 315 317 318 319 321 321 321 322 321 321 322 321 321 321 320 320 320 321 320 319 319 319 319 319 319 319 319 319 319 319 319 319 319 319 319
297 296 295 297 298 299 301 304 309 311 312 316 316 315 318 319 318 319 319 319 319 319 320 320 320 320 319 319 319 320 319 319 319 318 318 318 318 319 319 319 319 318 319
297 296 294 294 296 299 300 300 304 305 307 308 309 307 311 316 315 314 315 316 317 316 316 316 316 316 316 317 318 318 318 316 316 316 317 317 316 316 316 316 316 317 317
295 295 293 296 298 298 298 300 299 298 299 299 300 303 306 306 304 306 308 311 312 313 313 312 311 311 312 313 315 315 313 314 313 314 314 314 314 314 315 315 314 314 314
294 296 295 295 298 300 298 298 300 301 304 303 303 304 303 301 302 301 301 300 301 303 302 302 302 301 303 304 305 305 306 307 307 306 304 305 307 308 309 310 310 310 310
296 297 296 293 294 297 299 301 300 301 300 300 299 300 299 299 299 298 297 296 298 298 298 298 297 297 298 298 300 302 302 300 301 301 301 301 300 301 302 303 302 303 302
293 292 294 294 293 291 292 293 295 295 295 293 292 294 296 295 295 296 294 294 295 295 292 292 293 293 293 294 294 295 295 295 296 295 294 294 294 294 295 295 293 293 293
290 289 290 290 290 289 290 292 293 293 293 293 292 292 292 292 290 290 288 289 289 290 289 289 290 291 291 291 292 292 292 292 292 291 290 290 290 290 290 290 290 290 290
288 288 288 288 288 288 287 287 287 287 288 288 290 290 289 288 288 289 290 290 289 289 289 289 290 290 290 290 290 290 290 290 290 289 289 289 289 289 289 289 289 289 288
289 290 286 286 286 288 289 287 287 287 287 287 285 285 287 288 289 289 287 289 290 290 289 288 289 288 289 289 288 289 289 289 288 288 288 288 288 287 287 287 287 286 285
290 290 287 288 287 288 288 288 287 286 287 288 288 287 285 284 284 286 287 287 287 287 288 288 288 288 287 287 287 287 287 287 287 287 286 285 284 283 282 281 280 280 279

GFSMW_850_thetae_081.txt.gz
Theta_e
319 319 320 322 328 333 337 339 337 336 333 326 323 320 321 326 324 326 327 327 328 328 328 329 327 326 325 326 325 323 325 323 323 323 322 322 322 321 320 320 319 320 320
320 319 320 322 330 334 337 338 337 335 332 329 326 322 325 327 326 327 326 327 327 327 325 326 327 327 326 326 325 323 323 323 323 322 322 322 321 321 320 320 320 320 320
320 319 319 322 330 332 336 338 336 334 330 331 328 324 324 328 326 327 327 326 327 326 326 325 326 327 326 325 323 321 322 323 323 322 322 322 321 321 321 321 321 320 320
320 320 319 321 329 331 335 337 336 334 332 331 328 325 328 326 328 326 327 326 327 327 326 325 326 324 325 325 318 322 322 322 322 323 322 321 320 321 323 322 321 321 320
320 319 319 320 327 331 335 336 335 334 333 332 331 329 328 329 328 327 326 325 325 325 324 325 325 326 326 325 325 321 321 322 322 323 323 321 321 322 322 322 322 321 321
321 320 319 319 325 330 334 335 335 334 333 333 331 329 328 328 328 327 326 325 326 325 323 325 325 325 326 325 324 320 319 322 322 322 322 322 322 323 321 321 322 321 322
324 323 321 322 324 330 335 335 335 333 333 332 330 328 328 328 326 326 326 325 326 325 323 323 324 325 325 324 324 322 321 322 322 322 321 321 322 322 321 321 321 321 322
329 327 323 323 326 330 334 335 334 332 332 332 330 328 327 328 329 328 326 325 325 325 323 324 324 324 324 322 324 321 321 322 322 321 321 322 321 320 320 322 321 319 319
324 328 325 327 328 332 334 332 332 330 331 331 329 327 327 326 327 325 325 326 325 325 324 324 322 324 323 322 322 322 324 322 320 321 320 321 318 320 319 319 317 321 319
316 323 326 329 330 333 329 329 331 329 330 330 329 326 327 327 325 325 324 323 323 323 323 322 323 324 322 322 322 323 323 319 317 314 312 315 317 313 315 315 314 317 319
309 314 326 330 331 327 326 326 327 327 327 328 326 325 324 326 324 323 322 323 324 322 321 321 322 322 323 323 322 321 321 320 315 313 312 313 314 313 312 315 313 313 318
305 309 318 324 324 325 324 325 326 326 325 328 325 323 323 324 322 322 322 321 322 321 321 321 321 322 323 322 324 324 322 321 321 318 316 317 313 311 311 311 310 314 316
303 304 309 318 320 323 323 325 326 325 324 321 323 322 323 322 322 322 321 321 320 320 320 321 321 322 322 322 322 323 323 321 321 322 322 322 318 312 312 311 311 312 313
300 300 302 306 313 317 322 323 322 322 322 322 322 320 322 321 322 323 323 321 321 321 319 320 320 321 321 321 321 322 322 323 322 322 322 321 320 320 319 314 312 314 315
302 298 298 300 304 310 316 320 321 321 322 322 321 320 321 321 321 320 320 322 322 322 322 320 320 320 320 320 321 321 322 322 323 322 321 320 321 321 320 321 320 319 320
298 298 297 297 299 302 306 312 315 318 319 320 320 319 320 320 321 321 321 320 319 320 321 321 321 321 321 321 321 321 322 321 320 320 320 320 319 320 319 319 319 319 320
297 299 296 295 295 297 299 305 306 306 311 315 313 314 316 316 317 319 319 319 320 320 320 320 320 320 320 320 320 319 319 319 319 319 319 319 319 319 319 319 320 320 320
296 297 298 294 293 295 296 298 301 303 302 304 306 306 311 312 309 313 317 314 314 315 315 316 316 316 317 318 318 318 317 317 317 317 317 317 317 317 317 317 317 316 317
295 294 298 297 293 293 294 295 299 297 300 301 300 300 304 310 308 305 313 310 309 310 309 309 309 311 311 312 312 313 313 311 311 310 310 310 311 310 311 312 312 312 312
293 293 294 296 295 296 295 298 299 296 299 298 299 295 299 299 300 302 304 302 303 303 304 305 304 305 305 306 306 306 307 306 304 304 304 304 304 304 305 305 306 305 305
292 292 292 292 294 294 296 299 297 296 294 294 294 294 297 298 299 301 301 296 296 298 299 299 297 297 297 298 299 301 300 300 300 301 299 297 296 297 298 298 299 298 297
291 291 290 291 291 292 293 294 295 295 296 296 296 296 297 297 297 296 296 296 292 292 292 293 293 293 293 294 295 295 296 296 295 294 294 293 293 294 294 294 293 291 291
291 291 290 290 290 290 290 290 290 290 291 294 296 296 296 296 295 294 290 289 290 289 289 289 289 291 291 291 291 292 292 292 292 292 292 291 291 292 292 291 291 291 290
289 290 289 288 288 288 289 289 289 289 288 287 288 287 287 286 287 290 290 289 288 288 288 287 287 289 290 290 290 290 290 290 290 289 290 290 290 290 289 290 290 289 288
287 288 287 287 287 286 287 288 288 288 287 287 286 286 288 289 290 291 289 290 289 289 289 289 290 290 290 290 289 289 289 289 289 288 288 287 287 286 286 286 286 285 285
285 285 284 284 284 286 288 287 287 287 287 286 286 286 286 285 286 288 288 288 288 289 289 289 289 288 288 288 288 288 287 286 286 286 284 282 281 280 280 279 279 278 278

GFSMW_850_thetae_084.txt.gz
Theta_e
320 320 319 318 319 323 334 338 339 339 336 336 330 324 322 322 322 328 329 330 329 329 329 330 329 327 326 326 325 327 325 326 324 323 323 322 321 319 320 320 321 320 319
320 320 320 319 322 327 333 337 339 339 336 335 327 326 325 323 322 321 327 326 327 328 329 328 328 327 327 325 325 325 325 326 323 322 322 322 321 320 320 320 319 321 320
320 321 320 319 324 329 335 338 339 337 336 333 331 329 328 328 330 329 328 326 326 328 327 327 326 329 327 326 326 325 323 323 324 323 322 321 321 320 320 320 320 320 320
317 321 321 319 326 327 337 338 340 337 336 333 331 329 326 323 324 326 327 327 327 328 327 327 327 327 324 326 326 325 321 322 324 322 321 320 320 320 321 320 319 320 320
318 320 321 320 327 327 334 338 339 337 335 333 332 329 326 324 324 327 327 327 327 327 326 328 327 325 325 326 326 326 323 322 323 322 322 320 321 321 319 321 321 320 321
318 319 321 320 326 330 335 337 338 336 334 333 332 330 328 328 326 328 327 329 327 326 326 324 324 325 324 323 325 325 321 320 323 322 321 322 321 322 323 322 321 320 320
326 328 328 321 321 330 334 336 337 336 334 333 333 331 329 329 327 327 328 327 325 325 325 324 324 325 324 325 324 322 321 321 321 321 322 323 322 321 322 322 322 322 321
320 323 325 326 324 332 335 337 337 335 334 333 332 331 329 326 327 327 326 326 325 326 325 323 323 324 325 324 325 325 320 321 321 322 322 322 322 322 321 321 321 321 321
316 318 323 328 326 331 335 336 336 335 334 334 332 330 328 326 327 327 327 325 325 324 325 324 324 323 325 324 324 324 321 320 319 322 321 321 320 320 322 322 320 320 319
311 313 320 329 331 333 335 336 335 334 334 332 331 329 328 326 326 325 326 327 325 325 325 324 324 324 324 324 324 323 320 320 321 322 321 321 320 320 320 320 318 319 318
307 313 317 324 329 331 333 333 332 332 331 331 330 328 326 325 325 325 325 324 323 323 323 323 323 323 323 323 322 323 322 321 321 322 321 320 318 315 316 319 315 317 316
306 308 313 318 325 326 328 329 329 330 330 329 328 326 325 324 324 323 323 322 324 322 322 322 322 322 322 322 322 322 323 323 323 319 316 314 314 315 315 315 315 314 314
307 307 309 312 316 321 325 327 327 327 327 327 325 323 323 323 323 322 322 321 321 320 321 321 322 321 322 323 322 323 322 322 321 321 319 317 315 317 316 317 316 313 313
302 304 304 305 307 313 319 324 326 325 325 325 323 322 322 322 322 321 321 320 320 320 320 321 322 322 322 322 322 322 322 322 322 322 322 322 321 321 320 320 318 315 313
299 300 302 301 303 306 309 317 319 323 323 322 322 322 323 322 322 323 322 321 321 321 320 320 320 321 322 321 321 321 321 321 321 322 322 321 321 321 321 319 319 319 318
298 297 299 301 299 300 302 305 310 317 319 322 321 320 320 319 320 320 321 321 321 320 321 320 320 320 320 320 321 321 321 321 321 322 321 322 321 321 321 320 320 319 320
296 296 296 297 298 297 298 300 303 306 311 314 316 317 318 319 320 320 319 320 319 319 320 320 320 320 320 320 320 320 320 321 321 320 319 319 319 319 319 318 319 319 319
295 294 295 298 298 296 297 297 300 302 304 305 306 307 311 311 311 314 316 315 317 318 317 317 317 317 318 319 320 320 319 318 318 318 318 318 317 317 317 316 315 315 315
294 294 295 294 299 300 296 297 298 300 300 300 300 300 303 304 304 306 307 308 308 311 309 307 309 310 311 312 314 314 314 314 313 312 312 311 311 312 311 311 310 309 308
293 293 293 294 295 296 298 299 297 298 298 297 298 298 299 301 297 298 299 301 304 304 307 304 304 303 305 303 306 307 307 306 306 305 305 306 306 305 305 304 304 302 301
292 292 293 293 293 293 294 294 295 298 296 298 297 298 297 299 300 297 295 297 298 300 301 296 295 297 296 297 300 300 299 300 300 300 297 296 296 297 298 298 297 297 296
291 291 291 291 291 291 291 291 292 291 294 296 299 296 295 293 295 295 294 294 296 296 294 293 292 291 292 292 294 295 295 295 295 294 293 292 292 293 293 293 293 292 292
291 290 290 290 290 290 290 289 289 289 289 291 292 292 292 294 294 295 293 293 292 291 291 292 292 291 291 291 292 292 292 292 293 292 291 291 291 291 292 291 290 290 290
289 289 289 288 289 289 289 289 289 288 288 290 290 290 292 293 293 292 293 293 292 292 292 292 292 292 292 292 291 291 291 291 290 290 290 290 290 290 289 289 288 288 287
288 287 287 287 287 288 288 288 288 288 288 288 289 289 290 291 291 291 290 290 289 290 289 289 289 289 289 288 288 289 289 288 288 287 287 287 286 285 285 285 284 283 283
286 285 285 285 286 287 288 288 288 287 287 287 287 286 287 287 287 287 287 287 287 287 288 288 289 288 288 288 287 287 287 286 286 286 285 283 281 281 280 280 280 280 279

GFSMW_850_thetae_087.txt.gz
Theta_e
315 318 319 319 319 319 318 328 338 339 337 336 336 328 330 325 322 322 327 324 328 330 331 330 330 329 329 328 327 325 325 325 327 326 324 323 321 320 321 320 320 319 320
314 316 319 319 320 319 323 329 337 338 337 335 335 328 330 324 322 320 320 322 327 329 330 328 329 329 329 326 325 325 326 327 325 325 323 321 320 320 320 320 320 320 320
315 316 318 319 320 319 325 333 337 337 338 337 335 331 329 326 323 321 321 319 327 327 327 328 328 328 328 326 325 325 326 326 325 324 322 321 321 319 319 320 320 320 320
316 316 318 319 321 325 328 335 336 338 337 337 334 330 329 327 326 322 317 324 326 327 327 328 328 327 327 325 326 325 326 325 324 323 322 320 321 320 320 319 320 319 320
318 318 317 318 321 332 335 334 335 338 337 335 332 331 330 328 325 323 326 327 327 327 327 327 327 327 326 327 326 326 325 325 324 323 322 320 320 320 320 320 320 319 319
323 325 325 324 325 331 335 335 335 336 336 334 332 332 330 326 323 323 325 326 327 327 327 326 326 327 326 326 325 325 325 325 323 323 322 321 319 320 320 319 319 318 319
317 323 325 325 324 333 337 336 337 335 336 335 334 332 330 326 324 324 326 327 326 327 327 326 326 324 325 324 325 326 325 323 321 323 322 321 320 322 321 321 321 320 319
315 320 324 328 327 327 333 338 336 336 335 335 333 332 330 328 327 325 326 326 326 326 325 325 324 324 324 325 325 325 325 322 322 323 322 320 319 323 322 323 322 323 322
312 318 322 326 331 329 335 334 335 335 335 333 333 331 330 329 327 326 326 325 325 325 326 325 323 323 324 324 324 324 324 324 321 322 322 320 322 322 321 321 321 321 321
310 316 319 322 327 331 332 332 334 333 333 333 331 330 329 329 325 325 325 325 325 325 325 324 324 323 323 324 324 325 324 322 321 320 321 321 322 322 321 321 321 321 319
305 310 315 320 322 327 329 329 330 330 333 333 331 330 328 325 325 324 324 325 325 325 324 325 324 324 324 324 324 324 324 322 322 321 321 322 322 321 320 320 321 320 319
303 306 312 316 321 323 327 330 331 332 333 333 331 329 327 324 324 324 324 323 323 322 323 323 324 323 323 323 324 323 323 322 321 320 321 321 321 321 321 319 315 316 316
303 303 310 312 314 318 323 327 329 329 330 330 329 327 325 323 324 323 322 322 322 321 321 322 322 322 323 322 323 322 322 321 321 321 320 322 319 319 316 314 316 317 316
299 300 304 306 308 311 317 322 325 327 326 328 327 325 324 324 323 322 322 322 321 320 321 321 322 321 321 322 322 322 323 322 322 322 322 321 320 319 317 317 319 319 317
297 296 299 301 305 306 309 313 317 321 324 324 324 323 322 322 323 323 322 321 320 319 320 321 322 322 321 322 322 322 322 322 321 320 320 319 319 320 320 320 320 319 318
295 295 296 298 301 303 303 306 309 314 316 322 322 322 320 321 320 320 321 319 319 319 319 320 320 321 321 322 321 321 321 321 321 320 320 319 320 320 321 320 319 318 318
295 295 295 295 297 300 301 302 304 306 310 312 316 318 320 321 320 320 321 321 321 321 319 319 320 320 320 320 320 321 321 321 321 319 319 318 317 317 319 319 319 319 319
294 294 294 294 295 298 300 301 301 303 304 305 306 308 314 316 316 317 317 316 317 317 317 316 318 319 319 319 319 320 320 319 319 318 317 316 316 317 317 317 315 315 314
294 294 294 294 294 296 297 300 301 301 301 301 301 300 303 303 306 308 310 310 309 309 310 309 310 313 315 314 312 312 315 316 316 315 315 314 312 311 310 311 310 308 307
293 293 294 293 294 294 296 298 301 301 299 299 300 300 300 300 300 300 301 300 301 302 302 303 304 306 308 303 305 305 307 309 308 307 306 307 307 307 306 304 302 300 299
292 292 292 292 292 293 295 296 295 295 296 297 298 298 298 298 300 296 300 300 298 297 299 298 298 299 304 301 300 301 301 303 303 302 299 297 297 297 298 297 296 296 295
291 291 291 291 290 291 292 293 292 292 293 294 296 296 295 296 295 297 295 296 297 297 292 292 295 294 296 298 298 300 299 295 295 295 293 293 293 294 294 294 293 292 292
289 289 289 289 289 289 290 290 290 293 293 294 293 294 293 293 294 293 294 292 294 293 295 293 292 292 291 291 291 291 291 292 292 292 292 291 290 291 291 291 291 290 290
289 288 288 289 288 288 288 288 288 289 290 290 291 291 292 292 292 291 291 292 291 291 291 290 290 290 289 290 291 291 292 291 292 291 291 291 291 290 290 289 289 288 288
288 288 288 288 287 288 288 288 288 288 288 288 288 289 290 290 290 290 290 290 289 289 290 290 290 290 289 289 289 290 290 290 289 288 288 288 287 287 286 285 284 283 283
286 287 286 286 287 287 287 287 287 288 288 287 287 287 286 286 287 288 288 288 288 288 288 288 288 289 288 287 287 287 287 287 285 286 285 283 282 281 281 280 280 279 279

GFSMW_850_thetae_090.txt.gz
Theta_e
315 315 316 314 316 317 317 317 319 321 330 333 337 335 334 325 328 338 335 332 329 323 331 331 330 330 330 330 329 328 328 327 326 327 327 325 324 323 322 321 320 319 317
314 315 315 315 315 319 318 318 319 320 326 330 336 337 334 325 322 325 332 329 327 328 328 330 330 330 329 329 328 328 327 325 326 327 326 321 323 322 321 321 319 319 319
318 317 315 317 316 317 319 318 318 319 327 330 334 336 333 329 325 324 327 328 329 326 327 328 330 329 329 329 328 328 327 325 326 325 322 320 320 321 321 320 320 319 320
318 314 314 315 315 316 319 319 319 320 326 332 336 336 334 329 326 323 323 323 326 327 327 328 329 328 328 328 328 327 326 325 325 325 324 321 320 320 320 320 320 319 319
315 318 320 319 317 318 319 321 322 322 327 336 336 336 334 330 326 323 322 322 321 323 327 327 327 327 328 327 327 325 325 325 326 325 324 321 320 320 319 320 321 320 320
316 316 319 323 323 323 333 330 329 326 334 335 337 336 334 330 326 326 324 320 325 325 326 326 328 328 327 327 326 325 326 326 325 324 322 321 320 319 319 319 320 319 320
313 315 315 324 325 333 337 336 334 334 334 335 335 335 333 328 326 326 324 322 326 326 326 327 327 326 326 327 326 326 326 325 325 324 322 321 320 319 319 318 319 319 319
310 312 312 320 326 328 335 328 331 334 334 336 335 334 331 330 327 324 322 324 325 325 325 326 326 328 327 326 325 325 325 326 323 324 322 321 320 319 318 317 320 320 320
306 307 314 320 323 327 333 333 330 329 332 335 334 333 332 330 326 326 323 325 325 325 325 326 326 325 323 324 325 326 325 325 324 325 323 322 321 320 319 322 321 322 321
304 307 311 317 319 324 330 335 332 333 331 331 332 332 331 329 328 327 324 325 324 324 324 325 325 324 323 323 324 324 325 325 325 324 323 322 322 320 322 322 322 321 321
301 304 308 312 317 320 326 329 330 330 330 329 330 332 330 329 328 326 325 324 324 324 324 325 324 324 323 323 324 324 324 324 324 322 323 322 321 318 322 322 321 321 321
299 301 305 309 314 318 323 327 323 328 328 328 329 330 329 328 325 324 324 324 323 323 324 324 325 324 323 324 324 324 324 324 323 322 322 323 320 320 321 321 320 320 320
298 300 303 306 309 314 318 322 322 325 324 324 330 329 328 326 325 324 323 324 324 322 321 322 323 323 323 323 323 323 323 323 323 323 321 321 321 322 321 321 319 320 317
297 297 298 301 303 306 312 318 321 325 326 325 329 329 326 324 324 324 324 323 322 322 321 321 322 322 323 323 323 323 322 323 323 322 321 321 321 321 320 320 321 319 316
295 295 295 297 299 302 305 309 315 319 323 325 325 326 325 324 324 323 323 322 322 320 319 320 321 321 321 321 322 322 322 322 321 321 320 320 320 320 321 320 318 317 319
294 294 295 297 298 299 301 304 308 312 316 321 323 324 324 323 322 322 322 321 320 319 319 320 322 322 320 321 322 322 322 322 321 321 322 321 321 321 320 320 319 320 319
293 294 294 295 296 297 299 301 303 306 310 311 313 320 322 322 322 322 322 321 320 319 319 320 321 321 322 321 321 321 321 321 321 320 320 319 320 320 319 319 319 319 318
293 293 294 295 295 297 298 299 301 304 305 304 306 310 314 316 317 318 319 320 319 318 318 318 318 319 320 320 320 320 320 320 320 319 319 318 318 317 318 317 318 317 317
292 293 293 294 296 297 296 298 299 301 303 303 302 303 302 302 304 308 310 308 311 313 313 315 313 314 316 315 315 316 318 318 317 315 314 315 315 315 315 313 313 313 311
292 292 293 293 295 295 296 297 297 297 298 299 300 301 301 301 302 300 300 301 303 304 303 307 306 303 305 304 307 309 312 312 311 309 307 307 308 307 306 306 306 306 303
291 291 291 291 291 293 295 295 294 294 294 295 297 299 300 300 300 300 299 300 299 299 299 299 298 299 298 299 302 303 305 305 305 302 300 300 299 300 299 298 298 298 296
290 290 289 289 289 291 292 291 292 292 293 294 295 296 297 298 297 298 297 296 298 297 297 298 298 297 296 297 297 298 300 300 301 297 295 294 294 295 295 294 294 294 293
289 289 289 289 289 289 289 290 289 290 291 293 293 293 293 293 293 295 294 292 293 294 293 294 293 293 293 293 294 293 294 294 294 293 291 291 291 291 292 291 291 290 290
288 288 289 288 288 288 288 288 289 290 291 291 291 291 292 292 292 292 291 291 292 292 292 292 292 291 290 291 291 292 292 291 291 291 290 290 290 289 288 288 288 288 287
287 288 288 288 288 288 288 288 287 288 288 288 289 289 290 290 290 291 291 291 290 290 291 290 291 291 290 289 289 289 289 289 290 291 290 289 287 284 284 284 283 283 283
286 286 286 287 287 287 287 287 287 288 288 287 286 287 287 288 289 289 289 288 288 288 288 287 289 288 287 286 286 288 287 286 285 286 285 283 282 281 281 280 280 280 280

GFSMW_850_thetae_093.txt.gz
Theta_e
314 315 316 314 314 315 315 314 316 316 319 325 327 335 335 337 332 331 327 329 332 333 331 330 326 328 332 331 330 328 328 327 326 327 327 327 327 327 326 326 322 321 320
318 319 318 318 316 316 316 315 316 316 316 318 323 330 330 336 335 329 329 331 334 333 331 330 328 329 330 331 331 330 329 328 327 327 327 326 323 324 326 323 321 320 319
315 316 318 316 315 315 314 315 316 317 317 319 327 332 335 334 332 332 329 336 333 332 328 326 327 329 329 330 330 330 329 327 328 327 326 322 322 323 323 321 321 319 319
317 314 319 320 317 316 315 314 316 318 319 322 321 326 331 331 330 332 328 326 330 330 329 328 325 327 329 329 329 329 328 328 327 326 326 326 325 323 322 322 320 320 319
314 314 317 319 320 321 318 316 316 318 321 319 321 327 334 330 330 329 325 325 327 328 330 325 325 326 329 328 328 328 328 327 327 325 325 325 321 322 321 321 321 320 319
311 313 318 320 320 324 328 321 321 321 322 324 323 331 333 331 331 330 325 326 325 325 327 325 324 327 329 326 328 329 327 329 327 326 325 324 320 320 321 321 320 320 320
307 308 316 319 318 321 332 334 331 328 327 331 331 333 332 333 332 330 324 323 323 322 321 322 326 327 325 325 326 328 329 327 326 326 325 324 321 321 322 320 319 320 320
305 306 313 313 315 319 324 333 337 334 332 333 333 333 334 334 332 330 324 323 321 319 321 325 325 325 325 325 325 324 326 326 325 326 323 323 322 323 321 318 319 319 320
303 304 308 309 313 318 322 330 336 334 334 332 331 330 331 331 332 327 326 323 319 321 325 325 325 325 325 324 323 323 326 326 326 325 324 323 323 321 319 319 317 316 319
303 303 305 308 312 315 321 328 334 332 331 327 329 329 328 331 329 327 324 322 322 324 324 324 324 324 324 327 326 325 324 324 324 324 324 322 321 321 319 320 317 317 320
301 301 303 305 308 313 319 325 328 330 328 326 327 328 327 330 329 325 324 323 323 324 324 323 324 325 324 324 323 323 324 324 325 325 324 323 321 321 320 320 319 321 321
298 299 301 303 305 309 314 319 324 327 327 327 327 327 328 329 327 327 325 324 324 324 323 324 324 325 324 323 323 322 323 324 324 325 324 324 322 321 320 320 321 321 321
296 296 299 303 303 305 309 313 320 324 323 323 326 327 328 328 327 325 324 324 323 323 323 323 324 324 324 323 323 322 323 324 324 323 323 324 323 322 320 320 321 321 320
295 295 296 299 302 304 306 310 315 319 320 323 321 326 328 328 326 325 325 324 324 323 322 321 321 321 323 323 322 323 323 323 323 323 323 323 323 322 322 319 320 321 318
294 293 294 296 298 302 305 306 309 315 319 320 321 322 327 326 325 324 323 323 323 321 321 321 320 321 321 322 322 322 322 322 322 322 322 322 323 321 320 321 320 320 319
293 294 293 294 296 298 301 303 304 306 310 312 317 321 321 325 324 324 324 323 321 322 320 319 319 321 320 321 321 321 322 322 322 322 321 322 321 321 321 321 320 319 321
292 293 293 293 294 296 298 300 302 304 307 306 310 315 318 322 324 324 323 322 322 321 319 318 318 319 320 320 320 321 321 322 322 321 321 321 320 320 320 320 320 320 320
292 292 293 294 295 295 297 299 301 303 304 305 305 305 304 309 319 319 320 320 320 319 318 318 318 319 320 321 320 320 320 320 320 320 319 319 319 319 319 319 320 319 318
291 291 292 293 295 295 295 297 298 299 301 300 301 304 303 303 304 308 311 314 315 316 315 315 317 318 318 319 319 317 319 319 317 316 316 315 316 315 315 316 316 316 315
291 290 290 291 293 294 294 296 296 297 297 297 299 300 301 302 302 303 302 301 305 306 305 306 306 308 313 310 310 311 314 314 312 311 311 310 311 310 309 308 309 310 308
289 289 289 289 290 291 292 293 293 294 294 296 296 297 298 298 298 300 300 300 300 301 300 300 298 299 301 302 303 304 305 304 302 301 302 302 303 304 304 302 302 302 301
289 289 290 289 289 290 292 291 291 291 293 294 295 295 296 296 296 296 296 297 297 298 298 299 299 298 297 299 299 300 301 301 300 299 297 297 298 300 300 300 299 297 296
288 289 289 289 289 289 289 291 290 291 292 293 293 292 293 293 294 295 295 294 295 295 294 294 295 295 295 295 295 296 296 296 298 295 294 294 294 294 294 293 291 291 291
288 288 289 288 288 288 288 288 290 290 291 292 292 291 292 291 292 292 292 293 293 292 292 291 290 290 291 291 291 291 292 293 293 293 293 292 291 291 291 290 289 288 288
286 287 287 287 287 288 287 287 288 289 290 290 290 290 290 290 290 290 289 290 289 290 290 290 290 290 290 288 289 291 291 291 291 292 292 292 291 290 288 287 285 284 284
285 286 286 286 287 287 287 287 287 287 288 288 288 288 288 289 289 289 289 288 287 288 288 289 290 289 290 290 290 290 290 289 288 288 287 284 282 282 281 281 281 280 280

GFSMW_850_thetae_096.txt.gz
Theta_e
318 318 317 315 316 316 315 315 314 314 314 316 327 330 333 333 333 334 330 327 329 329 329 330 331 332 331 331 332 330 327 328 327 326 326 327 327 326 326 325 326 326 326
315 315 317 319 318 317 316 316 315 314 314 314 316 328 325 331 330 336 333 329 328 331 330 330 330 330 328 332 332 330 328 328 327 327 326 326 327 327 326 326 326 326 323
313 314 315 317 319 321 317 315 314 313 313 315 317 320 327 331 330 331 332 332 329 329 331 332 330 329 328 328 329 329 328 327 328 327 326 325 325 324 324 324 326 325 321
312 312 314 316 317 321 320 317 315 314 314 317 318 320 321 326 323 327 330 330 330 329 330 334 331 328 325 327 327 329 327 327 328 327 327 326 326 324 322 324 326 323 321
310 311 311 313 315 318 320 320 319 315 317 318 319 318 320 321 325 331 328 321 327 330 332 333 327 326 325 327 327 328 326 325 327 329 327 327 326 324 324 323 323 321 320
309 310 310 310 314 317 319 322 325 317 319 322 321 320 320 324 332 331 330 328 329 330 333 333 327 327 324 325 326 327 324 325 325 328 328 326 326 325 324 324 322 321 320
305 309 308 307 310 317 318 322 329 328 328 328 327 323 327 327 331 331 328 331 332 329 334 332 332 326 324 325 325 327 326 325 325 325 326 326 326 325 325 323 322 321 320
303 311 307 306 306 313 316 320 326 332 335 337 334 333 332 332 331 332 330 330 329 326 326 328 326 325 323 324 326 324 324 325 323 325 326 326 326 325 325 323 321 320 320
300 306 307 306 307 310 314 317 323 329 333 333 332 332 334 332 332 331 330 330 328 324 324 324 322 323 325 325 324 325 325 324 324 326 324 324 326 325 322 322 322 318 318
300 303 303 303 306 308 313 316 321 328 331 333 332 332 333 332 331 328 329 328 324 323 321 322 325 324 324 324 324 324 323 323 323 324 325 325 325 323 321 322 319 317 317
297 299 300 302 304 306 309 313 319 326 329 331 328 330 330 328 327 327 328 325 324 321 323 324 323 323 323 323 324 323 322 323 323 324 324 325 325 323 321 321 318 317 316
298 299 298 300 304 304 307 309 316 320 325 329 327 326 323 325 322 328 327 324 322 323 323 323 323 323 324 324 324 324 323 322 323 323 322 324 322 323 322 320 318 317 317
299 299 298 298 300 302 305 306 309 316 321 323 325 326 326 325 326 328 324 323 323 324 324 323 323 323 324 324 323 322 322 323 323 321 323 324 323 321 321 319 319 318 319
297 298 298 297 298 299 301 303 306 312 316 321 323 323 325 325 327 325 325 324 324 324 324 324 323 323 323 321 322 322 323 323 322 323 323 322 322 322 321 320 320 319 321
295 295 296 296 297 298 299 301 302 306 309 315 321 322 324 323 325 326 325 325 325 323 322 321 321 320 320 321 321 322 321 322 322 323 323 323 322 323 321 320 319 320 320
292 293 295 295 295 296 297 299 301 304 306 309 311 313 319 319 321 324 325 325 324 323 322 321 320 319 317 321 321 321 322 322 321 322 321 322 322 321 322 321 320 320 319
291 292 293 293 294 295 295 296 298 302 305 306 306 306 311 314 315 318 323 325 323 321 321 319 318 318 318 319 321 319 320 321 321 321 322 321 320 322 321 321 320 320 320
290 291 291 293 293 295 296 296 298 298 301 303 305 307 307 307 313 302 314 319 320 321 320 318 317 318 318 318 321 320 319 319 320 321 321 321 321 320 321 320 320 320 319
290 290 291 291 293 294 294 296 297 297 297 298 300 301 304 304 304 305 302 305 311 315 316 315 314 315 317 318 319 318 318 317 317 316 316 317 318 318 318 317 317 316 317
289 289 290 291 292 292 293 294 295 295 294 295 297 297 299 301 306 301 301 302 302 302 304 307 309 308 311 314 315 312 314 315 314 312 311 309 310 309 311 312 313 314 311
289 289 290 289 290 291 291 292 292 293 293 293 294 296 297 297 296 298 300 299 301 301 300 301 300 301 302 302 303 305 307 308 306 305 303 302 301 302 302 305 305 306 304
288 288 289 289 289 289 291 291 291 290 292 293 294 294 294 295 295 296 295 296 297 297 296 297 298 298 297 297 299 300 301 300 302 301 298 298 298 298 298 301 300 300 299
287 288 288 288 288 289 289 290 289 290 291 292 293 293 293 293 293 294 294 295 295 294 293 293 293 292 293 293 295 296 297 297 298 296 294 294 296 295 295 295 295 294 292
287 287 288 287 287 287 288 288 289 289 290 291 291 291 291 291 292 292 292 292 292 291 291 291 291 291 291 292 292 293 293 293 293 292 292 293 293 293 292 291 290 290 290
286 286 286 286 286 287 287 287 287 288 289 289 289 289 290 290 291 291 290 290 290 290 289 289 289 290 289 289 290 290 290 290 290 291 291 291 291 291 289 289 289 287 285
285 285 285 285 286 286 286 287 287 287 287 288 287 287 288 288 289 289 289 288 288 288 288 287 289 288 288 288 289 289 289 288 288 289 289 289 287 285 284 282 282 281 281

GFSMW_850_thetae_099.txt.gz
Theta_e
315 315 315 315 315 316 318 316 314 314 314 314 313 314 316 320 333 331 330 331 329 326 325 326 330 329 330 330 330 330 328 328 328 328 328 327 325 325 323 326 325 326 327
315 315 314 315 315 316 317 319 318 315 315 314 314 313 315 316 334 333 332 333 331 329 327 327 329 329 330 330 329 331 330 328 328 327 327 326 326 323 323 324 325 325 327
313 313 314 314 314 315 316 317 320 317 315 313 325 327 329 333 336 331 329 332 332 331 329 331 330 329 329 329 331 328 330 330 327 328 327 325 326 326 326 324 325 324 326
312 311 309 310 313 314 314 315 319 320 316 314 324 329 330 333 329 327 327 329 331 331 330 331 330 330 330 329 331 326 327 328 327 327 327 326 327 326 324 326 325 326 325
310 309 307 306 308 313 315 316 317 320 319 319 317 328 327 328 331 330 325 326 327 328 329 322 329 329 330 330 329 327 327 327 327 327 327 327 326 326 325 324 324 325 324
308 307 305 305 309 314 315 315 316 319 322 324 317 328 328 329 331 328 326 329 328 326 326 323 325 331 331 328 326 324 326 326 326 326 325 326 327 325 325 325 323 323 325
304 303 302 304 309 310 312 314 316 319 324 325 324 330 332 331 330 328 328 330 324 321 323 324 329 331 331 326 325 325 327 326 326 325 326 325 326 326 325 325 324 323 323
302 301 301 299 304 307 309 312 315 318 324 329 329 330 331 332 332 332 331 330 325 324 324 325 330 331 330 327 325 324 326 326 326 325 325 325 324 325 325 325 324 322 322
300 300 299 299 304 306 307 308 312 318 324 328 331 331 330 330 331 332 332 330 326 326 324 327 330 330 330 329 324 325 326 325 325 324 324 324 324 325 325 324 325 323 320
299 298 298 298 305 304 306 310 312 315 323 328 331 330 330 329 328 331 330 330 329 328 328 328 329 331 331 328 324 323 326 325 326 325 324 323 325 325 323 324 325 323 322
298 297 298 299 302 303 304 307 311 316 322 325 328 330 329 330 330 331 331 329 325 322 324 328 331 328 323 324 325 325 325 325 324 323 323 323 324 324 324 325 324 323 321
298 296 300 300 300 301 304 306 309 313 314 324 325 327 329 329 329 328 328 325 320 322 326 324 323 323 323 323 324 324 324 324 324 324 323 324 323 325 324 324 324 322 321
296 296 299 298 298 298 300 303 305 309 313 322 325 327 327 325 326 324 324 325 325 324 323 324 323 323 322 322 323 324 324 323 323 322 322 323 323 323 323 323 323 322 319
294 294 297 296 297 296 298 300 302 306 310 314 320 322 325 325 325 326 325 325 324 323 325 323 322 322 322 324 323 323 322 322 323 322 323 321 321 321 323 321 322 321 320
293 293 294 294 295 296 297 300 301 304 305 310 313 317 319 321 324 325 326 325 323 324 324 322 322 323 323 322 324 323 322 322 322 322 322 322 322 322 323 322 321 321 319
292 291 292 293 294 295 296 297 298 299 301 304 308 309 314 316 318 323 321 323 325 325 322 323 324 321 320 320 320 321 320 322 322 321 321 321 321 322 321 320 321 320 319
291 290 291 291 293 294 295 296 296 298 299 301 303 305 305 308 310 314 319 320 316 324 323 321 321 319 318 318 320 320 320 320 321 321 321 321 321 321 320 320 321 319 319
289 290 291 291 292 293 295 295 296 296 297 298 298 300 302 303 305 306 304 306 307 314 320 319 318 318 317 318 319 319 319 320 320 320 321 320 320 320 320 319 319 319 319
289 289 290 290 291 292 293 294 295 295 295 296 297 298 298 300 303 305 304 304 301 301 312 314 314 315 315 317 317 315 318 318 318 318 318 317 318 318 317 320 319 319 319
289 289 289 289 291 291 292 293 293 293 293 293 294 296 298 299 299 300 301 301 302 301 300 304 307 308 309 308 308 310 313 315 315 313 313 313 313 314 315 314 315 315 314
288 289 289 289 288 289 291 291 291 291 291 292 293 294 295 296 297 298 298 299 300 301 301 300 301 301 301 301 302 304 307 308 309 306 305 305 304 306 306 307 307 308 305
288 288 288 288 288 288 289 289 289 289 290 291 292 293 294 294 294 295 296 296 296 296 296 296 297 298 297 298 298 299 301 300 302 301 298 297 299 300 301 301 301 300 299
287 287 288 288 288 288 288 288 288 289 290 291 291 291 291 292 293 292 293 293 294 293 293 294 293 292 292 293 293 295 296 297 297 295 295 296 296 296 297 297 295 295 293
287 287 288 287 287 287 288 287 287 288 289 290 290 290 290 290 290 291 291 290 290 291 291 290 290 290 290 291 292 292 293 293 293 292 292 293 293 294 294 292 292 292 292
285 286 286 286 287 287 287 287 287 287 287 288 288 289 289 290 289 289 288 287 288 289 289 289 290 290 289 289 290 290 291 291 291 292 291 291 291 291 290 290 289 289 286
284 285 285 285 285 286 286 287 286 287 287 287 287 287 287 287 287 287 287 287 287 287 288 288 288 288 288 288 288 288 288 289 289 290 290 290 289 289 288 287 285 283 283

GFSMW_850_thetae_102.txt.gz
Theta_e
318 317 317 317 317 317 316 316 315 316 317 316 318 327 332 327 316 330 334 333 332 328 326 326 325 327 329 329 329 330 332 333 331 328 328 330 328 328 324 322 323 324 328
317 317 316 316 316 315 315 315 315 316 317 318 319 323 330 331 331 332 334 327 334 329 329 329 325 327 329 330 331 330 330 332 329 328 328 329 328 328 326 324 324 324 326
316 315 314 314 313 313 313 312 313 313 317 317 318 319 328 331 333 331 328 318 333 331 330 330 327 329 330 331 331 330 331 329 329 328 328 326 327 327 325 324 323 324 322
315 314 313 312 311 311 310 314 315 315 317 317 316 320 323 330 331 330 324 322 329 334 332 331 330 329 331 331 331 331 329 330 329 329 329 327 327 326 325 324 323 323 323
313 312 310 309 308 308 311 314 315 316 316 317 317 317 322 330 331 332 332 336 331 331 332 330 325 329 328 329 330 330 329 327 328 328 329 328 327 327 326 325 325 324 324
311 310 309 308 307 307 307 311 315 316 316 318 319 320 321 327 332 332 332 333 335 332 330 331 331 330 327 323 325 327 329 327 326 327 328 327 327 327 326 326 325 326 326
310 309 307 306 306 305 306 311 314 314 316 318 320 323 323 325 333 332 333 332 336 330 330 328 330 329 327 321 322 325 330 328 326 327 327 326 327 326 326 326 326 324 324
308 307 305 304 304 303 302 310 314 314 317 318 322 325 326 327 332 331 332 331 334 336 333 329 326 329 322 323 323 328 331 327 324 326 325 325 326 325 325 325 326 325 324
306 305 304 303 302 302 305 307 311 312 313 318 323 328 330 333 332 330 329 331 332 333 329 329 327 323 323 323 327 329 329 326 326 326 326 326 325 325 326 325 325 325 323
305 303 302 301 301 300 304 307 309 308 313 318 323 330 330 330 330 330 331 330 330 330 328 325 323 323 325 328 329 329 327 325 327 326 326 325 325 325 324 325 324 325 325
303 301 301 300 299 299 302 305 309 310 313 316 323 326 326 327 328 329 329 330 330 330 328 323 326 327 329 328 329 329 328 324 324 326 325 324 324 324 323 324 325 324 323
301 300 300 299 298 298 301 304 305 308 309 311 316 323 325 326 328 329 328 329 329 329 327 326 323 322 327 329 328 328 326 324 325 325 325 325 324 324 324 324 325 324 323
300 299 299 298 297 296 298 304 304 305 306 308 314 319 323 324 325 326 326 329 327 327 323 322 322 321 326 325 324 324 325 325 325 324 324 324 324 324 323 324 324 324 324
298 297 297 297 296 295 295 300 302 301 302 302 309 314 320 323 325 325 324 326 324 321 323 322 320 323 323 324 325 324 324 324 324 324 324 323 323 323 323 322 323 322 323
296 295 295 295 295 294 296 297 299 299 298 302 309 311 315 320 318 324 324 324 325 325 324 323 324 323 323 323 323 323 323 323 323 322 323 323 322 323 322 322 321 322 322
294 294 293 293 292 292 295 296 296 297 298 300 300 302 308 311 315 316 322 323 324 324 324 325 322 322 322 323 323 323 322 321 321 322 322 322 321 321 322 321 322 322 320
292 291 291 290 290 293 293 294 295 295 297 298 299 300 302 303 307 309 312 309 316 317 320 324 322 322 322 323 322 320 320 320 321 322 322 322 321 320 320 322 320 320 319
289 289 288 289 291 292 293 293 294 295 295 296 297 299 300 302 303 303 304 304 305 308 308 315 321 321 321 319 319 320 319 319 319 320 321 320 320 320 320 320 319 319 319
288 288 288 288 290 291 292 292 293 293 294 294 294 295 297 298 299 301 301 302 302 302 302 304 304 316 316 316 317 318 318 318 318 318 319 319 319 319 318 318 319 319 318
288 288 287 288 290 290 291 291 292 292 292 292 293 294 295 295 296 296 297 298 301 302 301 301 297 305 307 310 313 311 313 313 312 313 314 314 314 315 313 313 315 317 317
287 287 287 287 288 288 290 290 290 290 290 292 293 293 293 293 293 294 295 295 296 299 300 300 299 299 300 301 303 305 306 306 305 305 306 307 307 309 310 310 311 312 311
286 286 286 285 285 286 287 288 289 290 290 291 291 291 292 292 292 292 292 293 294 294 295 295 295 295 295 295 298 299 301 300 301 299 298 299 301 303 304 305 305 305 303
285 286 286 286 285 286 286 285 286 288 289 291 291 290 291 292 291 292 292 291 291 291 291 291 291 291 292 292 293 294 295 296 297 296 296 296 297 298 298 298 297 297 298
283 284 285 284 284 284 284 284 285 286 286 287 288 289 290 290 291 291 291 291 291 290 289 289 289 289 290 290 292 292 292 293 293 292 292 292 294 295 294 293 293 293 293
284 283 282 282 282 283 283 283 284 285 286 285 285 285 285 285 286 288 288 288 288 290 290 289 289 289 289 288 290 290 290 291 291 291 291 291 291 290 290 290 289 289 289
284 284 283 283 282 282 282 282 282 283 284 284 284 284 284 284 284 284 283 285 286 287 288 288 288 288 287 287 287 288 289 289 289 289 289 289 289 288 288 288 287 287 288

GFSMW_850_thetae_105.txt.gz
Theta_e
319 318 319 319 319 319 319 319 319 319 319 320 322 322 321 325 331 334 335 338 340 339 337 335 335 327 326 331 330 336 337 333 333 333 332 333 330 329 330 329 327 324 323
318 318 318 317 317 317 317 317 317 317 317 318 319 321 322 322 327 331 333 335 338 339 337 336 335 327 326 331 330 337 333 334 333 331 329 330 329 330 329 328 327 323 323
318 317 317 316 316 315 314 314 314 315 316 316 317 318 321 321 323 332 333 333 336 336 332 331 335 328 327 328 327 333 329 331 330 331 330 327 328 328 328 328 327 324 324
317 316 315 315 314 313 312 312 311 313 313 313 314 315 318 322 320 324 332 333 333 336 337 334 336 332 329 328 326 329 333 331 328 330 331 330 330 329 327 327 327 324 324
316 315 314 313 312 312 311 310 309 309 310 309 314 315 315 318 323 323 330 330 333 333 337 335 335 331 332 328 330 333 332 331 329 328 328 329 329 329 329 327 325 325 323
315 314 312 311 311 310 309 308 307 307 307 314 316 316 317 317 321 323 329 332 333 332 332 334 335 333 331 329 328 322 329 330 329 328 328 328 329 329 329 328 327 325 324
313 312 310 309 308 308 307 306 304 305 310 314 315 315 315 318 318 322 327 332 332 332 331 332 334 332 331 327 320 320 327 331 331 328 328 325 327 328 328 327 327 326 325
311 310 309 308 306 306 305 303 302 308 310 312 316 316 318 320 321 321 325 331 333 331 331 332 331 331 331 327 323 321 331 330 330 329 329 326 326 327 327 327 327 326 325
310 309 307 306 305 304 303 301 301 304 310 311 316 317 322 323 325 326 327 331 333 332 331 333 332 333 334 332 329 329 328 327 329 330 328 325 326 326 326 326 326 326 325
308 307 306 305 304 303 302 300 299 303 308 311 314 318 325 328 330 329 329 332 331 332 331 331 331 332 330 327 328 326 327 330 330 330 328 326 327 327 326 326 325 326 325
306 306 305 304 303 302 301 299 298 302 307 312 314 319 324 327 328 328 329 331 331 331 332 332 332 330 328 327 322 321 322 328 331 329 326 324 326 326 326 325 325 325 325
304 304 304 303 302 300 299 298 298 301 303 306 312 316 318 322 326 327 329 329 330 329 331 330 329 329 328 324 322 323 322 324 329 328 325 326 328 326 325 325 324 324 324
302 302 302 301 300 298 298 297 298 301 302 305 308 314 313 317 322 326 328 328 328 329 330 329 328 326 325 325 323 322 318 324 327 327 324 324 327 325 325 325 324 324 324
301 300 299 299 298 297 296 295 294 298 301 303 304 311 310 310 317 319 322 327 328 328 327 328 328 326 325 325 323 324 327 327 325 325 325 325 325 324 324 324 324 324 324
298 297 297 296 295 295 294 294 292 295 298 300 301 302 302 306 310 316 317 323 325 325 325 325 326 325 327 324 321 323 323 324 325 325 325 325 325 324 324 324 323 323 323
296 295 294 294 293 292 292 292 291 293 296 298 299 299 301 304 308 308 313 319 316 322 323 323 324 326 324 324 322 323 327 325 324 323 322 323 323 322 323 322 322 322 322
293 292 292 291 290 290 291 290 290 292 295 297 297 297 299 300 302 302 306 312 310 315 319 320 322 323 324 324 324 323 323 323 323 322 322 322 321 322 322 321 321 322 322
290 289 290 289 290 290 289 289 289 292 294 295 295 295 296 297 298 299 300 301 302 303 305 306 310 313 322 323 323 323 322 322 321 320 320 320 321 321 321 320 319 321 321
289 289 288 288 289 289 288 288 290 292 293 292 293 292 294 294 296 296 297 299 300 300 300 301 301 297 309 313 318 320 319 320 319 318 318 319 319 319 319 319 319 319 320
288 288 288 288 288 288 289 290 290 291 291 291 291 291 292 292 292 293 294 295 296 295 297 299 300 298 301 300 303 313 316 316 315 315 314 316 314 315 315 315 316 317 318
288 288 288 287 287 288 288 289 289 289 289 290 291 292 291 291 291 291 292 292 292 294 295 295 296 297 299 299 300 301 305 306 307 307 307 306 307 309 308 309 310 311 313
287 287 287 287 287 287 288 288 288 288 289 290 290 291 292 291 291 292 291 292 292 291 291 291 291 292 295 295 294 297 298 298 300 300 299 299 301 303 305 305 306 306 307
287 288 287 287 286 286 286 287 288 288 288 288 288 288 289 290 291 291 292 292 290 291 290 290 290 290 290 290 292 293 295 295 295 293 294 296 296 297 299 298 297 297 299
285 286 286 286 285 285 285 286 287 288 287 287 287 287 286 287 288 289 289 290 290 289 289 290 290 290 290 290 290 291 291 291 292 288 290 292 293 294 293 294 293 293 294
283 283 284 284 284 283 283 284 284 285 286 286 285 286 286 286 286 286 285 285 285 287 288 287 288 288 289 288 289 290 291 291 290 290 289 290 290 290 290 289 290 290 289
282 282 281 281 281 281 281 282 282 284 284 285 285 284 285 285 285 284 285 284 282 282 284 285 285 283 282 283 285 288 289 289 289 289 289 288 288 287 287 287 286 287 287

GFSMW_850_thetae_108.txt.gz
Theta_e
320 320 320 320 320 319 319 318 317 317 317 318 319 320 322 323 323 328 333 340 339 338 339 339 337 339 339 331 333 333 332 334 335 334 333 333 332 331 331 332 329 330 329
320 319 319 318 318 317 316 315 315 314 316 317 318 318 318 319 323 323 330 335 333 336 336 339 337 337 337 335 331 328 330 334 331 332 331 331 330 330 331 329 329 331 328
319 318 317 317 316 315 314 314 313 313 314 315 316 316 317 317 318 318 323 332 335 332 336 337 337 338 332 327 334 332 329 328 332 331 331 329 328 327 328 329 329 328 327
318 317 316 315 314 313 312 312 311 311 312 313 314 314 314 314 317 321 324 321 334 335 332 330 333 337 332 333 329 333 333 329 331 330 330 329 329 328 327 327 328 327 327
317 316 314 313 312 311 311 310 309 310 312 313 314 315 315 315 316 317 320 323 326 334 331 332 332 334 332 330 322 332 332 332 329 332 331 329 329 330 329 326 326 326 327
316 314 312 311 310 309 308 307 308 310 310 310 313 313 315 317 317 317 318 319 323 325 333 328 330 334 334 332 331 327 327 333 328 327 329 329 327 330 329 328 328 326 326
313 312 310 309 308 307 306 305 306 307 305 308 311 312 313 313 315 317 317 320 320 324 328 327 329 333 333 331 330 328 331 329 326 322 320 323 329 328 328 328 327 327 325
311 310 309 308 307 305 304 303 303 304 304 307 309 312 312 311 313 317 319 320 321 322 323 323 329 330 331 333 331 331 331 325 321 320 320 329 326 328 329 327 328 327 326
308 308 307 306 305 304 303 301 301 302 303 305 306 311 313 313 315 319 320 323 323 321 329 331 331 331 329 329 332 330 329 327 319 320 321 327 329 328 327 327 327 327 326
306 306 306 305 304 302 301 300 298 300 302 304 305 308 312 314 316 322 324 328 325 327 329 330 332 331 330 329 331 329 328 324 327 327 329 328 329 329 327 326 327 327 326
305 305 304 304 302 300 299 298 297 300 301 302 304 307 310 316 316 321 324 328 328 327 329 331 331 331 330 330 331 330 331 330 328 329 327 326 329 328 326 327 326 326 326
303 303 303 302 300 298 297 296 296 298 299 300 302 305 308 312 315 319 322 324 326 325 328 330 329 331 331 330 329 330 330 328 327 324 327 322 328 328 326 325 326 326 325
302 301 300 299 298 297 296 295 294 296 298 300 301 302 306 310 312 316 320 322 324 322 326 326 327 327 327 329 328 329 326 324 321 320 319 327 327 325 324 326 327 325 325
299 298 297 296 295 295 294 294 293 295 296 298 299 300 302 305 307 311 315 316 321 324 327 327 327 323 327 328 328 327 322 322 322 321 321 322 327 324 324 325 325 324 325
298 296 295 294 293 292 292 292 292 294 295 296 296 297 300 302 304 305 307 311 316 318 321 327 326 327 327 327 326 326 325 323 322 321 320 326 324 324 326 324 324 324 323
295 294 293 292 291 290 291 291 291 292 293 294 294 296 298 300 301 301 303 305 310 315 310 318 325 323 326 326 325 325 324 325 322 322 323 323 324 324 324 325 324 323 323
292 291 291 290 289 289 290 289 289 291 292 292 293 295 295 297 297 298 300 300 302 304 310 308 314 320 321 324 325 325 325 326 324 323 322 324 323 322 322 321 321 322 322
290 289 289 289 289 289 290 290 290 291 291 291 292 293 294 294 295 296 296 297 297 299 301 303 302 304 307 318 321 324 324 323 324 322 322 322 322 322 321 321 321 322 321
289 288 288 288 288 289 289 289 290 290 290 291 291 292 292 292 292 292 292 292 294 295 296 298 300 301 301 303 305 312 318 320 319 320 319 320 319 319 319 320 320 319 318
289 288 288 288 288 288 288 288 289 289 290 290 291 291 291 291 291 290 291 291 292 292 294 295 295 297 299 300 299 301 302 309 309 311 315 316 317 317 317 318 318 317 315
289 288 288 288 287 288 288 289 288 288 288 289 290 290 291 291 291 292 292 291 290 291 292 293 294 293 293 295 297 298 300 299 299 300 305 308 309 311 309 311 312 311 312
288 288 287 287 287 287 287 288 289 288 288 288 289 288 289 290 290 291 291 291 291 291 291 291 292 292 292 292 292 294 295 296 297 296 295 298 299 301 301 303 304 305 306
287 287 287 286 285 285 285 286 287 287 287 287 287 287 288 288 288 289 289 290 290 290 289 290 290 290 290 290 291 292 292 293 292 291 292 292 295 295 296 295 295 297 299
285 286 285 284 283 284 284 285 285 286 286 286 286 286 285 285 285 285 285 285 285 286 286 286 286 288 289 289 288 289 290 290 290 290 290 291 292 293 292 293 293 293 294
284 284 283 283 282 282 283 283 284 284 285 285 285 285 285 285 284 284 284 283 282 280 282 282 283 283 283 284 286 288 288 289 289 289 290 290 290 290 290 290 290 289 288
282 282 283 282 281 281 282 283 282 283 283 284 284 283 283 283 283 283 283 283 283 282 280 279 279 280 280 281 282 284 286 288 288 289 288 287 287 287 286 287 287 286 287

GFSMW_850_thetae_111.txt.gz
Theta_e
320 320 320 320 320 320 319 317 316 315 314 315 316 316 315 315 315 317 329 335 336 335 335 338 339 338 336 340 340 338 338 337 336 337 336 334 333 332 333 332 331 330 330
320 319 319 318 317 316 315 314 313 313 313 314 315 315 316 317 316 315 318 320 327 333 336 335 336 338 338 333 335 336 334 338 335 336 335 333 334 332 331 329 329 329 330
318 317 316 315 315 314 314 313 312 311 311 312 314 315 316 316 317 317 317 316 322 330 331 333 334 335 337 337 334 336 334 336 335 331 332 331 330 330 329 329 327 329 329
316 315 314 313 312 312 312 311 310 310 311 312 314 315 316 317 317 317 318 318 317 320 324 325 331 331 333 333 332 332 331 325 322 330 331 330 327 327 326 328 327 327 328
314 312 312 311 311 311 309 308 308 309 311 312 313 314 315 316 317 317 317 318 318 318 320 323 329 332 330 328 329 331 330 324 324 322 322 329 328 328 326 326 327 327 327
311 310 310 310 308 307 306 305 306 308 310 311 312 312 313 315 317 318 317 317 318 319 318 320 324 330 330 328 325 327 330 323 322 322 329 328 328 330 327 328 327 326 325
309 308 308 307 306 305 304 304 305 306 308 310 311 310 312 314 315 317 318 317 317 319 320 319 321 327 330 328 328 325 327 328 326 324 327 328 326 328 327 328 328 326 325
307 307 306 305 304 303 302 302 303 304 305 307 309 309 310 313 314 315 316 315 317 319 322 321 319 323 324 322 322 325 326 328 327 327 325 327 326 324 326 325 329 327 327
306 305 304 304 303 301 301 300 300 302 303 306 307 308 309 310 313 314 314 314 318 320 324 323 320 321 322 320 322 327 326 328 328 326 323 326 323 321 326 327 326 326 326
304 304 302 302 301 299 298 299 299 300 300 303 306 306 307 308 309 312 314 315 319 321 323 324 321 323 323 323 326 326 327 329 328 324 320 324 322 322 324 326 327 326 327
302 301 300 299 298 297 296 295 297 298 299 301 303 305 306 307 308 310 312 314 317 319 324 326 327 324 324 325 325 326 328 328 328 327 320 320 320 322 323 323 326 326 327
300 298 297 297 295 295 294 294 294 296 298 299 301 302 302 303 306 306 310 313 316 319 321 325 326 326 325 324 325 326 328 327 328 327 326 324 325 325 326 325 326 325 324
297 296 295 294 294 293 293 293 294 296 297 298 299 300 300 301 302 304 308 310 313 318 321 322 321 323 325 325 326 330 329 328 328 328 325 320 324 322 325 325 325 325 325
295 294 293 292 292 292 292 292 293 295 296 297 297 297 298 298 299 302 304 307 309 314 319 321 323 321 323 325 326 327 328 329 329 326 325 321 320 319 324 324 324 324 324
294 293 292 291 290 290 291 291 292 294 294 295 295 295 294 295 297 299 301 303 305 307 310 313 315 319 323 321 320 324 326 326 327 326 320 321 321 320 324 325 324 323 322
292 291 291 289 289 289 290 291 292 292 293 293 293 293 293 293 294 296 298 300 301 301 303 306 311 315 316 322 321 320 326 326 325 323 322 324 325 322 324 322 323 323 323
290 289 289 289 288 289 289 290 291 291 292 292 292 292 292 292 292 293 295 295 296 297 299 300 303 306 312 317 320 323 324 325 323 322 322 320 325 324 324 324 323 323 322
289 288 288 288 289 289 289 290 291 290 291 291 291 291 292 293 292 293 293 293 292 293 296 296 298 301 302 305 315 309 321 317 320 320 321 320 321 323 323 323 322 321 321
289 288 288 288 289 289 289 289 289 289 289 290 291 291 292 293 293 292 292 291 292 292 293 293 294 296 297 300 303 304 306 298 309 309 316 319 319 320 321 321 320 320 319
288 288 288 288 289 289 289 288 288 288 288 288 289 290 291 291 292 292 292 291 291 291 292 292 291 293 294 296 298 301 301 301 299 296 300 305 312 316 318 318 318 318 316
288 288 287 287 287 288 288 288 287 287 287 287 288 289 289 289 290 290 290 291 291 292 292 292 291 290 290 291 294 296 298 298 299 297 296 296 298 302 307 314 313 312 311
288 287 286 286 286 287 287 287 287 286 287 286 286 286 286 286 287 287 288 288 287 287 289 291 291 290 289 289 290 290 292 294 295 295 293 293 293 294 300 302 304 304 305
286 285 285 285 285 285 286 286 286 286 285 286 285 285 285 285 285 284 284 284 284 285 284 284 284 287 289 289 289 289 290 290 290 290 291 292 293 293 295 295 296 297 299
285 285 284 284 284 284 285 285 285 285 285 284 284 284 284 284 284 283 283 283 282 281 281 281 282 282 283 284 286 288 289 289 289 289 290 290 291 292 292 293 292 293 293
284 284 283 281 281 283 283 283 284 283 284 283 283 283 283 283 282 282 282 281 281 280 280 280 279 280 281 281 281 282 286 287 288 289 290 290 290 289 289 289 290 289 290
284 282 281 281 281 282 282 282 282 281 281 282 282 281 282 282 282 281 281 281 281 280 279 279 280 279 279 280 280 280 281 282 285 288 287 286 286 286 285 285 286 286 287

GFSMW_850_thetae_114.txt.gz
Theta_e
318 318 319 319 319 319 319 318 315 313 313 313 313 313 313 314 314 315 319 327 333 335 336 336 337 338 337 336 336 335 337 339 338 337 336 339 337 336 333 331 331 333 333
316 317 317 318 317 315 314 313 312 312 312 312 312 312 313 313 314 315 314 314 318 325 330 331 334 335 336 336 335 334 334 333 333 335 336 336 336 335 332 331 332 331 330
317 314 315 315 314 313 312 312 311 311 311 311 312 313 313 314 315 316 316 316 316 315 319 324 328 328 333 334 335 334 333 332 331 332 334 332 332 333 332 331 330 329 328
312 313 312 312 311 310 310 309 309 310 310 311 312 313 314 314 314 315 316 317 317 317 317 316 321 325 325 329 332 333 330 330 333 331 325 324 327 329 328 332 331 329 329
310 308 309 310 307 306 305 305 306 306 307 309 310 311 312 313 314 314 316 317 318 318 318 318 317 318 322 324 331 331 332 330 332 331 327 326 322 326 325 326 327 330 329
307 307 306 306 305 304 304 304 305 306 307 308 309 310 311 311 313 314 316 318 318 319 318 319 319 318 318 320 326 331 331 330 328 330 330 328 324 327 323 326 325 325 326
304 304 304 303 303 303 304 304 305 306 306 307 308 309 309 309 311 313 315 316 317 319 320 320 321 321 319 318 323 328 330 330 329 326 325 326 325 323 322 327 326 325 325
303 302 302 301 300 301 302 303 303 305 305 306 306 307 308 309 309 310 312 314 315 317 319 320 320 322 323 319 320 325 328 330 328 324 323 325 324 324 323 323 328 326 326
301 300 300 300 300 300 299 299 302 303 304 304 305 306 307 308 308 309 309 312 315 316 317 319 320 322 322 322 319 324 324 327 325 319 320 325 324 323 323 326 326 326 324
299 299 298 298 298 297 298 298 298 299 299 301 302 303 305 305 307 307 308 309 313 315 316 317 319 321 323 324 320 322 321 321 322 320 323 326 325 325 325 326 324 325 326
297 296 296 296 295 295 295 296 298 299 300 300 301 302 302 302 304 306 307 308 311 313 315 315 317 319 321 327 321 323 322 320 322 323 323 324 324 326 324 324 323 323 326
297 296 295 295 294 293 294 295 296 298 298 300 299 298 299 301 302 303 305 306 308 310 311 314 316 320 321 326 326 323 323 323 323 325 324 325 325 325 325 324 322 321 325
294 293 292 292 292 292 292 293 295 296 297 297 297 297 297 298 299 300 302 304 305 306 308 311 314 317 321 322 324 325 324 321 323 324 325 325 324 323 324 323 321 322 323
293 292 291 290 290 290 291 292 293 294 295 295 295 296 295 295 296 297 299 300 301 302 305 307 309 312 315 320 322 323 323 323 324 324 326 327 325 321 320 321 321 320 320
292 291 289 289 289 288 290 291 292 292 293 294 294 294 294 294 295 295 295 296 298 298 300 302 304 309 310 313 321 321 320 318 317 326 328 326 324 318 323 322 320 322 324
291 290 288 288 289 288 290 291 291 292 292 293 293 293 294 294 294 294 294 294 296 297 296 298 299 302 306 308 315 317 319 319 321 326 327 325 324 322 321 322 322 322 324
289 288 288 288 288 288 289 290 291 291 292 292 292 292 293 293 294 294 293 292 293 294 293 294 294 295 298 302 307 310 318 319 319 323 324 323 322 321 322 321 323 325 324
288 288 288 288 288 288 289 289 290 291 291 292 292 292 292 292 293 294 294 293 292 292 291 292 292 292 294 298 301 303 306 310 314 313 314 319 321 322 322 321 323 321 323
288 288 288 288 288 288 288 288 289 290 290 289 288 289 289 290 290 291 291 292 292 292 291 291 292 291 290 293 298 301 301 302 302 302 301 309 313 320 317 320 321 324 321
287 287 288 288 288 288 288 287 288 287 287 286 286 286 286 286 287 287 286 289 290 290 290 291 290 290 290 291 293 296 298 300 299 301 301 301 301 307 309 311 314 317 321
287 287 287 288 288 288 287 286 286 287 286 286 286 286 285 285 284 284 286 286 286 285 286 288 289 289 289 289 290 293 294 294 294 295 297 298 299 300 301 301 304 308 310
286 286 287 287 287 286 286 286 285 285 285 286 285 285 285 284 284 284 284 284 284 284 284 284 284 283 286 288 288 288 290 292 293 292 292 293 294 298 299 299 296 300 299
286 286 285 285 285 286 286 286 285 284 284 284 284 284 283 283 283 283 284 284 282 282 282 281 282 282 282 283 285 288 288 289 290 290 291 292 293 294 295 295 294 296 296
285 284 283 284 284 284 284 285 284 283 283 283 283 282 282 282 281 281 281 280 280 279 280 281 280 280 280 281 281 282 285 287 288 289 289 290 291 291 291 292 292 292 293
284 282 282 283 283 282 282 282 282 282 282 282 282 281 281 281 281 281 280 280 279 278 279 279 279 279 279 279 279 280 281 282 284 287 288 289 289 288 288 288 289 289 289
282 282 282 282 282 282 282 282 281 281 282 282 281 281 281 281 281 280 280 279 279 278 277 278 278 277 277 277 278 279 280 280 281 282 282 283 283 283 284 285 285 286 286

GFSMW_850_thetae_117.txt.gz
Theta_e
317 318 318 317 316 315 316 317 316 315 313 312 312 312 312 312 313 313 314 315 319 326 330 332 333 334 334 336 336 335 331 328 334 331 326 331 333 331 333 334 335 335 335
316 314 314 314 313 312 312 312 312 312 311 311 311 312 312 312 312 312 313 314 314 314 315 321 328 330 331 334 334 336 337 336 335 333 332 333 329 326 330 333 333 333 332
313 312 311 311 310 309 309 310 310 311 311 311 311 311 311 312 313 313 313 314 315 316 316 315 315 318 324 326 329 335 337 335 335 335 333 331 331 330 327 329 328 330 330
308 306 305 306 306 303 305 306 306 306 306 306 306 306 306 309 310 311 312 313 314 316 317 317 317 316 315 317 322 326 330 333 334 333 333 332 330 329 329 327 328 324 330
305 303 303 302 303 303 302 304 305 306 306 306 306 306 307 308 309 311 312 313 313 316 317 318 318 318 318 317 316 318 323 328 330 332 331 332 331 329 324 323 322 324 327
302 301 300 302 302 303 302 303 304 305 305 306 306 307 308 309 310 311 311 312 313 313 316 318 319 319 319 319 318 317 318 322 327 329 330 330 330 327 323 323 324 322 323
300 299 298 298 299 301 302 301 303 303 304 305 306 307 308 308 309 310 311 311 312 313 314 316 317 319 317 318 320 320 317 319 327 329 329 329 328 328 328 326 325 323 324
298 300 298 296 297 296 297 299 300 302 303 304 304 305 305 306 307 309 309 310 310 311 313 314 315 316 318 318 319 322 321 318 325 328 327 328 328 327 327 325 325 324 324
301 300 300 299 296 297 297 299 299 300 302 302 302 302 303 304 305 306 307 308 308 310 311 313 314 315 314 317 317 319 322 320 321 324 327 327 325 325 326 324 326 325 324
298 298 298 298 298 298 298 299 298 299 300 300 300 300 300 301 302 303 305 307 307 308 310 312 313 314 315 316 317 319 322 323 320 324 325 324 324 324 324 324 325 325 324
295 296 295 294 294 294 295 295 296 297 298 298 298 298 299 299 300 301 302 304 305 306 308 309 311 311 313 315 318 320 322 323 320 323 324 322 323 320 320 321 322 325 324
294 294 293 292 291 292 294 294 296 296 296 296 297 298 298 297 298 299 300 302 302 303 303 306 308 311 312 313 316 320 322 323 321 322 323 321 322 322 321 320 321 324 324
293 292 291 290 290 291 292 293 294 294 295 295 295 296 296 296 296 296 297 298 300 300 300 302 304 308 311 312 314 317 322 324 325 323 323 322 321 323 324 324 324 324 324
292 291 289 290 291 292 293 293 293 293 294 295 295 295 294 294 295 295 295 296 297 297 298 299 300 302 305 308 312 316 318 322 324 325 325 322 323 324 323 323 325 325 324
291 290 289 289 289 288 289 291 292 293 293 294 294 294 294 294 294 294 294 295 296 296 296 296 296 297 299 300 306 311 314 318 319 320 321 322 321 323 322 325 324 324 324
290 289 288 288 288 288 289 290 291 292 292 293 293 292 293 294 293 294 294 294 295 295 296 296 294 294 295 297 300 305 305 308 313 318 318 317 319 319 322 324 323 320 322
288 288 288 288 288 287 289 289 289 290 291 291 291 291 292 292 292 293 293 294 294 294 295 295 295 293 293 295 298 300 299 300 302 308 310 314 317 319 322 320 320 321 321
288 288 288 288 288 288 288 288 288 289 289 288 288 288 289 289 289 291 291 291 291 292 293 294 294 294 294 295 295 297 296 297 297 301 302 304 309 312 318 319 321 322 322
288 287 288 288 288 288 288 287 288 288 288 287 286 286 285 287 287 286 285 285 287 288 289 291 292 292 292 293 294 296 296 295 294 296 299 302 303 301 312 312 320 320 320
287 287 288 288 288 287 288 287 287 286 286 285 285 284 285 284 284 284 284 284 285 285 285 285 285 286 288 291 291 291 292 294 294 294 294 295 298 302 303 303 309 307 312
286 287 287 288 287 287 286 286 286 285 285 284 284 284 284 284 284 284 284 284 284 284 284 285 285 284 284 285 287 289 289 290 290 290 291 292 293 295 298 298 303 301 301
286 286 286 287 286 286 286 285 284 284 284 284 284 283 283 282 282 282 282 282 283 283 283 284 284 284 283 282 283 285 287 287 289 289 289 290 292 293 294 295 295 298 299
286 285 285 285 285 286 285 285 283 283 283 283 282 282 282 282 282 281 281 281 281 281 281 280 280 280 281 282 282 282 283 285 287 286 288 290 291 291 292 292 292 293 294
284 283 284 284 284 283 283 283 282 282 282 282 282 281 281 281 280 280 279 279 279 279 279 279 278 278 278 278 279 281 281 282 282 285 287 287 287 288 289 289 289 289 288
283 282 283 283 282 281 281 282 282 282 282 281 281 281 280 280 280 279 279 278 277 277 277 277 276 276 276 276 276 277 279 280 280 281 283 284 285 286 286 286 286 286 287
282 283 282 282 282 282 282 281 281 281 281 281 280 280 280 279 279 279 278 277 277 276 276 275 275 275 275 275 276 277 277 278 279 280 280 279 279 279 280 282 283 283 284

GFSMW_850_thetae_120.txt.gz
Theta_e
313 314 314 314 314 314 314 314 315 315 314 314 313 313 313 312 312 312 313 313 314 315 317 322 326 327 328 329 332 333 334 334 332 330 326 329 327 326 329 331 330 331 331
311 310 309 309 310 309 309 310 310 311 310 311 311 311 311 311 311 311 312 312 313 313 314 314 314 315 318 324 327 331 334 334 336 329 332 327 326 324 324 327 324 329 329
306 306 305 303 303 304 305 305 306 308 308 309 310 310 310 311 311 311 311 312 312 313 313 314 315 315 314 314 316 323 326 331 331 333 334 332 331 330 330 330 323 327 327
302 301 302 301 301 301 302 303 304 305 304 305 306 307 306 306 306 306 306 309 311 312 313 315 316 317 316 316 316 315 317 323 329 330 331 334 332 331 330 330 329 325 323
300 299 299 299 299 299 301 302 303 306 304 304 304 306 306 306 307 307 308 308 310 312 313 313 316 318 318 318 318 317 317 316 320 327 328 328 333 331 330 329 329 328 326
300 301 301 300 299 299 301 302 302 303 304 305 304 305 306 307 307 308 309 309 310 311 312 313 314 316 317 318 317 317 318 318 316 318 326 326 328 330 330 328 327 326 326
303 303 302 303 302 301 301 302 302 302 302 303 303 303 304 306 306 307 308 309 310 311 312 312 313 313 315 316 316 315 316 318 319 317 320 323 328 329 329 330 328 326 326
300 301 302 303 303 304 301 301 302 302 302 302 301 299 302 303 305 306 307 307 307 308 310 310 310 311 312 312 313 315 315 316 318 321 318 320 322 326 328 329 328 325 324
298 297 297 298 297 299 299 299 300 299 298 298 298 298 299 301 303 304 304 304 305 306 306 305 307 310 311 312 312 313 316 317 317 318 321 319 320 323 326 327 327 327 325
296 297 296 296 296 295 296 296 298 298 296 297 297 297 298 299 300 301 302 302 303 303 303 304 305 306 309 309 310 312 316 317 319 320 321 320 321 325 326 327 327 326 325
295 294 294 293 294 294 294 295 295 296 295 294 294 294 296 296 297 297 297 298 299 299 300 301 301 303 304 307 307 309 313 317 319 320 320 320 320 322 324 325 325 324 324
293 292 292 292 292 292 293 294 294 295 295 294 295 296 295 295 296 296 296 296 295 297 298 299 300 301 302 305 306 307 311 314 317 319 318 319 320 322 324 325 323 324 324
292 292 291 290 290 290 290 291 292 293 294 294 295 295 295 295 295 294 294 295 295 296 297 298 298 299 301 303 304 306 309 312 315 316 318 319 321 324 324 323 323 323 321
291 290 289 289 289 289 290 291 292 293 293 294 294 294 294 294 294 293 293 293 293 294 294 295 294 295 297 299 301 303 307 310 311 314 317 318 320 323 323 322 322 322 323
290 289 289 289 288 289 290 290 291 292 292 293 294 294 294 294 294 293 292 292 292 292 293 294 293 293 295 296 299 300 302 304 307 309 312 314 316 319 321 323 322 322 323
290 289 288 288 288 288 289 290 291 291 292 291 291 290 291 291 291 292 292 293 293 293 294 293 294 293 293 294 296 297 299 300 302 303 304 306 310 316 318 318 320 323 321
289 288 288 288 287 287 288 288 289 290 291 291 289 289 287 287 287 287 288 288 288 289 290 291 292 293 293 294 294 295 296 296 296 297 299 300 302 306 309 313 316 321 321
288 288 287 287 288 287 287 288 288 289 287 286 285 285 285 286 285 286 286 285 285 285 286 286 286 287 289 291 293 294 294 294 295 295 295 295 297 299 302 304 307 316 320
288 287 288 288 288 288 288 288 287 287 286 285 285 285 284 284 284 284 284 284 285 285 285 284 284 284 284 286 288 291 292 293 293 293 293 293 295 296 298 299 302 302 312
288 288 288 288 288 288 287 287 286 285 284 284 283 283 283 283 283 283 283 283 283 283 283 283 283 283 282 282 284 286 288 289 291 292 291 290 291 294 296 298 300 301 302
287 287 287 287 287 286 285 285 285 284 283 283 282 282 282 282 282 282 283 282 282 282 282 281 281 281 281 282 282 282 283 285 287 288 289 289 289 291 292 292 292 293 296
286 286 287 287 286 285 285 284 283 282 282 282 282 282 282 282 281 281 281 281 281 281 281 281 281 281 280 280 280 281 281 281 283 285 286 287 288 289 290 291 291 292 294
286 286 286 286 285 285 284 283 282 282 282 282 282 281 281 281 280 280 280 280 279 279 279 279 279 279 279 279 280 280 280 280 281 281 282 284 286 287 288 288 289 291 291
286 285 285 284 284 284 283 282 282 282 282 281 281 280 280 280 279 278 278 278 277 277 278 277 277 276 277 277 278 278 279 279 279 280 281 281 282 282 283 286 286 286 286
283 283 283 282 282 281 282 282 282 281 281 281 280 280 279 278 278 277 277 277 276 276 276 275 275 275 275 274 275 276 276 277 277 278 280 280 281 281 281 280 280 282 283
282 282 282 282 281 281 281 281 281 280 280 280 279 278 278 278 277 277 277 276 275 275 274 274 274 274 273 273 274 274 275 276 276 277 277 276 276 276 276 277 278 278 279